<?xml version="1.0" encoding="UTF-8" standalone="no" ?>
<gpx xmlns="http://www.topografix.com/GPX/1/1" xmlns:xsi="http://www.w3.org/2001/XMLSchema-instance" xsi:schemaLocation="http://www.topografix.com/GPX/1/1 http://www.topografix.com/GPX/1/1/gpx.xsd" version="1.1" creator="VisuGPX - https://www.visugpx.com">
  <metadata>
    <name>Lac d'Allos et Col de l'Encombrette</name>
  </metadata>
  <trk>
    <name><![CDATA[Lac d'Allos et Col de l'Encombrette_1]]></name>
    <trkseg>
      <trkpt lat="44.24699" lon="6.66921">
        <ele>1822</ele>
        <time>2021-08-19T06:29:45Z</time>
      </trkpt>
      <trkpt lat="44.2472" lon="6.66897">
        <ele>1805</ele>
        <time>2021-08-19T06:32:52Z</time>
      </trkpt>
      <trkpt lat="44.24727" lon="6.66897">
        <ele>1805</ele>
        <time>2021-08-19T06:33:02Z</time>
      </trkpt>
      <trkpt lat="44.24734" lon="6.66896">
        <ele>1807</ele>
        <time>2021-08-19T06:33:14Z</time>
      </trkpt>
      <trkpt lat="44.24736" lon="6.66909">
        <ele>1807</ele>
        <time>2021-08-19T06:33:23Z</time>
      </trkpt>
      <trkpt lat="44.24741" lon="6.66922">
        <ele>1807</ele>
        <time>2021-08-19T06:33:32Z</time>
      </trkpt>
      <trkpt lat="44.24743" lon="6.66921">
        <ele>1813</ele>
        <time>2021-08-19T06:33:41Z</time>
      </trkpt>
      <trkpt lat="44.24741" lon="6.66919">
        <ele>1813</ele>
        <time>2021-08-19T06:33:52Z</time>
      </trkpt>
      <trkpt lat="44.24737" lon="6.66912">
        <ele>1813</ele>
        <time>2021-08-19T06:34:01Z</time>
      </trkpt>
      <trkpt lat="44.24737" lon="6.66909">
        <ele>1817</ele>
        <time>2021-08-19T06:34:10Z</time>
      </trkpt>
      <trkpt lat="44.24739" lon="6.66913">
        <ele>1817</ele>
        <time>2021-08-19T06:34:20Z</time>
      </trkpt>
      <trkpt lat="44.24745" lon="6.6693">
        <ele>1815</ele>
        <time>2021-08-19T06:34:29Z</time>
      </trkpt>
      <trkpt lat="44.24742" lon="6.6695">
        <ele>1815</ele>
        <time>2021-08-19T06:34:38Z</time>
      </trkpt>
      <trkpt lat="44.24737" lon="6.66962">
        <ele>1813</ele>
        <time>2021-08-19T06:34:47Z</time>
      </trkpt>
      <trkpt lat="44.24731" lon="6.66973">
        <ele>1807</ele>
        <time>2021-08-19T06:34:56Z</time>
      </trkpt>
      <trkpt lat="44.24738" lon="6.66976">
        <ele>1802</ele>
        <time>2021-08-19T06:35:08Z</time>
      </trkpt>
      <trkpt lat="44.24746" lon="6.66981">
        <ele>1801</ele>
        <time>2021-08-19T06:35:19Z</time>
      </trkpt>
      <trkpt lat="44.24749" lon="6.66988">
        <ele>1801</ele>
        <time>2021-08-19T06:35:28Z</time>
      </trkpt>
      <trkpt lat="44.24747" lon="6.66994">
        <ele>1801</ele>
        <time>2021-08-19T06:35:37Z</time>
      </trkpt>
      <trkpt lat="44.24745" lon="6.66998">
        <ele>1801</ele>
        <time>2021-08-19T06:35:47Z</time>
      </trkpt>
      <trkpt lat="44.24745" lon="6.67004">
        <ele>1795</ele>
        <time>2021-08-19T06:35:57Z</time>
      </trkpt>
      <trkpt lat="44.24746" lon="6.67019">
        <ele>1795</ele>
        <time>2021-08-19T06:36:06Z</time>
      </trkpt>
      <trkpt lat="44.2475" lon="6.6703">
        <ele>1795</ele>
        <time>2021-08-19T06:36:15Z</time>
      </trkpt>
      <trkpt lat="44.24757" lon="6.67039">
        <ele>1791</ele>
        <time>2021-08-19T06:36:25Z</time>
      </trkpt>
      <trkpt lat="44.24766" lon="6.67046">
        <ele>1789</ele>
        <time>2021-08-19T06:36:35Z</time>
      </trkpt>
      <trkpt lat="44.24771" lon="6.67057">
        <ele>1787</ele>
        <time>2021-08-19T06:36:45Z</time>
      </trkpt>
      <trkpt lat="44.24773" lon="6.67064">
        <ele>1785</ele>
        <time>2021-08-19T06:36:54Z</time>
      </trkpt>
      <trkpt lat="44.24774" lon="6.67077">
        <ele>1783</ele>
        <time>2021-08-19T06:37:04Z</time>
      </trkpt>
      <trkpt lat="44.24775" lon="6.6709">
        <ele>1783</ele>
        <time>2021-08-19T06:37:15Z</time>
      </trkpt>
      <trkpt lat="44.24775" lon="6.67099">
        <ele>1783</ele>
        <time>2021-08-19T06:37:25Z</time>
      </trkpt>
      <trkpt lat="44.24778" lon="6.6711">
        <ele>1782</ele>
        <time>2021-08-19T06:37:35Z</time>
      </trkpt>
      <trkpt lat="44.24777" lon="6.67121">
        <ele>1782</ele>
        <time>2021-08-19T06:37:45Z</time>
      </trkpt>
      <trkpt lat="44.24777" lon="6.67132">
        <ele>1782</ele>
        <time>2021-08-19T06:37:54Z</time>
      </trkpt>
      <trkpt lat="44.24775" lon="6.67145">
        <ele>1782</ele>
        <time>2021-08-19T06:38:04Z</time>
      </trkpt>
      <trkpt lat="44.24776" lon="6.6716">
        <ele>1784</ele>
        <time>2021-08-19T06:38:13Z</time>
      </trkpt>
      <trkpt lat="44.24786" lon="6.67171">
        <ele>1785</ele>
        <time>2021-08-19T06:38:23Z</time>
      </trkpt>
      <trkpt lat="44.24788" lon="6.67183">
        <ele>1785</ele>
        <time>2021-08-19T06:38:33Z</time>
      </trkpt>
      <trkpt lat="44.24789" lon="6.67193">
        <ele>1778</ele>
        <time>2021-08-19T06:38:46Z</time>
      </trkpt>
      <trkpt lat="44.24791" lon="6.67196">
        <ele>1772</ele>
        <time>2021-08-19T06:38:56Z</time>
      </trkpt>
      <trkpt lat="44.24786" lon="6.67197">
        <ele>1771</ele>
        <time>2021-08-19T06:39:05Z</time>
      </trkpt>
      <trkpt lat="44.24789" lon="6.67205">
        <ele>1771</ele>
        <time>2021-08-19T06:39:15Z</time>
      </trkpt>
      <trkpt lat="44.24789" lon="6.67218">
        <ele>1771</ele>
        <time>2021-08-19T06:39:24Z</time>
      </trkpt>
      <trkpt lat="44.24791" lon="6.67231">
        <ele>1767</ele>
        <time>2021-08-19T06:39:34Z</time>
      </trkpt>
      <trkpt lat="44.24792" lon="6.67245">
        <ele>1766</ele>
        <time>2021-08-19T06:39:44Z</time>
      </trkpt>
      <trkpt lat="44.24794" lon="6.67254">
        <ele>1761</ele>
        <time>2021-08-19T06:39:53Z</time>
      </trkpt>
      <trkpt lat="44.24796" lon="6.67269">
        <ele>1761</ele>
        <time>2021-08-19T06:40:02Z</time>
      </trkpt>
      <trkpt lat="44.24795" lon="6.67279">
        <ele>1761</ele>
        <time>2021-08-19T06:40:11Z</time>
      </trkpt>
      <trkpt lat="44.248" lon="6.67285">
        <ele>1761</ele>
        <time>2021-08-19T06:40:21Z</time>
      </trkpt>
      <trkpt lat="44.24806" lon="6.67296">
        <ele>1761</ele>
        <time>2021-08-19T06:40:30Z</time>
      </trkpt>
      <trkpt lat="44.2481" lon="6.67305">
        <ele>1761</ele>
        <time>2021-08-19T06:40:39Z</time>
      </trkpt>
      <trkpt lat="44.24818" lon="6.6731">
        <ele>1759</ele>
        <time>2021-08-19T06:40:50Z</time>
      </trkpt>
      <trkpt lat="44.24822" lon="6.67316">
        <ele>1758</ele>
        <time>2021-08-19T06:41:02Z</time>
      </trkpt>
      <trkpt lat="44.2482" lon="6.67325">
        <ele>1757</ele>
        <time>2021-08-19T06:41:11Z</time>
      </trkpt>
      <trkpt lat="44.24816" lon="6.67337">
        <ele>1757</ele>
        <time>2021-08-19T06:41:20Z</time>
      </trkpt>
      <trkpt lat="44.24813" lon="6.6735">
        <ele>1760</ele>
        <time>2021-08-19T06:41:30Z</time>
      </trkpt>
      <trkpt lat="44.2481" lon="6.67357">
        <ele>1760</ele>
        <time>2021-08-19T06:41:39Z</time>
      </trkpt>
      <trkpt lat="44.24807" lon="6.67369">
        <ele>1756</ele>
        <time>2021-08-19T06:41:48Z</time>
      </trkpt>
      <trkpt lat="44.24804" lon="6.67382">
        <ele>1755</ele>
        <time>2021-08-19T06:41:57Z</time>
      </trkpt>
      <trkpt lat="44.24799" lon="6.67394">
        <ele>1753</ele>
        <time>2021-08-19T06:42:06Z</time>
      </trkpt>
      <trkpt lat="44.24796" lon="6.67405">
        <ele>1751</ele>
        <time>2021-08-19T06:42:16Z</time>
      </trkpt>
      <trkpt lat="44.24791" lon="6.67409">
        <ele>1745</ele>
        <time>2021-08-19T06:42:25Z</time>
      </trkpt>
      <trkpt lat="44.24778" lon="6.67416">
        <ele>1745</ele>
        <time>2021-08-19T06:42:34Z</time>
      </trkpt>
      <trkpt lat="44.24767" lon="6.67412">
        <ele>1745</ele>
        <time>2021-08-19T06:42:43Z</time>
      </trkpt>
      <trkpt lat="44.24759" lon="6.6742">
        <ele>1747</ele>
        <time>2021-08-19T06:42:52Z</time>
      </trkpt>
      <trkpt lat="44.24753" lon="6.67429">
        <ele>1751</ele>
        <time>2021-08-19T06:43:02Z</time>
      </trkpt>
      <trkpt lat="44.24749" lon="6.67438">
        <ele>1755</ele>
        <time>2021-08-19T06:43:12Z</time>
      </trkpt>
      <trkpt lat="44.24755" lon="6.67439">
        <ele>1756</ele>
        <time>2021-08-19T06:43:21Z</time>
      </trkpt>
      <trkpt lat="44.24755" lon="6.67447">
        <ele>1761</ele>
        <time>2021-08-19T06:43:31Z</time>
      </trkpt>
      <trkpt lat="44.24757" lon="6.67443">
        <ele>1758</ele>
        <time>2021-08-19T06:43:41Z</time>
      </trkpt>
      <trkpt lat="44.24758" lon="6.67449">
        <ele>1748</ele>
        <time>2021-08-19T06:43:51Z</time>
      </trkpt>
      <trkpt lat="44.24764" lon="6.6745">
        <ele>1745</ele>
        <time>2021-08-19T06:44:01Z</time>
      </trkpt>
      <trkpt lat="44.24772" lon="6.67459">
        <ele>1741</ele>
        <time>2021-08-19T06:44:11Z</time>
      </trkpt>
      <trkpt lat="44.24777" lon="6.67468">
        <ele>1740</ele>
        <time>2021-08-19T06:44:21Z</time>
      </trkpt>
      <trkpt lat="44.24783" lon="6.67473">
        <ele>1741</ele>
        <time>2021-08-19T06:44:30Z</time>
      </trkpt>
      <trkpt lat="44.24789" lon="6.67481">
        <ele>1746</ele>
        <time>2021-08-19T06:44:40Z</time>
      </trkpt>
      <trkpt lat="44.24794" lon="6.67489">
        <ele>1746</ele>
        <time>2021-08-19T06:44:49Z</time>
      </trkpt>
      <trkpt lat="44.24794" lon="6.67491">
        <ele>1746</ele>
        <time>2021-08-19T06:44:58Z</time>
      </trkpt>
      <trkpt lat="44.24802" lon="6.67498">
        <ele>1746</ele>
        <time>2021-08-19T06:45:08Z</time>
      </trkpt>
      <trkpt lat="44.24807" lon="6.67506">
        <ele>1746</ele>
        <time>2021-08-19T06:45:17Z</time>
      </trkpt>
      <trkpt lat="44.24811" lon="6.67517">
        <ele>1744</ele>
        <time>2021-08-19T06:45:26Z</time>
      </trkpt>
      <trkpt lat="44.24814" lon="6.67528">
        <ele>1743</ele>
        <time>2021-08-19T06:45:35Z</time>
      </trkpt>
      <trkpt lat="44.24818" lon="6.67541">
        <ele>1743</ele>
        <time>2021-08-19T06:45:44Z</time>
      </trkpt>
      <trkpt lat="44.24821" lon="6.67554">
        <ele>1741</ele>
        <time>2021-08-19T06:45:53Z</time>
      </trkpt>
      <trkpt lat="44.24829" lon="6.67561">
        <ele>1737</ele>
        <time>2021-08-19T06:46:03Z</time>
      </trkpt>
      <trkpt lat="44.24838" lon="6.67561">
        <ele>1735</ele>
        <time>2021-08-19T06:46:13Z</time>
      </trkpt>
      <trkpt lat="44.24845" lon="6.67555">
        <ele>1733</ele>
        <time>2021-08-19T06:46:22Z</time>
      </trkpt>
      <trkpt lat="44.24852" lon="6.67548">
        <ele>1733</ele>
        <time>2021-08-19T06:46:31Z</time>
      </trkpt>
      <trkpt lat="44.24858" lon="6.67538">
        <ele>1731</ele>
        <time>2021-08-19T06:46:41Z</time>
      </trkpt>
      <trkpt lat="44.24864" lon="6.67526">
        <ele>1728</ele>
        <time>2021-08-19T06:46:51Z</time>
      </trkpt>
      <trkpt lat="44.24868" lon="6.67515">
        <ele>1727</ele>
        <time>2021-08-19T06:47:00Z</time>
      </trkpt>
      <trkpt lat="44.24869" lon="6.67511">
        <ele>1726</ele>
        <time>2021-08-19T06:47:15Z</time>
      </trkpt>
      <trkpt lat="44.24873" lon="6.67499">
        <ele>1724</ele>
        <time>2021-08-19T06:47:25Z</time>
      </trkpt>
      <trkpt lat="44.2488" lon="6.67492">
        <ele>1721</ele>
        <time>2021-08-19T06:47:35Z</time>
      </trkpt>
      <trkpt lat="44.24889" lon="6.67486">
        <ele>1720</ele>
        <time>2021-08-19T06:47:45Z</time>
      </trkpt>
      <trkpt lat="44.24897" lon="6.67477">
        <ele>1719</ele>
        <time>2021-08-19T06:47:54Z</time>
      </trkpt>
      <trkpt lat="44.24904" lon="6.67467">
        <ele>1717</ele>
        <time>2021-08-19T06:48:04Z</time>
      </trkpt>
      <trkpt lat="44.24915" lon="6.67467">
        <ele>1717</ele>
        <time>2021-08-19T06:48:15Z</time>
      </trkpt>
      <trkpt lat="44.24925" lon="6.67468">
        <ele>1717</ele>
        <time>2021-08-19T06:48:24Z</time>
      </trkpt>
      <trkpt lat="44.24932" lon="6.67467">
        <ele>1717</ele>
        <time>2021-08-19T06:48:33Z</time>
      </trkpt>
      <trkpt lat="44.24938" lon="6.67458">
        <ele>1717</ele>
        <time>2021-08-19T06:48:43Z</time>
      </trkpt>
      <trkpt lat="44.24936" lon="6.67444">
        <ele>1717</ele>
        <time>2021-08-19T06:48:52Z</time>
      </trkpt>
      <trkpt lat="44.24935" lon="6.67431">
        <ele>1717</ele>
        <time>2021-08-19T06:49:01Z</time>
      </trkpt>
      <trkpt lat="44.2494" lon="6.6742">
        <ele>1717</ele>
        <time>2021-08-19T06:49:11Z</time>
      </trkpt>
      <trkpt lat="44.24947" lon="6.67426">
        <ele>1717</ele>
        <time>2021-08-19T06:49:21Z</time>
      </trkpt>
      <trkpt lat="44.24952" lon="6.67435">
        <ele>1719</ele>
        <time>2021-08-19T06:49:30Z</time>
      </trkpt>
      <trkpt lat="44.24954" lon="6.67442">
        <ele>1720</ele>
        <time>2021-08-19T06:49:40Z</time>
      </trkpt>
      <trkpt lat="44.24957" lon="6.6745">
        <ele>1723</ele>
        <time>2021-08-19T06:49:49Z</time>
      </trkpt>
      <trkpt lat="44.24958" lon="6.6746">
        <ele>1726</ele>
        <time>2021-08-19T06:49:59Z</time>
      </trkpt>
      <trkpt lat="44.2496" lon="6.67472">
        <ele>1726</ele>
        <time>2021-08-19T06:50:08Z</time>
      </trkpt>
      <trkpt lat="44.24966" lon="6.67479">
        <ele>1726</ele>
        <time>2021-08-19T06:50:18Z</time>
      </trkpt>
      <trkpt lat="44.24973" lon="6.67485">
        <ele>1728</ele>
        <time>2021-08-19T06:50:29Z</time>
      </trkpt>
      <trkpt lat="44.24976" lon="6.67491">
        <ele>1733</ele>
        <time>2021-08-19T06:50:38Z</time>
      </trkpt>
      <trkpt lat="44.24982" lon="6.67496">
        <ele>1734</ele>
        <time>2021-08-19T06:50:48Z</time>
      </trkpt>
      <trkpt lat="44.2499" lon="6.675">
        <ele>1737</ele>
        <time>2021-08-19T06:50:59Z</time>
      </trkpt>
      <trkpt lat="44.24996" lon="6.67504">
        <ele>1737</ele>
        <time>2021-08-19T06:51:11Z</time>
      </trkpt>
      <trkpt lat="44.24994" lon="6.67509">
        <ele>1737</ele>
        <time>2021-08-19T06:51:20Z</time>
      </trkpt>
      <trkpt lat="44.24996" lon="6.67512">
        <ele>1738</ele>
        <time>2021-08-19T06:51:46Z</time>
      </trkpt>
      <trkpt lat="44.24999" lon="6.67511">
        <ele>1739</ele>
        <time>2021-08-19T06:52:01Z</time>
      </trkpt>
      <trkpt lat="44.25004" lon="6.67513">
        <ele>1739</ele>
        <time>2021-08-19T06:52:11Z</time>
      </trkpt>
      <trkpt lat="44.25" lon="6.6751">
        <ele>1741</ele>
        <time>2021-08-19T06:52:27Z</time>
      </trkpt>
      <trkpt lat="44.25" lon="6.67509">
        <ele>1744</ele>
        <time>2021-08-19T06:52:36Z</time>
      </trkpt>
      <trkpt lat="44.25001" lon="6.67507">
        <ele>1744</ele>
        <time>2021-08-19T06:52:51Z</time>
      </trkpt>
      <trkpt lat="44.24995" lon="6.67508">
        <ele>1744</ele>
        <time>2021-08-19T06:53:02Z</time>
      </trkpt>
      <trkpt lat="44.24994" lon="6.67509">
        <ele>1741</ele>
        <time>2021-08-19T06:53:19Z</time>
      </trkpt>
      <trkpt lat="44.24995" lon="6.6751">
        <ele>1741</ele>
        <time>2021-08-19T06:53:32Z</time>
      </trkpt>
      <trkpt lat="44.24997" lon="6.6751">
        <ele>1741</ele>
        <time>2021-08-19T06:53:50Z</time>
      </trkpt>
      <trkpt lat="44.24999" lon="6.67513">
        <ele>1741</ele>
        <time>2021-08-19T06:54:01Z</time>
      </trkpt>
      <trkpt lat="44.25005" lon="6.67519">
        <ele>1741</ele>
        <time>2021-08-19T06:54:11Z</time>
      </trkpt>
      <trkpt lat="44.25011" lon="6.67526">
        <ele>1741</ele>
        <time>2021-08-19T06:54:21Z</time>
      </trkpt>
      <trkpt lat="44.25015" lon="6.67534">
        <ele>1743</ele>
        <time>2021-08-19T06:54:31Z</time>
      </trkpt>
      <trkpt lat="44.2502" lon="6.67542">
        <ele>1745</ele>
        <time>2021-08-19T06:54:41Z</time>
      </trkpt>
      <trkpt lat="44.25028" lon="6.67546">
        <ele>1748</ele>
        <time>2021-08-19T06:54:51Z</time>
      </trkpt>
      <trkpt lat="44.25037" lon="6.67549">
        <ele>1748</ele>
        <time>2021-08-19T06:55:01Z</time>
      </trkpt>
      <trkpt lat="44.25042" lon="6.67553">
        <ele>1749</ele>
        <time>2021-08-19T06:55:10Z</time>
      </trkpt>
      <trkpt lat="44.25048" lon="6.67561">
        <ele>1751</ele>
        <time>2021-08-19T06:55:21Z</time>
      </trkpt>
      <trkpt lat="44.25053" lon="6.67566">
        <ele>1754</ele>
        <time>2021-08-19T06:55:31Z</time>
      </trkpt>
      <trkpt lat="44.25058" lon="6.67571">
        <ele>1755</ele>
        <time>2021-08-19T06:55:40Z</time>
      </trkpt>
      <trkpt lat="44.25061" lon="6.67578">
        <ele>1756</ele>
        <time>2021-08-19T06:55:49Z</time>
      </trkpt>
      <trkpt lat="44.25065" lon="6.67584">
        <ele>1759</ele>
        <time>2021-08-19T06:55:59Z</time>
      </trkpt>
      <trkpt lat="44.25069" lon="6.67588">
        <ele>1760</ele>
        <time>2021-08-19T06:56:08Z</time>
      </trkpt>
      <trkpt lat="44.25069" lon="6.67591">
        <ele>1762</ele>
        <time>2021-08-19T06:56:18Z</time>
      </trkpt>
      <trkpt lat="44.25072" lon="6.676">
        <ele>1764</ele>
        <time>2021-08-19T06:56:27Z</time>
      </trkpt>
      <trkpt lat="44.25075" lon="6.67609">
        <ele>1765</ele>
        <time>2021-08-19T06:56:37Z</time>
      </trkpt>
      <trkpt lat="44.25079" lon="6.67617">
        <ele>1767</ele>
        <time>2021-08-19T06:56:47Z</time>
      </trkpt>
      <trkpt lat="44.2508" lon="6.67627">
        <ele>1769</ele>
        <time>2021-08-19T06:56:57Z</time>
      </trkpt>
      <trkpt lat="44.25084" lon="6.67637">
        <ele>1770</ele>
        <time>2021-08-19T06:57:07Z</time>
      </trkpt>
      <trkpt lat="44.25087" lon="6.67643">
        <ele>1770</ele>
        <time>2021-08-19T06:57:18Z</time>
      </trkpt>
      <trkpt lat="44.25088" lon="6.67652">
        <ele>1770</ele>
        <time>2021-08-19T06:57:28Z</time>
      </trkpt>
      <trkpt lat="44.2509" lon="6.67663">
        <ele>1770</ele>
        <time>2021-08-19T06:57:38Z</time>
      </trkpt>
      <trkpt lat="44.25091" lon="6.67674">
        <ele>1771</ele>
        <time>2021-08-19T06:57:47Z</time>
      </trkpt>
      <trkpt lat="44.25094" lon="6.67683">
        <ele>1771</ele>
        <time>2021-08-19T06:57:57Z</time>
      </trkpt>
      <trkpt lat="44.25096" lon="6.67693">
        <ele>1771</ele>
        <time>2021-08-19T06:58:07Z</time>
      </trkpt>
      <trkpt lat="44.25098" lon="6.67703">
        <ele>1772</ele>
        <time>2021-08-19T06:58:17Z</time>
      </trkpt>
      <trkpt lat="44.251" lon="6.67713">
        <ele>1772</ele>
        <time>2021-08-19T06:58:27Z</time>
      </trkpt>
      <trkpt lat="44.25102" lon="6.67721">
        <ele>1772</ele>
        <time>2021-08-19T06:58:36Z</time>
      </trkpt>
      <trkpt lat="44.25102" lon="6.67729">
        <ele>1775</ele>
        <time>2021-08-19T06:58:46Z</time>
      </trkpt>
      <trkpt lat="44.25102" lon="6.6773">
        <ele>1777</ele>
        <time>2021-08-19T06:58:57Z</time>
      </trkpt>
      <trkpt lat="44.25103" lon="6.67732">
        <ele>1781</ele>
        <time>2021-08-19T06:59:57Z</time>
      </trkpt>
      <trkpt lat="44.25106" lon="6.67742">
        <ele>1782</ele>
        <time>2021-08-19T07:00:07Z</time>
      </trkpt>
      <trkpt lat="44.25106" lon="6.67754">
        <ele>1782</ele>
        <time>2021-08-19T07:00:16Z</time>
      </trkpt>
      <trkpt lat="44.25108" lon="6.67767">
        <ele>1782</ele>
        <time>2021-08-19T07:00:26Z</time>
      </trkpt>
      <trkpt lat="44.2511" lon="6.6778">
        <ele>1782</ele>
        <time>2021-08-19T07:00:36Z</time>
      </trkpt>
      <trkpt lat="44.25115" lon="6.67787">
        <ele>1782</ele>
        <time>2021-08-19T07:00:46Z</time>
      </trkpt>
      <trkpt lat="44.25119" lon="6.67794">
        <ele>1784</ele>
        <time>2021-08-19T07:00:56Z</time>
      </trkpt>
      <trkpt lat="44.25124" lon="6.67803">
        <ele>1786</ele>
        <time>2021-08-19T07:01:06Z</time>
      </trkpt>
      <trkpt lat="44.25127" lon="6.67814">
        <ele>1788</ele>
        <time>2021-08-19T07:01:16Z</time>
      </trkpt>
      <trkpt lat="44.25129" lon="6.67826">
        <ele>1789</ele>
        <time>2021-08-19T07:01:26Z</time>
      </trkpt>
      <trkpt lat="44.25132" lon="6.67835">
        <ele>1790</ele>
        <time>2021-08-19T07:01:36Z</time>
      </trkpt>
      <trkpt lat="44.25137" lon="6.67844">
        <ele>1792</ele>
        <time>2021-08-19T07:01:46Z</time>
      </trkpt>
      <trkpt lat="44.2514" lon="6.67854">
        <ele>1793</ele>
        <time>2021-08-19T07:01:56Z</time>
      </trkpt>
      <trkpt lat="44.25143" lon="6.67862">
        <ele>1795</ele>
        <time>2021-08-19T07:02:06Z</time>
      </trkpt>
      <trkpt lat="44.25142" lon="6.67872">
        <ele>1796</ele>
        <time>2021-08-19T07:02:16Z</time>
      </trkpt>
      <trkpt lat="44.25141" lon="6.67882">
        <ele>1797</ele>
        <time>2021-08-19T07:02:25Z</time>
      </trkpt>
      <trkpt lat="44.25138" lon="6.67893">
        <ele>1797</ele>
        <time>2021-08-19T07:02:34Z</time>
      </trkpt>
      <trkpt lat="44.25135" lon="6.67904">
        <ele>1797</ele>
        <time>2021-08-19T07:02:44Z</time>
      </trkpt>
      <trkpt lat="44.25135" lon="6.67914">
        <ele>1797</ele>
        <time>2021-08-19T07:02:54Z</time>
      </trkpt>
      <trkpt lat="44.25135" lon="6.67922">
        <ele>1799</ele>
        <time>2021-08-19T07:03:04Z</time>
      </trkpt>
      <trkpt lat="44.25138" lon="6.67929">
        <ele>1801</ele>
        <time>2021-08-19T07:03:14Z</time>
      </trkpt>
      <trkpt lat="44.25141" lon="6.67938">
        <ele>1802</ele>
        <time>2021-08-19T07:03:24Z</time>
      </trkpt>
      <trkpt lat="44.25144" lon="6.67946">
        <ele>1802</ele>
        <time>2021-08-19T07:03:34Z</time>
      </trkpt>
      <trkpt lat="44.25147" lon="6.67954">
        <ele>1803</ele>
        <time>2021-08-19T07:03:43Z</time>
      </trkpt>
      <trkpt lat="44.25149" lon="6.67963">
        <ele>1805</ele>
        <time>2021-08-19T07:03:53Z</time>
      </trkpt>
      <trkpt lat="44.25152" lon="6.67969">
        <ele>1806</ele>
        <time>2021-08-19T07:04:02Z</time>
      </trkpt>
      <trkpt lat="44.25154" lon="6.67977">
        <ele>1808</ele>
        <time>2021-08-19T07:04:12Z</time>
      </trkpt>
      <trkpt lat="44.25156" lon="6.67977">
        <ele>1809</ele>
        <time>2021-08-19T07:04:21Z</time>
      </trkpt>
      <trkpt lat="44.25158" lon="6.67971">
        <ele>1813</ele>
        <time>2021-08-19T07:04:31Z</time>
      </trkpt>
      <trkpt lat="44.25161" lon="6.67962">
        <ele>1815</ele>
        <time>2021-08-19T07:04:42Z</time>
      </trkpt>
      <trkpt lat="44.25163" lon="6.67958">
        <ele>1817</ele>
        <time>2021-08-19T07:04:53Z</time>
      </trkpt>
      <trkpt lat="44.25162" lon="6.67959">
        <ele>1817</ele>
        <time>2021-08-19T07:05:07Z</time>
      </trkpt>
      <trkpt lat="44.25163" lon="6.67958">
        <ele>1817</ele>
        <time>2021-08-19T07:05:37Z</time>
      </trkpt>
      <trkpt lat="44.25164" lon="6.67957">
        <ele>1818</ele>
        <time>2021-08-19T07:07:24Z</time>
      </trkpt>
      <trkpt lat="44.25165" lon="6.67957">
        <ele>1818</ele>
        <time>2021-08-19T07:07:43Z</time>
      </trkpt>
      <trkpt lat="44.2517" lon="6.67946">
        <ele>1818</ele>
        <time>2021-08-19T07:07:53Z</time>
      </trkpt>
      <trkpt lat="44.25176" lon="6.67937">
        <ele>1818</ele>
        <time>2021-08-19T07:08:03Z</time>
      </trkpt>
      <trkpt lat="44.25181" lon="6.6793">
        <ele>1820</ele>
        <time>2021-08-19T07:08:13Z</time>
      </trkpt>
      <trkpt lat="44.25186" lon="6.6792">
        <ele>1821</ele>
        <time>2021-08-19T07:08:23Z</time>
      </trkpt>
      <trkpt lat="44.25191" lon="6.67911">
        <ele>1823</ele>
        <time>2021-08-19T07:08:33Z</time>
      </trkpt>
      <trkpt lat="44.25192" lon="6.6792">
        <ele>1825</ele>
        <time>2021-08-19T07:08:43Z</time>
      </trkpt>
      <trkpt lat="44.25193" lon="6.67927">
        <ele>1827</ele>
        <time>2021-08-19T07:09:12Z</time>
      </trkpt>
      <trkpt lat="44.25192" lon="6.67929">
        <ele>1827</ele>
        <time>2021-08-19T07:09:21Z</time>
      </trkpt>
      <trkpt lat="44.25193" lon="6.67938">
        <ele>1827</ele>
        <time>2021-08-19T07:09:31Z</time>
      </trkpt>
      <trkpt lat="44.25192" lon="6.67947">
        <ele>1828</ele>
        <time>2021-08-19T07:09:41Z</time>
      </trkpt>
      <trkpt lat="44.25193" lon="6.67956">
        <ele>1830</ele>
        <time>2021-08-19T07:09:51Z</time>
      </trkpt>
      <trkpt lat="44.25193" lon="6.67964">
        <ele>1833</ele>
        <time>2021-08-19T07:10:01Z</time>
      </trkpt>
      <trkpt lat="44.25197" lon="6.67965">
        <ele>1834</ele>
        <time>2021-08-19T07:10:11Z</time>
      </trkpt>
      <trkpt lat="44.252" lon="6.67961">
        <ele>1837</ele>
        <time>2021-08-19T07:10:20Z</time>
      </trkpt>
      <trkpt lat="44.25203" lon="6.67961">
        <ele>1838</ele>
        <time>2021-08-19T07:10:29Z</time>
      </trkpt>
      <trkpt lat="44.25203" lon="6.67967">
        <ele>1840</ele>
        <time>2021-08-19T07:10:38Z</time>
      </trkpt>
      <trkpt lat="44.25204" lon="6.67971">
        <ele>1841</ele>
        <time>2021-08-19T07:10:47Z</time>
      </trkpt>
      <trkpt lat="44.25207" lon="6.67973">
        <ele>1842</ele>
        <time>2021-08-19T07:10:57Z</time>
      </trkpt>
      <trkpt lat="44.25204" lon="6.6798">
        <ele>1843</ele>
        <time>2021-08-19T07:11:07Z</time>
      </trkpt>
      <trkpt lat="44.25203" lon="6.67985">
        <ele>1845</ele>
        <time>2021-08-19T07:11:16Z</time>
      </trkpt>
      <trkpt lat="44.25199" lon="6.67994">
        <ele>1847</ele>
        <time>2021-08-19T07:11:26Z</time>
      </trkpt>
      <trkpt lat="44.25195" lon="6.68004">
        <ele>1848</ele>
        <time>2021-08-19T07:11:36Z</time>
      </trkpt>
      <trkpt lat="44.25195" lon="6.68012">
        <ele>1849</ele>
        <time>2021-08-19T07:11:46Z</time>
      </trkpt>
      <trkpt lat="44.25196" lon="6.68019">
        <ele>1851</ele>
        <time>2021-08-19T07:11:57Z</time>
      </trkpt>
      <trkpt lat="44.25197" lon="6.68024">
        <ele>1854</ele>
        <time>2021-08-19T07:12:06Z</time>
      </trkpt>
      <trkpt lat="44.25198" lon="6.68031">
        <ele>1854</ele>
        <time>2021-08-19T07:12:15Z</time>
      </trkpt>
      <trkpt lat="44.25198" lon="6.68037">
        <ele>1854</ele>
        <time>2021-08-19T07:12:25Z</time>
      </trkpt>
      <trkpt lat="44.25201" lon="6.68047">
        <ele>1854</ele>
        <time>2021-08-19T07:12:34Z</time>
      </trkpt>
      <trkpt lat="44.25204" lon="6.68061">
        <ele>1854</ele>
        <time>2021-08-19T07:12:44Z</time>
      </trkpt>
      <trkpt lat="44.25206" lon="6.68074">
        <ele>1854</ele>
        <time>2021-08-19T07:12:54Z</time>
      </trkpt>
      <trkpt lat="44.25208" lon="6.68087">
        <ele>1854</ele>
        <time>2021-08-19T07:13:04Z</time>
      </trkpt>
      <trkpt lat="44.25209" lon="6.68093">
        <ele>1854</ele>
        <time>2021-08-19T07:13:13Z</time>
      </trkpt>
      <trkpt lat="44.25209" lon="6.68101">
        <ele>1854</ele>
        <time>2021-08-19T07:13:22Z</time>
      </trkpt>
      <trkpt lat="44.25212" lon="6.68113">
        <ele>1854</ele>
        <time>2021-08-19T07:13:31Z</time>
      </trkpt>
      <trkpt lat="44.25216" lon="6.68121">
        <ele>1854</ele>
        <time>2021-08-19T07:13:41Z</time>
      </trkpt>
      <trkpt lat="44.25219" lon="6.68127">
        <ele>1854</ele>
        <time>2021-08-19T07:13:50Z</time>
      </trkpt>
      <trkpt lat="44.25223" lon="6.68136">
        <ele>1856</ele>
        <time>2021-08-19T07:14:00Z</time>
      </trkpt>
      <trkpt lat="44.25229" lon="6.68145">
        <ele>1856</ele>
        <time>2021-08-19T07:14:10Z</time>
      </trkpt>
      <trkpt lat="44.25233" lon="6.68152">
        <ele>1858</ele>
        <time>2021-08-19T07:14:19Z</time>
      </trkpt>
      <trkpt lat="44.2524" lon="6.68162">
        <ele>1858</ele>
        <time>2021-08-19T07:14:29Z</time>
      </trkpt>
      <trkpt lat="44.25246" lon="6.68169">
        <ele>1862</ele>
        <time>2021-08-19T07:14:38Z</time>
      </trkpt>
      <trkpt lat="44.2525" lon="6.68179">
        <ele>1863</ele>
        <time>2021-08-19T07:14:48Z</time>
      </trkpt>
      <trkpt lat="44.25249" lon="6.68188">
        <ele>1863</ele>
        <time>2021-08-19T07:14:58Z</time>
      </trkpt>
      <trkpt lat="44.25252" lon="6.68199">
        <ele>1863</ele>
        <time>2021-08-19T07:15:07Z</time>
      </trkpt>
      <trkpt lat="44.25254" lon="6.68213">
        <ele>1863</ele>
        <time>2021-08-19T07:15:17Z</time>
      </trkpt>
      <trkpt lat="44.25259" lon="6.68224">
        <ele>1863</ele>
        <time>2021-08-19T07:15:26Z</time>
      </trkpt>
      <trkpt lat="44.25263" lon="6.68233">
        <ele>1863</ele>
        <time>2021-08-19T07:15:36Z</time>
      </trkpt>
      <trkpt lat="44.25264" lon="6.68247">
        <ele>1866</ele>
        <time>2021-08-19T07:15:45Z</time>
      </trkpt>
      <trkpt lat="44.25266" lon="6.68258">
        <ele>1868</ele>
        <time>2021-08-19T07:15:55Z</time>
      </trkpt>
      <trkpt lat="44.25269" lon="6.68266">
        <ele>1868</ele>
        <time>2021-08-19T07:16:05Z</time>
      </trkpt>
      <trkpt lat="44.25269" lon="6.68278">
        <ele>1868</ele>
        <time>2021-08-19T07:16:15Z</time>
      </trkpt>
      <trkpt lat="44.25273" lon="6.68291">
        <ele>1872</ele>
        <time>2021-08-19T07:16:25Z</time>
      </trkpt>
      <trkpt lat="44.25277" lon="6.68304">
        <ele>1872</ele>
        <time>2021-08-19T07:16:34Z</time>
      </trkpt>
      <trkpt lat="44.25283" lon="6.68316">
        <ele>1872</ele>
        <time>2021-08-19T07:16:43Z</time>
      </trkpt>
      <trkpt lat="44.25287" lon="6.68328">
        <ele>1872</ele>
        <time>2021-08-19T07:16:52Z</time>
      </trkpt>
      <trkpt lat="44.25291" lon="6.68338">
        <ele>1870</ele>
        <time>2021-08-19T07:17:02Z</time>
      </trkpt>
      <trkpt lat="44.25295" lon="6.68349">
        <ele>1868</ele>
        <time>2021-08-19T07:17:11Z</time>
      </trkpt>
      <trkpt lat="44.25298" lon="6.68359">
        <ele>1868</ele>
        <time>2021-08-19T07:17:20Z</time>
      </trkpt>
      <trkpt lat="44.25302" lon="6.68372">
        <ele>1868</ele>
        <time>2021-08-19T07:17:29Z</time>
      </trkpt>
      <trkpt lat="44.25307" lon="6.68382">
        <ele>1868</ele>
        <time>2021-08-19T07:17:38Z</time>
      </trkpt>
      <trkpt lat="44.2531" lon="6.68395">
        <ele>1871</ele>
        <time>2021-08-19T07:17:48Z</time>
      </trkpt>
      <trkpt lat="44.25312" lon="6.6841">
        <ele>1873</ele>
        <time>2021-08-19T07:17:59Z</time>
      </trkpt>
      <trkpt lat="44.25314" lon="6.68424">
        <ele>1873</ele>
        <time>2021-08-19T07:18:10Z</time>
      </trkpt>
      <trkpt lat="44.25317" lon="6.68436">
        <ele>1873</ele>
        <time>2021-08-19T07:18:19Z</time>
      </trkpt>
      <trkpt lat="44.25322" lon="6.68448">
        <ele>1873</ele>
        <time>2021-08-19T07:18:28Z</time>
      </trkpt>
      <trkpt lat="44.25328" lon="6.68458">
        <ele>1873</ele>
        <time>2021-08-19T07:18:37Z</time>
      </trkpt>
      <trkpt lat="44.25332" lon="6.68468">
        <ele>1873</ele>
        <time>2021-08-19T07:18:46Z</time>
      </trkpt>
      <trkpt lat="44.2534" lon="6.68476">
        <ele>1873</ele>
        <time>2021-08-19T07:18:56Z</time>
      </trkpt>
      <trkpt lat="44.25345" lon="6.68485">
        <ele>1873</ele>
        <time>2021-08-19T07:19:05Z</time>
      </trkpt>
      <trkpt lat="44.25344" lon="6.68497">
        <ele>1875</ele>
        <time>2021-08-19T07:19:16Z</time>
      </trkpt>
      <trkpt lat="44.25337" lon="6.68497">
        <ele>1875</ele>
        <time>2021-08-19T07:19:26Z</time>
      </trkpt>
      <trkpt lat="44.25333" lon="6.68499">
        <ele>1875</ele>
        <time>2021-08-19T07:19:37Z</time>
      </trkpt>
      <trkpt lat="44.25337" lon="6.68505">
        <ele>1875</ele>
        <time>2021-08-19T07:19:46Z</time>
      </trkpt>
      <trkpt lat="44.25338" lon="6.68517">
        <ele>1879</ele>
        <time>2021-08-19T07:19:56Z</time>
      </trkpt>
      <trkpt lat="44.25337" lon="6.68527">
        <ele>1881</ele>
        <time>2021-08-19T07:20:05Z</time>
      </trkpt>
      <trkpt lat="44.25336" lon="6.68539">
        <ele>1883</ele>
        <time>2021-08-19T07:20:15Z</time>
      </trkpt>
      <trkpt lat="44.25333" lon="6.68552">
        <ele>1885</ele>
        <time>2021-08-19T07:20:25Z</time>
      </trkpt>
      <trkpt lat="44.2533" lon="6.68563">
        <ele>1885</ele>
        <time>2021-08-19T07:20:35Z</time>
      </trkpt>
      <trkpt lat="44.25323" lon="6.68567">
        <ele>1885</ele>
        <time>2021-08-19T07:20:46Z</time>
      </trkpt>
      <trkpt lat="44.25318" lon="6.68575">
        <ele>1884</ele>
        <time>2021-08-19T07:20:57Z</time>
      </trkpt>
      <trkpt lat="44.25313" lon="6.68589">
        <ele>1884</ele>
        <time>2021-08-19T07:21:08Z</time>
      </trkpt>
      <trkpt lat="44.25311" lon="6.68602">
        <ele>1884</ele>
        <time>2021-08-19T07:21:18Z</time>
      </trkpt>
      <trkpt lat="44.25307" lon="6.68615">
        <ele>1887</ele>
        <time>2021-08-19T07:21:29Z</time>
      </trkpt>
      <trkpt lat="44.25307" lon="6.68628">
        <ele>1891</ele>
        <time>2021-08-19T07:21:39Z</time>
      </trkpt>
      <trkpt lat="44.25303" lon="6.68641">
        <ele>1891</ele>
        <time>2021-08-19T07:21:49Z</time>
      </trkpt>
      <trkpt lat="44.25298" lon="6.68651">
        <ele>1891</ele>
        <time>2021-08-19T07:21:59Z</time>
      </trkpt>
      <trkpt lat="44.25296" lon="6.68667">
        <ele>1891</ele>
        <time>2021-08-19T07:22:09Z</time>
      </trkpt>
      <trkpt lat="44.25294" lon="6.68681">
        <ele>1891</ele>
        <time>2021-08-19T07:22:19Z</time>
      </trkpt>
      <trkpt lat="44.25292" lon="6.68695">
        <ele>1890</ele>
        <time>2021-08-19T07:22:29Z</time>
      </trkpt>
      <trkpt lat="44.25288" lon="6.68708">
        <ele>1890</ele>
        <time>2021-08-19T07:22:38Z</time>
      </trkpt>
      <trkpt lat="44.25285" lon="6.68714">
        <ele>1890</ele>
        <time>2021-08-19T07:22:48Z</time>
      </trkpt>
      <trkpt lat="44.25284" lon="6.68709">
        <ele>1890</ele>
        <time>2021-08-19T07:23:01Z</time>
      </trkpt>
      <trkpt lat="44.25283" lon="6.6871">
        <ele>1892</ele>
        <time>2021-08-19T07:23:24Z</time>
      </trkpt>
      <trkpt lat="44.25281" lon="6.68715">
        <ele>1892</ele>
        <time>2021-08-19T07:23:33Z</time>
      </trkpt>
      <trkpt lat="44.2528" lon="6.68717">
        <ele>1892</ele>
        <time>2021-08-19T07:23:51Z</time>
      </trkpt>
      <trkpt lat="44.25277" lon="6.68724">
        <ele>1892</ele>
        <time>2021-08-19T07:24:00Z</time>
      </trkpt>
      <trkpt lat="44.25275" lon="6.68739">
        <ele>1894</ele>
        <time>2021-08-19T07:24:09Z</time>
      </trkpt>
      <trkpt lat="44.25272" lon="6.68754">
        <ele>1896</ele>
        <time>2021-08-19T07:24:19Z</time>
      </trkpt>
      <trkpt lat="44.25267" lon="6.68766">
        <ele>1896</ele>
        <time>2021-08-19T07:24:28Z</time>
      </trkpt>
      <trkpt lat="44.25264" lon="6.68775">
        <ele>1896</ele>
        <time>2021-08-19T07:24:37Z</time>
      </trkpt>
      <trkpt lat="44.25259" lon="6.68785">
        <ele>1896</ele>
        <time>2021-08-19T07:24:47Z</time>
      </trkpt>
      <trkpt lat="44.25257" lon="6.68799">
        <ele>1896</ele>
        <time>2021-08-19T07:24:56Z</time>
      </trkpt>
      <trkpt lat="44.25255" lon="6.68812">
        <ele>1896</ele>
        <time>2021-08-19T07:25:05Z</time>
      </trkpt>
      <trkpt lat="44.25248" lon="6.6882">
        <ele>1896</ele>
        <time>2021-08-19T07:25:15Z</time>
      </trkpt>
      <trkpt lat="44.25238" lon="6.68827">
        <ele>1896</ele>
        <time>2021-08-19T07:25:25Z</time>
      </trkpt>
      <trkpt lat="44.25232" lon="6.68837">
        <ele>1896</ele>
        <time>2021-08-19T07:25:35Z</time>
      </trkpt>
      <trkpt lat="44.25228" lon="6.68848">
        <ele>1896</ele>
        <time>2021-08-19T07:25:44Z</time>
      </trkpt>
      <trkpt lat="44.25224" lon="6.68862">
        <ele>1896</ele>
        <time>2021-08-19T07:25:54Z</time>
      </trkpt>
      <trkpt lat="44.2522" lon="6.68873">
        <ele>1896</ele>
        <time>2021-08-19T07:26:03Z</time>
      </trkpt>
      <trkpt lat="44.25221" lon="6.68885">
        <ele>1896</ele>
        <time>2021-08-19T07:26:13Z</time>
      </trkpt>
      <trkpt lat="44.25217" lon="6.68892">
        <ele>1896</ele>
        <time>2021-08-19T07:26:22Z</time>
      </trkpt>
      <trkpt lat="44.25209" lon="6.68897">
        <ele>1896</ele>
        <time>2021-08-19T07:26:32Z</time>
      </trkpt>
      <trkpt lat="44.252" lon="6.68906">
        <ele>1896</ele>
        <time>2021-08-19T07:26:42Z</time>
      </trkpt>
      <trkpt lat="44.25191" lon="6.6891">
        <ele>1896</ele>
        <time>2021-08-19T07:26:52Z</time>
      </trkpt>
      <trkpt lat="44.25184" lon="6.68908">
        <ele>1896</ele>
        <time>2021-08-19T07:27:02Z</time>
      </trkpt>
      <trkpt lat="44.25179" lon="6.68915">
        <ele>1896</ele>
        <time>2021-08-19T07:27:11Z</time>
      </trkpt>
      <trkpt lat="44.25179" lon="6.68917">
        <ele>1896</ele>
        <time>2021-08-19T07:27:24Z</time>
      </trkpt>
      <trkpt lat="44.25178" lon="6.68918">
        <ele>1899</ele>
        <time>2021-08-19T07:27:33Z</time>
      </trkpt>
      <trkpt lat="44.25176" lon="6.68924">
        <ele>1900</ele>
        <time>2021-08-19T07:27:47Z</time>
      </trkpt>
      <trkpt lat="44.2518" lon="6.68931">
        <ele>1900</ele>
        <time>2021-08-19T07:27:57Z</time>
      </trkpt>
      <trkpt lat="44.25185" lon="6.68938">
        <ele>1902</ele>
        <time>2021-08-19T07:28:08Z</time>
      </trkpt>
      <trkpt lat="44.25182" lon="6.6894">
        <ele>1903</ele>
        <time>2021-08-19T07:28:17Z</time>
      </trkpt>
      <trkpt lat="44.25179" lon="6.68941">
        <ele>1903</ele>
        <time>2021-08-19T07:28:26Z</time>
      </trkpt>
      <trkpt lat="44.25174" lon="6.68944">
        <ele>1904</ele>
        <time>2021-08-19T07:28:36Z</time>
      </trkpt>
      <trkpt lat="44.25174" lon="6.68948">
        <ele>1904</ele>
        <time>2021-08-19T07:28:47Z</time>
      </trkpt>
      <trkpt lat="44.25165" lon="6.68946">
        <ele>1904</ele>
        <time>2021-08-19T07:28:57Z</time>
      </trkpt>
      <trkpt lat="44.25159" lon="6.68946">
        <ele>1906</ele>
        <time>2021-08-19T07:29:06Z</time>
      </trkpt>
      <trkpt lat="44.25153" lon="6.68947">
        <ele>1908</ele>
        <time>2021-08-19T07:29:15Z</time>
      </trkpt>
      <trkpt lat="44.25147" lon="6.68943">
        <ele>1908</ele>
        <time>2021-08-19T07:29:26Z</time>
      </trkpt>
      <trkpt lat="44.25145" lon="6.68946">
        <ele>1908</ele>
        <time>2021-08-19T07:29:40Z</time>
      </trkpt>
      <trkpt lat="44.25147" lon="6.6895">
        <ele>1908</ele>
        <time>2021-08-19T07:29:49Z</time>
      </trkpt>
      <trkpt lat="44.25148" lon="6.68949">
        <ele>1908</ele>
        <time>2021-08-19T07:30:07Z</time>
      </trkpt>
      <trkpt lat="44.25147" lon="6.68945">
        <ele>1909</ele>
        <time>2021-08-19T07:30:25Z</time>
      </trkpt>
      <trkpt lat="44.25146" lon="6.68942">
        <ele>1909</ele>
        <time>2021-08-19T07:30:39Z</time>
      </trkpt>
      <trkpt lat="44.2515" lon="6.68946">
        <ele>1920</ele>
        <time>2021-08-19T07:30:51Z</time>
      </trkpt>
      <trkpt lat="44.2515" lon="6.68945">
        <ele>1920</ele>
        <time>2021-08-19T07:31:03Z</time>
      </trkpt>
      <trkpt lat="44.25147" lon="6.68941">
        <ele>1913</ele>
        <time>2021-08-19T07:31:14Z</time>
      </trkpt>
      <trkpt lat="44.25149" lon="6.68944">
        <ele>1908</ele>
        <time>2021-08-19T07:31:32Z</time>
      </trkpt>
      <trkpt lat="44.25149" lon="6.68944">
        <ele>1908</ele>
        <time>2021-08-19T07:31:49Z</time>
      </trkpt>
      <trkpt lat="44.25148" lon="6.68943">
        <ele>1908</ele>
        <time>2021-08-19T07:32:03Z</time>
      </trkpt>
      <trkpt lat="44.25147" lon="6.68946">
        <ele>1912</ele>
        <time>2021-08-19T07:32:13Z</time>
      </trkpt>
      <trkpt lat="44.25154" lon="6.68947">
        <ele>1916</ele>
        <time>2021-08-19T07:32:22Z</time>
      </trkpt>
      <trkpt lat="44.25164" lon="6.6895">
        <ele>1917</ele>
        <time>2021-08-19T07:32:32Z</time>
      </trkpt>
      <trkpt lat="44.2517" lon="6.68955">
        <ele>1917</ele>
        <time>2021-08-19T07:32:42Z</time>
      </trkpt>
      <trkpt lat="44.25175" lon="6.6896">
        <ele>1917</ele>
        <time>2021-08-19T07:32:51Z</time>
      </trkpt>
      <trkpt lat="44.2518" lon="6.68964">
        <ele>1917</ele>
        <time>2021-08-19T07:33:00Z</time>
      </trkpt>
      <trkpt lat="44.25185" lon="6.68969">
        <ele>1917</ele>
        <time>2021-08-19T07:33:09Z</time>
      </trkpt>
      <trkpt lat="44.25194" lon="6.68977">
        <ele>1917</ele>
        <time>2021-08-19T07:33:19Z</time>
      </trkpt>
      <trkpt lat="44.25201" lon="6.6898">
        <ele>1917</ele>
        <time>2021-08-19T07:33:28Z</time>
      </trkpt>
      <trkpt lat="44.25208" lon="6.68984">
        <ele>1918</ele>
        <time>2021-08-19T07:33:37Z</time>
      </trkpt>
      <trkpt lat="44.25205" lon="6.68992">
        <ele>1919</ele>
        <time>2021-08-19T07:33:47Z</time>
      </trkpt>
      <trkpt lat="44.25198" lon="6.68993">
        <ele>1919</ele>
        <time>2021-08-19T07:33:56Z</time>
      </trkpt>
      <trkpt lat="44.2519" lon="6.68993">
        <ele>1920</ele>
        <time>2021-08-19T07:34:06Z</time>
      </trkpt>
      <trkpt lat="44.25183" lon="6.68995">
        <ele>1923</ele>
        <time>2021-08-19T07:34:16Z</time>
      </trkpt>
      <trkpt lat="44.25174" lon="6.68991">
        <ele>1923</ele>
        <time>2021-08-19T07:34:25Z</time>
      </trkpt>
      <trkpt lat="44.25168" lon="6.68984">
        <ele>1924</ele>
        <time>2021-08-19T07:34:35Z</time>
      </trkpt>
      <trkpt lat="44.25161" lon="6.68977">
        <ele>1925</ele>
        <time>2021-08-19T07:34:45Z</time>
      </trkpt>
      <trkpt lat="44.25154" lon="6.68971">
        <ele>1926</ele>
        <time>2021-08-19T07:34:55Z</time>
      </trkpt>
      <trkpt lat="44.25147" lon="6.68967">
        <ele>1927</ele>
        <time>2021-08-19T07:35:05Z</time>
      </trkpt>
      <trkpt lat="44.2514" lon="6.6897">
        <ele>1928</ele>
        <time>2021-08-19T07:35:15Z</time>
      </trkpt>
      <trkpt lat="44.25136" lon="6.68982">
        <ele>1929</ele>
        <time>2021-08-19T07:35:25Z</time>
      </trkpt>
      <trkpt lat="44.25135" lon="6.68993">
        <ele>1929</ele>
        <time>2021-08-19T07:35:35Z</time>
      </trkpt>
      <trkpt lat="44.25136" lon="6.69005">
        <ele>1929</ele>
        <time>2021-08-19T07:35:45Z</time>
      </trkpt>
      <trkpt lat="44.25134" lon="6.69015">
        <ele>1929</ele>
        <time>2021-08-19T07:35:55Z</time>
      </trkpt>
      <trkpt lat="44.25132" lon="6.69026">
        <ele>1929</ele>
        <time>2021-08-19T07:36:05Z</time>
      </trkpt>
      <trkpt lat="44.25132" lon="6.69036">
        <ele>1930</ele>
        <time>2021-08-19T07:36:14Z</time>
      </trkpt>
      <trkpt lat="44.25129" lon="6.69042">
        <ele>1933</ele>
        <time>2021-08-19T07:36:25Z</time>
      </trkpt>
      <trkpt lat="44.25124" lon="6.69047">
        <ele>1934</ele>
        <time>2021-08-19T07:36:34Z</time>
      </trkpt>
      <trkpt lat="44.2512" lon="6.69056">
        <ele>1935</ele>
        <time>2021-08-19T07:36:44Z</time>
      </trkpt>
      <trkpt lat="44.25116" lon="6.69065">
        <ele>1935</ele>
        <time>2021-08-19T07:36:54Z</time>
      </trkpt>
      <trkpt lat="44.25112" lon="6.69071">
        <ele>1935</ele>
        <time>2021-08-19T07:37:04Z</time>
      </trkpt>
      <trkpt lat="44.25107" lon="6.69081">
        <ele>1936</ele>
        <time>2021-08-19T07:37:14Z</time>
      </trkpt>
      <trkpt lat="44.25102" lon="6.69085">
        <ele>1936</ele>
        <time>2021-08-19T07:37:23Z</time>
      </trkpt>
      <trkpt lat="44.25096" lon="6.69092">
        <ele>1936</ele>
        <time>2021-08-19T07:37:33Z</time>
      </trkpt>
      <trkpt lat="44.25092" lon="6.69099">
        <ele>1937</ele>
        <time>2021-08-19T07:37:42Z</time>
      </trkpt>
      <trkpt lat="44.25086" lon="6.69104">
        <ele>1940</ele>
        <time>2021-08-19T07:37:52Z</time>
      </trkpt>
      <trkpt lat="44.25081" lon="6.69111">
        <ele>1944</ele>
        <time>2021-08-19T07:38:01Z</time>
      </trkpt>
      <trkpt lat="44.25073" lon="6.69116">
        <ele>1945</ele>
        <time>2021-08-19T07:38:11Z</time>
      </trkpt>
      <trkpt lat="44.25069" lon="6.69125">
        <ele>1949</ele>
        <time>2021-08-19T07:38:20Z</time>
      </trkpt>
      <trkpt lat="44.25062" lon="6.69128">
        <ele>1950</ele>
        <time>2021-08-19T07:38:29Z</time>
      </trkpt>
      <trkpt lat="44.25057" lon="6.69133">
        <ele>1950</ele>
        <time>2021-08-19T07:38:38Z</time>
      </trkpt>
      <trkpt lat="44.2505" lon="6.69133">
        <ele>1949</ele>
        <time>2021-08-19T07:38:47Z</time>
      </trkpt>
      <trkpt lat="44.25044" lon="6.69136">
        <ele>1949</ele>
        <time>2021-08-19T07:38:56Z</time>
      </trkpt>
      <trkpt lat="44.25037" lon="6.69134">
        <ele>1949</ele>
        <time>2021-08-19T07:39:07Z</time>
      </trkpt>
      <trkpt lat="44.25034" lon="6.6914">
        <ele>1949</ele>
        <time>2021-08-19T07:39:16Z</time>
      </trkpt>
      <trkpt lat="44.2503" lon="6.69147">
        <ele>1949</ele>
        <time>2021-08-19T07:39:25Z</time>
      </trkpt>
      <trkpt lat="44.25026" lon="6.69155">
        <ele>1949</ele>
        <time>2021-08-19T07:39:35Z</time>
      </trkpt>
      <trkpt lat="44.25021" lon="6.69161">
        <ele>1949</ele>
        <time>2021-08-19T07:39:44Z</time>
      </trkpt>
      <trkpt lat="44.25015" lon="6.69165">
        <ele>1950</ele>
        <time>2021-08-19T07:39:53Z</time>
      </trkpt>
      <trkpt lat="44.25011" lon="6.69169">
        <ele>1950</ele>
        <time>2021-08-19T07:40:05Z</time>
      </trkpt>
      <trkpt lat="44.25008" lon="6.69181">
        <ele>1952</ele>
        <time>2021-08-19T07:40:15Z</time>
      </trkpt>
      <trkpt lat="44.25007" lon="6.69187">
        <ele>1952</ele>
        <time>2021-08-19T07:40:28Z</time>
      </trkpt>
      <trkpt lat="44.25005" lon="6.69195">
        <ele>1952</ele>
        <time>2021-08-19T07:40:37Z</time>
      </trkpt>
      <trkpt lat="44.25002" lon="6.69207">
        <ele>1952</ele>
        <time>2021-08-19T07:40:47Z</time>
      </trkpt>
      <trkpt lat="44.24998" lon="6.69218">
        <ele>1954</ele>
        <time>2021-08-19T07:40:58Z</time>
      </trkpt>
      <trkpt lat="44.24995" lon="6.69225">
        <ele>1954</ele>
        <time>2021-08-19T07:41:07Z</time>
      </trkpt>
      <trkpt lat="44.24989" lon="6.69232">
        <ele>1956</ele>
        <time>2021-08-19T07:41:17Z</time>
      </trkpt>
      <trkpt lat="44.24985" lon="6.69239">
        <ele>1960</ele>
        <time>2021-08-19T07:41:27Z</time>
      </trkpt>
      <trkpt lat="44.24983" lon="6.69248">
        <ele>1962</ele>
        <time>2021-08-19T07:41:38Z</time>
      </trkpt>
      <trkpt lat="44.2498" lon="6.69258">
        <ele>1962</ele>
        <time>2021-08-19T07:41:48Z</time>
      </trkpt>
      <trkpt lat="44.24979" lon="6.69266">
        <ele>1962</ele>
        <time>2021-08-19T07:41:59Z</time>
      </trkpt>
      <trkpt lat="44.24978" lon="6.69271">
        <ele>1962</ele>
        <time>2021-08-19T07:42:08Z</time>
      </trkpt>
      <trkpt lat="44.24972" lon="6.69275">
        <ele>1962</ele>
        <time>2021-08-19T07:42:17Z</time>
      </trkpt>
      <trkpt lat="44.24968" lon="6.69283">
        <ele>1962</ele>
        <time>2021-08-19T07:42:26Z</time>
      </trkpt>
      <trkpt lat="44.24964" lon="6.6929">
        <ele>1963</ele>
        <time>2021-08-19T07:42:36Z</time>
      </trkpt>
      <trkpt lat="44.24956" lon="6.69296">
        <ele>1965</ele>
        <time>2021-08-19T07:42:46Z</time>
      </trkpt>
      <trkpt lat="44.2495" lon="6.69305">
        <ele>1966</ele>
        <time>2021-08-19T07:42:56Z</time>
      </trkpt>
      <trkpt lat="44.24942" lon="6.6931">
        <ele>1968</ele>
        <time>2021-08-19T07:43:06Z</time>
      </trkpt>
      <trkpt lat="44.24937" lon="6.69315">
        <ele>1968</ele>
        <time>2021-08-19T07:43:17Z</time>
      </trkpt>
      <trkpt lat="44.24931" lon="6.69319">
        <ele>1968</ele>
        <time>2021-08-19T07:43:27Z</time>
      </trkpt>
      <trkpt lat="44.24927" lon="6.69326">
        <ele>1975</ele>
        <time>2021-08-19T07:43:37Z</time>
      </trkpt>
      <trkpt lat="44.24921" lon="6.69333">
        <ele>1980</ele>
        <time>2021-08-19T07:43:47Z</time>
      </trkpt>
      <trkpt lat="44.24917" lon="6.69342">
        <ele>1981</ele>
        <time>2021-08-19T07:43:56Z</time>
      </trkpt>
      <trkpt lat="44.24912" lon="6.6935">
        <ele>1981</ele>
        <time>2021-08-19T07:44:05Z</time>
      </trkpt>
      <trkpt lat="44.24905" lon="6.69357">
        <ele>1981</ele>
        <time>2021-08-19T07:44:15Z</time>
      </trkpt>
      <trkpt lat="44.24899" lon="6.69361">
        <ele>1983</ele>
        <time>2021-08-19T07:44:25Z</time>
      </trkpt>
      <trkpt lat="44.24892" lon="6.69364">
        <ele>1983</ele>
        <time>2021-08-19T07:44:34Z</time>
      </trkpt>
      <trkpt lat="44.24887" lon="6.6937">
        <ele>1980</ele>
        <time>2021-08-19T07:44:45Z</time>
      </trkpt>
      <trkpt lat="44.2488" lon="6.69372">
        <ele>1980</ele>
        <time>2021-08-19T07:44:55Z</time>
      </trkpt>
      <trkpt lat="44.24874" lon="6.69374">
        <ele>1980</ele>
        <time>2021-08-19T07:45:04Z</time>
      </trkpt>
      <trkpt lat="44.2487" lon="6.69385">
        <ele>1981</ele>
        <time>2021-08-19T07:45:14Z</time>
      </trkpt>
      <trkpt lat="44.2487" lon="6.69397">
        <ele>1981</ele>
        <time>2021-08-19T07:45:24Z</time>
      </trkpt>
      <trkpt lat="44.24871" lon="6.69408">
        <ele>1981</ele>
        <time>2021-08-19T07:45:34Z</time>
      </trkpt>
      <trkpt lat="44.24869" lon="6.69419">
        <ele>1981</ele>
        <time>2021-08-19T07:45:44Z</time>
      </trkpt>
      <trkpt lat="44.24865" lon="6.69428">
        <ele>1981</ele>
        <time>2021-08-19T07:45:54Z</time>
      </trkpt>
      <trkpt lat="44.2486" lon="6.69439">
        <ele>1982</ele>
        <time>2021-08-19T07:46:04Z</time>
      </trkpt>
      <trkpt lat="44.24855" lon="6.69449">
        <ele>1984</ele>
        <time>2021-08-19T07:46:14Z</time>
      </trkpt>
      <trkpt lat="44.24851" lon="6.69462">
        <ele>1986</ele>
        <time>2021-08-19T07:46:23Z</time>
      </trkpt>
      <trkpt lat="44.24848" lon="6.69473">
        <ele>1986</ele>
        <time>2021-08-19T07:46:32Z</time>
      </trkpt>
      <trkpt lat="44.24843" lon="6.69481">
        <ele>1987</ele>
        <time>2021-08-19T07:46:42Z</time>
      </trkpt>
      <trkpt lat="44.2484" lon="6.6949">
        <ele>1988</ele>
        <time>2021-08-19T07:46:51Z</time>
      </trkpt>
      <trkpt lat="44.24835" lon="6.695">
        <ele>1988</ele>
        <time>2021-08-19T07:47:01Z</time>
      </trkpt>
      <trkpt lat="44.24829" lon="6.69502">
        <ele>1988</ele>
        <time>2021-08-19T07:47:11Z</time>
      </trkpt>
      <trkpt lat="44.24822" lon="6.69505">
        <ele>1988</ele>
        <time>2021-08-19T07:47:21Z</time>
      </trkpt>
      <trkpt lat="44.24814" lon="6.69508">
        <ele>1990</ele>
        <time>2021-08-19T07:47:31Z</time>
      </trkpt>
      <trkpt lat="44.24813" lon="6.69516">
        <ele>1990</ele>
        <time>2021-08-19T07:47:42Z</time>
      </trkpt>
      <trkpt lat="44.24807" lon="6.69522">
        <ele>1995</ele>
        <time>2021-08-19T07:47:51Z</time>
      </trkpt>
      <trkpt lat="44.24802" lon="6.69528">
        <ele>1996</ele>
        <time>2021-08-19T07:48:02Z</time>
      </trkpt>
      <trkpt lat="44.248" lon="6.69536">
        <ele>1998</ele>
        <time>2021-08-19T07:48:11Z</time>
      </trkpt>
      <trkpt lat="44.24794" lon="6.69544">
        <ele>1999</ele>
        <time>2021-08-19T07:48:25Z</time>
      </trkpt>
      <trkpt lat="44.24791" lon="6.69553">
        <ele>2000</ele>
        <time>2021-08-19T07:48:34Z</time>
      </trkpt>
      <trkpt lat="44.24786" lon="6.69556">
        <ele>2000</ele>
        <time>2021-08-19T07:48:50Z</time>
      </trkpt>
      <trkpt lat="44.24783" lon="6.69557">
        <ele>1999</ele>
        <time>2021-08-19T07:49:02Z</time>
      </trkpt>
      <trkpt lat="44.24783" lon="6.69559">
        <ele>1999</ele>
        <time>2021-08-19T07:49:12Z</time>
      </trkpt>
      <trkpt lat="44.24782" lon="6.69561">
        <ele>1998</ele>
        <time>2021-08-19T07:49:23Z</time>
      </trkpt>
      <trkpt lat="44.24786" lon="6.69559">
        <ele>1999</ele>
        <time>2021-08-19T07:49:32Z</time>
      </trkpt>
      <trkpt lat="44.24786" lon="6.69553">
        <ele>2006</ele>
        <time>2021-08-19T07:49:47Z</time>
      </trkpt>
      <trkpt lat="44.24785" lon="6.69551">
        <ele>2003</ele>
        <time>2021-08-19T07:49:58Z</time>
      </trkpt>
      <trkpt lat="44.24783" lon="6.69552">
        <ele>1988</ele>
        <time>2021-08-19T07:50:17Z</time>
      </trkpt>
      <trkpt lat="44.24783" lon="6.69553">
        <ele>1992</ele>
        <time>2021-08-19T07:50:30Z</time>
      </trkpt>
      <trkpt lat="44.24786" lon="6.69556">
        <ele>1994</ele>
        <time>2021-08-19T07:50:40Z</time>
      </trkpt>
      <trkpt lat="44.24785" lon="6.69554">
        <ele>2003</ele>
        <time>2021-08-19T07:50:53Z</time>
      </trkpt>
      <trkpt lat="44.24782" lon="6.69547">
        <ele>2005</ele>
        <time>2021-08-19T07:51:05Z</time>
      </trkpt>
      <trkpt lat="44.24781" lon="6.69546">
        <ele>2005</ele>
        <time>2021-08-19T07:51:14Z</time>
      </trkpt>
      <trkpt lat="44.2478" lon="6.69546">
        <ele>2009</ele>
        <time>2021-08-19T07:51:23Z</time>
      </trkpt>
      <trkpt lat="44.24778" lon="6.69548">
        <ele>2010</ele>
        <time>2021-08-19T07:51:35Z</time>
      </trkpt>
      <trkpt lat="44.2478" lon="6.69558">
        <ele>1996</ele>
        <time>2021-08-19T07:51:45Z</time>
      </trkpt>
      <trkpt lat="44.24782" lon="6.69553">
        <ele>1989</ele>
        <time>2021-08-19T07:51:55Z</time>
      </trkpt>
      <trkpt lat="44.24779" lon="6.69553">
        <ele>1989</ele>
        <time>2021-08-19T07:52:06Z</time>
      </trkpt>
      <trkpt lat="44.24779" lon="6.69552">
        <ele>1990</ele>
        <time>2021-08-19T07:52:19Z</time>
      </trkpt>
      <trkpt lat="44.24774" lon="6.69548">
        <ele>1992</ele>
        <time>2021-08-19T07:52:29Z</time>
      </trkpt>
      <trkpt lat="44.24775" lon="6.69551">
        <ele>1997</ele>
        <time>2021-08-19T07:52:40Z</time>
      </trkpt>
      <trkpt lat="44.24775" lon="6.69553">
        <ele>2006</ele>
        <time>2021-08-19T07:52:50Z</time>
      </trkpt>
      <trkpt lat="44.24778" lon="6.69564">
        <ele>2008</ele>
        <time>2021-08-19T07:53:00Z</time>
      </trkpt>
      <trkpt lat="44.24781" lon="6.69575">
        <ele>2008</ele>
        <time>2021-08-19T07:53:09Z</time>
      </trkpt>
      <trkpt lat="44.24782" lon="6.69586">
        <ele>2008</ele>
        <time>2021-08-19T07:53:19Z</time>
      </trkpt>
      <trkpt lat="44.24784" lon="6.69595">
        <ele>2008</ele>
        <time>2021-08-19T07:53:29Z</time>
      </trkpt>
      <trkpt lat="44.24784" lon="6.69604">
        <ele>2009</ele>
        <time>2021-08-19T07:53:39Z</time>
      </trkpt>
      <trkpt lat="44.24781" lon="6.69611">
        <ele>2010</ele>
        <time>2021-08-19T07:53:48Z</time>
      </trkpt>
      <trkpt lat="44.24776" lon="6.69616">
        <ele>2010</ele>
        <time>2021-08-19T07:53:59Z</time>
      </trkpt>
      <trkpt lat="44.24771" lon="6.69623">
        <ele>2010</ele>
        <time>2021-08-19T07:54:09Z</time>
      </trkpt>
      <trkpt lat="44.24766" lon="6.6963">
        <ele>2010</ele>
        <time>2021-08-19T07:54:20Z</time>
      </trkpt>
      <trkpt lat="44.24761" lon="6.69634">
        <ele>2010</ele>
        <time>2021-08-19T07:54:30Z</time>
      </trkpt>
      <trkpt lat="44.24758" lon="6.6964">
        <ele>2013</ele>
        <time>2021-08-19T07:54:39Z</time>
      </trkpt>
      <trkpt lat="44.24752" lon="6.69643">
        <ele>2019</ele>
        <time>2021-08-19T07:54:49Z</time>
      </trkpt>
      <trkpt lat="44.24746" lon="6.69646">
        <ele>2020</ele>
        <time>2021-08-19T07:55:01Z</time>
      </trkpt>
      <trkpt lat="44.24741" lon="6.6965">
        <ele>2024</ele>
        <time>2021-08-19T07:55:13Z</time>
      </trkpt>
      <trkpt lat="44.24736" lon="6.69654">
        <ele>2028</ele>
        <time>2021-08-19T07:55:23Z</time>
      </trkpt>
      <trkpt lat="44.24731" lon="6.69662">
        <ele>2033</ele>
        <time>2021-08-19T07:55:33Z</time>
      </trkpt>
      <trkpt lat="44.24732" lon="6.6966">
        <ele>2037</ele>
        <time>2021-08-19T07:55:43Z</time>
      </trkpt>
      <trkpt lat="44.24737" lon="6.6966">
        <ele>2037</ele>
        <time>2021-08-19T07:55:53Z</time>
      </trkpt>
      <trkpt lat="44.24742" lon="6.69662">
        <ele>2037</ele>
        <time>2021-08-19T07:56:02Z</time>
      </trkpt>
      <trkpt lat="44.24746" lon="6.69665">
        <ele>2037</ele>
        <time>2021-08-19T07:56:12Z</time>
      </trkpt>
      <trkpt lat="44.24751" lon="6.69665">
        <ele>2037</ele>
        <time>2021-08-19T07:56:21Z</time>
      </trkpt>
      <trkpt lat="44.24756" lon="6.6967">
        <ele>2037</ele>
        <time>2021-08-19T07:56:30Z</time>
      </trkpt>
      <trkpt lat="44.24763" lon="6.69672">
        <ele>2037</ele>
        <time>2021-08-19T07:56:41Z</time>
      </trkpt>
      <trkpt lat="44.2477" lon="6.69674">
        <ele>2038</ele>
        <time>2021-08-19T07:56:52Z</time>
      </trkpt>
      <trkpt lat="44.24773" lon="6.69673">
        <ele>2038</ele>
        <time>2021-08-19T07:57:03Z</time>
      </trkpt>
      <trkpt lat="44.24781" lon="6.69672">
        <ele>2041</ele>
        <time>2021-08-19T07:57:13Z</time>
      </trkpt>
      <trkpt lat="44.24785" lon="6.69673">
        <ele>2041</ele>
        <time>2021-08-19T07:57:22Z</time>
      </trkpt>
      <trkpt lat="44.24789" lon="6.69671">
        <ele>2041</ele>
        <time>2021-08-19T07:57:32Z</time>
      </trkpt>
      <trkpt lat="44.24795" lon="6.69671">
        <ele>2044</ele>
        <time>2021-08-19T07:57:43Z</time>
      </trkpt>
      <trkpt lat="44.24802" lon="6.69673">
        <ele>2045</ele>
        <time>2021-08-19T07:57:53Z</time>
      </trkpt>
      <trkpt lat="44.24811" lon="6.69673">
        <ele>2047</ele>
        <time>2021-08-19T07:58:03Z</time>
      </trkpt>
      <trkpt lat="44.24817" lon="6.69672">
        <ele>2050</ele>
        <time>2021-08-19T07:58:12Z</time>
      </trkpt>
      <trkpt lat="44.24823" lon="6.69669">
        <ele>2051</ele>
        <time>2021-08-19T07:58:23Z</time>
      </trkpt>
      <trkpt lat="44.24821" lon="6.6967">
        <ele>2051</ele>
        <time>2021-08-19T07:58:32Z</time>
      </trkpt>
      <trkpt lat="44.2482" lon="6.69682">
        <ele>2052</ele>
        <time>2021-08-19T07:58:41Z</time>
      </trkpt>
      <trkpt lat="44.24821" lon="6.69691">
        <ele>2052</ele>
        <time>2021-08-19T07:58:50Z</time>
      </trkpt>
      <trkpt lat="44.24815" lon="6.69698">
        <ele>2052</ele>
        <time>2021-08-19T07:59:00Z</time>
      </trkpt>
      <trkpt lat="44.24811" lon="6.69705">
        <ele>2052</ele>
        <time>2021-08-19T07:59:10Z</time>
      </trkpt>
      <trkpt lat="44.24807" lon="6.69712">
        <ele>2052</ele>
        <time>2021-08-19T07:59:20Z</time>
      </trkpt>
      <trkpt lat="44.24804" lon="6.69719">
        <ele>2054</ele>
        <time>2021-08-19T07:59:29Z</time>
      </trkpt>
      <trkpt lat="44.2481" lon="6.69721">
        <ele>2056</ele>
        <time>2021-08-19T07:59:38Z</time>
      </trkpt>
      <trkpt lat="44.24816" lon="6.69727">
        <ele>2057</ele>
        <time>2021-08-19T07:59:48Z</time>
      </trkpt>
      <trkpt lat="44.24821" lon="6.69735">
        <ele>2060</ele>
        <time>2021-08-19T07:59:59Z</time>
      </trkpt>
      <trkpt lat="44.24823" lon="6.69735">
        <ele>2063</ele>
        <time>2021-08-19T08:00:10Z</time>
      </trkpt>
      <trkpt lat="44.24827" lon="6.69737">
        <ele>2064</ele>
        <time>2021-08-19T08:00:19Z</time>
      </trkpt>
      <trkpt lat="44.24833" lon="6.69744">
        <ele>2065</ele>
        <time>2021-08-19T08:00:30Z</time>
      </trkpt>
      <trkpt lat="44.24834" lon="6.69745">
        <ele>2068</ele>
        <time>2021-08-19T08:00:43Z</time>
      </trkpt>
      <trkpt lat="44.24837" lon="6.69745">
        <ele>2072</ele>
        <time>2021-08-19T08:00:53Z</time>
      </trkpt>
      <trkpt lat="44.24839" lon="6.69747">
        <ele>2072</ele>
        <time>2021-08-19T08:01:25Z</time>
      </trkpt>
      <trkpt lat="44.24838" lon="6.69747">
        <ele>2070</ele>
        <time>2021-08-19T08:01:46Z</time>
      </trkpt>
      <trkpt lat="44.24834" lon="6.69744">
        <ele>2060</ele>
        <time>2021-08-19T08:01:58Z</time>
      </trkpt>
      <trkpt lat="44.24833" lon="6.69745">
        <ele>2047</ele>
        <time>2021-08-19T08:02:18Z</time>
      </trkpt>
      <trkpt lat="44.24834" lon="6.69747">
        <ele>2053</ele>
        <time>2021-08-19T08:02:32Z</time>
      </trkpt>
      <trkpt lat="44.24834" lon="6.6975">
        <ele>2057</ele>
        <time>2021-08-19T08:02:42Z</time>
      </trkpt>
      <trkpt lat="44.24836" lon="6.69755">
        <ele>2062</ele>
        <time>2021-08-19T08:02:53Z</time>
      </trkpt>
      <trkpt lat="44.24841" lon="6.69766">
        <ele>2064</ele>
        <time>2021-08-19T08:03:03Z</time>
      </trkpt>
      <trkpt lat="44.24844" lon="6.69777">
        <ele>2064</ele>
        <time>2021-08-19T08:03:12Z</time>
      </trkpt>
      <trkpt lat="44.24847" lon="6.69781">
        <ele>2065</ele>
        <time>2021-08-19T08:03:23Z</time>
      </trkpt>
      <trkpt lat="44.24851" lon="6.69786">
        <ele>2066</ele>
        <time>2021-08-19T08:03:32Z</time>
      </trkpt>
      <trkpt lat="44.24852" lon="6.69797">
        <ele>2066</ele>
        <time>2021-08-19T08:03:42Z</time>
      </trkpt>
      <trkpt lat="44.24854" lon="6.69804">
        <ele>2066</ele>
        <time>2021-08-19T08:03:51Z</time>
      </trkpt>
      <trkpt lat="44.24852" lon="6.69806">
        <ele>2067</ele>
        <time>2021-08-19T08:04:00Z</time>
      </trkpt>
      <trkpt lat="44.24845" lon="6.69808">
        <ele>2069</ele>
        <time>2021-08-19T08:04:09Z</time>
      </trkpt>
      <trkpt lat="44.2484" lon="6.69811">
        <ele>2071</ele>
        <time>2021-08-19T08:04:18Z</time>
      </trkpt>
      <trkpt lat="44.24844" lon="6.69819">
        <ele>2074</ele>
        <time>2021-08-19T08:04:29Z</time>
      </trkpt>
      <trkpt lat="44.24846" lon="6.69824">
        <ele>2077</ele>
        <time>2021-08-19T08:04:38Z</time>
      </trkpt>
      <trkpt lat="44.24841" lon="6.69826">
        <ele>2079</ele>
        <time>2021-08-19T08:04:47Z</time>
      </trkpt>
      <trkpt lat="44.24834" lon="6.69826">
        <ele>2082</ele>
        <time>2021-08-19T08:04:58Z</time>
      </trkpt>
      <trkpt lat="44.24839" lon="6.69831">
        <ele>2083</ele>
        <time>2021-08-19T08:05:07Z</time>
      </trkpt>
      <trkpt lat="44.24846" lon="6.69836">
        <ele>2089</ele>
        <time>2021-08-19T08:05:19Z</time>
      </trkpt>
      <trkpt lat="44.24848" lon="6.69839">
        <ele>2090</ele>
        <time>2021-08-19T08:05:29Z</time>
      </trkpt>
      <trkpt lat="44.24853" lon="6.69845">
        <ele>2091</ele>
        <time>2021-08-19T08:05:38Z</time>
      </trkpt>
      <trkpt lat="44.24853" lon="6.69853">
        <ele>2093</ele>
        <time>2021-08-19T08:05:47Z</time>
      </trkpt>
      <trkpt lat="44.2485" lon="6.69855">
        <ele>2093</ele>
        <time>2021-08-19T08:05:56Z</time>
      </trkpt>
      <trkpt lat="44.24843" lon="6.69852">
        <ele>2091</ele>
        <time>2021-08-19T08:06:06Z</time>
      </trkpt>
      <trkpt lat="44.24839" lon="6.69854">
        <ele>2091</ele>
        <time>2021-08-19T08:06:16Z</time>
      </trkpt>
      <trkpt lat="44.24831" lon="6.69853">
        <ele>2092</ele>
        <time>2021-08-19T08:06:26Z</time>
      </trkpt>
      <trkpt lat="44.24826" lon="6.69857">
        <ele>2096</ele>
        <time>2021-08-19T08:06:35Z</time>
      </trkpt>
      <trkpt lat="44.24821" lon="6.69861">
        <ele>2104</ele>
        <time>2021-08-19T08:06:45Z</time>
      </trkpt>
      <trkpt lat="44.24817" lon="6.69865">
        <ele>2104</ele>
        <time>2021-08-19T08:06:55Z</time>
      </trkpt>
      <trkpt lat="44.2481" lon="6.69866">
        <ele>2104</ele>
        <time>2021-08-19T08:07:05Z</time>
      </trkpt>
      <trkpt lat="44.24802" lon="6.69865">
        <ele>2104</ele>
        <time>2021-08-19T08:07:15Z</time>
      </trkpt>
      <trkpt lat="44.24794" lon="6.69866">
        <ele>2104</ele>
        <time>2021-08-19T08:07:26Z</time>
      </trkpt>
      <trkpt lat="44.24788" lon="6.69866">
        <ele>2104</ele>
        <time>2021-08-19T08:07:36Z</time>
      </trkpt>
      <trkpt lat="44.24783" lon="6.69869">
        <ele>2104</ele>
        <time>2021-08-19T08:07:45Z</time>
      </trkpt>
      <trkpt lat="44.24778" lon="6.69874">
        <ele>2107</ele>
        <time>2021-08-19T08:07:58Z</time>
      </trkpt>
      <trkpt lat="44.24773" lon="6.69869">
        <ele>2110</ele>
        <time>2021-08-19T08:08:09Z</time>
      </trkpt>
      <trkpt lat="44.24768" lon="6.69863">
        <ele>2110</ele>
        <time>2021-08-19T08:08:19Z</time>
      </trkpt>
      <trkpt lat="44.24762" lon="6.69861">
        <ele>2111</ele>
        <time>2021-08-19T08:08:29Z</time>
      </trkpt>
      <trkpt lat="44.24757" lon="6.69856">
        <ele>2112</ele>
        <time>2021-08-19T08:08:40Z</time>
      </trkpt>
      <trkpt lat="44.24753" lon="6.69851">
        <ele>2114</ele>
        <time>2021-08-19T08:08:52Z</time>
      </trkpt>
      <trkpt lat="44.24752" lon="6.69849">
        <ele>2115</ele>
        <time>2021-08-19T08:09:37Z</time>
      </trkpt>
      <trkpt lat="44.24753" lon="6.69851">
        <ele>2115</ele>
        <time>2021-08-19T08:10:05Z</time>
      </trkpt>
      <trkpt lat="44.24754" lon="6.69853">
        <ele>2114</ele>
        <time>2021-08-19T08:10:59Z</time>
      </trkpt>
      <trkpt lat="44.24752" lon="6.69853">
        <ele>2114</ele>
        <time>2021-08-19T08:11:41Z</time>
      </trkpt>
      <trkpt lat="44.24746" lon="6.69851">
        <ele>2114</ele>
        <time>2021-08-19T08:11:52Z</time>
      </trkpt>
      <trkpt lat="44.24738" lon="6.69849">
        <ele>2114</ele>
        <time>2021-08-19T08:12:02Z</time>
      </trkpt>
      <trkpt lat="44.2473" lon="6.69845">
        <ele>2115</ele>
        <time>2021-08-19T08:12:12Z</time>
      </trkpt>
      <trkpt lat="44.24723" lon="6.69838">
        <ele>2117</ele>
        <time>2021-08-19T08:12:23Z</time>
      </trkpt>
      <trkpt lat="44.24716" lon="6.69831">
        <ele>2118</ele>
        <time>2021-08-19T08:12:33Z</time>
      </trkpt>
      <trkpt lat="44.24708" lon="6.69824">
        <ele>2119</ele>
        <time>2021-08-19T08:12:43Z</time>
      </trkpt>
      <trkpt lat="44.247" lon="6.69821">
        <ele>2120</ele>
        <time>2021-08-19T08:12:53Z</time>
      </trkpt>
      <trkpt lat="44.24691" lon="6.69819">
        <ele>2121</ele>
        <time>2021-08-19T08:13:03Z</time>
      </trkpt>
      <trkpt lat="44.24682" lon="6.69819">
        <ele>2122</ele>
        <time>2021-08-19T08:13:13Z</time>
      </trkpt>
      <trkpt lat="44.24675" lon="6.69823">
        <ele>2123</ele>
        <time>2021-08-19T08:13:23Z</time>
      </trkpt>
      <trkpt lat="44.24666" lon="6.69827">
        <ele>2123</ele>
        <time>2021-08-19T08:13:33Z</time>
      </trkpt>
      <trkpt lat="44.24658" lon="6.69829">
        <ele>2123</ele>
        <time>2021-08-19T08:13:42Z</time>
      </trkpt>
      <trkpt lat="44.2465" lon="6.69832">
        <ele>2123</ele>
        <time>2021-08-19T08:13:51Z</time>
      </trkpt>
      <trkpt lat="44.2464" lon="6.69831">
        <ele>2123</ele>
        <time>2021-08-19T08:14:01Z</time>
      </trkpt>
      <trkpt lat="44.2463" lon="6.69826">
        <ele>2123</ele>
        <time>2021-08-19T08:14:11Z</time>
      </trkpt>
      <trkpt lat="44.24621" lon="6.69821">
        <ele>2123</ele>
        <time>2021-08-19T08:14:20Z</time>
      </trkpt>
      <trkpt lat="44.24612" lon="6.69815">
        <ele>2123</ele>
        <time>2021-08-19T08:14:29Z</time>
      </trkpt>
      <trkpt lat="44.24602" lon="6.69809">
        <ele>2121</ele>
        <time>2021-08-19T08:14:39Z</time>
      </trkpt>
      <trkpt lat="44.24591" lon="6.69806">
        <ele>2120</ele>
        <time>2021-08-19T08:14:49Z</time>
      </trkpt>
      <trkpt lat="44.24582" lon="6.69805">
        <ele>2120</ele>
        <time>2021-08-19T08:14:58Z</time>
      </trkpt>
      <trkpt lat="44.24571" lon="6.69805">
        <ele>2120</ele>
        <time>2021-08-19T08:15:08Z</time>
      </trkpt>
      <trkpt lat="44.2456" lon="6.69803">
        <ele>2120</ele>
        <time>2021-08-19T08:15:18Z</time>
      </trkpt>
      <trkpt lat="44.24551" lon="6.69801">
        <ele>2120</ele>
        <time>2021-08-19T08:15:27Z</time>
      </trkpt>
      <trkpt lat="44.24542" lon="6.69797">
        <ele>2120</ele>
        <time>2021-08-19T08:15:37Z</time>
      </trkpt>
      <trkpt lat="44.24533" lon="6.6979">
        <ele>2120</ele>
        <time>2021-08-19T08:15:47Z</time>
      </trkpt>
      <trkpt lat="44.24524" lon="6.69784">
        <ele>2120</ele>
        <time>2021-08-19T08:15:57Z</time>
      </trkpt>
      <trkpt lat="44.24516" lon="6.69778">
        <ele>2120</ele>
        <time>2021-08-19T08:16:07Z</time>
      </trkpt>
      <trkpt lat="44.24506" lon="6.6977">
        <ele>2120</ele>
        <time>2021-08-19T08:16:17Z</time>
      </trkpt>
      <trkpt lat="44.24498" lon="6.69764">
        <ele>2120</ele>
        <time>2021-08-19T08:16:27Z</time>
      </trkpt>
      <trkpt lat="44.24491" lon="6.69762">
        <ele>2120</ele>
        <time>2021-08-19T08:16:37Z</time>
      </trkpt>
      <trkpt lat="44.24484" lon="6.6977">
        <ele>2120</ele>
        <time>2021-08-19T08:16:47Z</time>
      </trkpt>
      <trkpt lat="44.2448" lon="6.69773">
        <ele>2120</ele>
        <time>2021-08-19T08:16:57Z</time>
      </trkpt>
      <trkpt lat="44.24477" lon="6.69772">
        <ele>2120</ele>
        <time>2021-08-19T08:17:44Z</time>
      </trkpt>
      <trkpt lat="44.24471" lon="6.69771">
        <ele>2120</ele>
        <time>2021-08-19T08:17:54Z</time>
      </trkpt>
      <trkpt lat="44.24465" lon="6.6977">
        <ele>2120</ele>
        <time>2021-08-19T08:18:08Z</time>
      </trkpt>
      <trkpt lat="44.2446" lon="6.6977">
        <ele>2120</ele>
        <time>2021-08-19T08:18:18Z</time>
      </trkpt>
      <trkpt lat="44.24453" lon="6.69772">
        <ele>2120</ele>
        <time>2021-08-19T08:18:28Z</time>
      </trkpt>
      <trkpt lat="44.24444" lon="6.69768">
        <ele>2120</ele>
        <time>2021-08-19T08:18:38Z</time>
      </trkpt>
      <trkpt lat="44.24439" lon="6.69762">
        <ele>2120</ele>
        <time>2021-08-19T08:18:48Z</time>
      </trkpt>
      <trkpt lat="44.24435" lon="6.69755">
        <ele>2120</ele>
        <time>2021-08-19T08:18:58Z</time>
      </trkpt>
      <trkpt lat="44.2443" lon="6.6975">
        <ele>2120</ele>
        <time>2021-08-19T08:19:07Z</time>
      </trkpt>
      <trkpt lat="44.24425" lon="6.69743">
        <ele>2120</ele>
        <time>2021-08-19T08:19:17Z</time>
      </trkpt>
      <trkpt lat="44.24421" lon="6.69746">
        <ele>2120</ele>
        <time>2021-08-19T08:19:26Z</time>
      </trkpt>
      <trkpt lat="44.24414" lon="6.69754">
        <ele>2122</ele>
        <time>2021-08-19T08:19:36Z</time>
      </trkpt>
      <trkpt lat="44.24405" lon="6.69756">
        <ele>2123</ele>
        <time>2021-08-19T08:19:46Z</time>
      </trkpt>
      <trkpt lat="44.24397" lon="6.69762">
        <ele>2123</ele>
        <time>2021-08-19T08:19:56Z</time>
      </trkpt>
      <trkpt lat="44.24392" lon="6.69766">
        <ele>2124</ele>
        <time>2021-08-19T08:20:06Z</time>
      </trkpt>
      <trkpt lat="44.24386" lon="6.69768">
        <ele>2124</ele>
        <time>2021-08-19T08:20:16Z</time>
      </trkpt>
      <trkpt lat="44.24379" lon="6.6977">
        <ele>2124</ele>
        <time>2021-08-19T08:20:26Z</time>
      </trkpt>
      <trkpt lat="44.24372" lon="6.69776">
        <ele>2124</ele>
        <time>2021-08-19T08:20:36Z</time>
      </trkpt>
      <trkpt lat="44.24366" lon="6.69778">
        <ele>2124</ele>
        <time>2021-08-19T08:20:45Z</time>
      </trkpt>
      <trkpt lat="44.2436" lon="6.69778">
        <ele>2125</ele>
        <time>2021-08-19T08:20:54Z</time>
      </trkpt>
      <trkpt lat="44.24351" lon="6.69777">
        <ele>2126</ele>
        <time>2021-08-19T08:21:04Z</time>
      </trkpt>
      <trkpt lat="44.24345" lon="6.69777">
        <ele>2127</ele>
        <time>2021-08-19T08:21:13Z</time>
      </trkpt>
      <trkpt lat="44.2434" lon="6.69778">
        <ele>2129</ele>
        <time>2021-08-19T08:21:25Z</time>
      </trkpt>
      <trkpt lat="44.24337" lon="6.69781">
        <ele>2131</ele>
        <time>2021-08-19T08:21:35Z</time>
      </trkpt>
      <trkpt lat="44.24337" lon="6.69784">
        <ele>2132</ele>
        <time>2021-08-19T08:21:45Z</time>
      </trkpt>
      <trkpt lat="44.2434" lon="6.69789">
        <ele>2133</ele>
        <time>2021-08-19T08:21:55Z</time>
      </trkpt>
      <trkpt lat="44.2434" lon="6.69796">
        <ele>2133</ele>
        <time>2021-08-19T08:22:05Z</time>
      </trkpt>
      <trkpt lat="44.24342" lon="6.69803">
        <ele>2134</ele>
        <time>2021-08-19T08:22:15Z</time>
      </trkpt>
      <trkpt lat="44.24345" lon="6.69807">
        <ele>2135</ele>
        <time>2021-08-19T08:22:25Z</time>
      </trkpt>
      <trkpt lat="44.24343" lon="6.69815">
        <ele>2136</ele>
        <time>2021-08-19T08:22:35Z</time>
      </trkpt>
      <trkpt lat="44.24343" lon="6.69825">
        <ele>2137</ele>
        <time>2021-08-19T08:22:45Z</time>
      </trkpt>
      <trkpt lat="44.2434" lon="6.69833">
        <ele>2137</ele>
        <time>2021-08-19T08:22:55Z</time>
      </trkpt>
      <trkpt lat="44.24337" lon="6.69842">
        <ele>2138</ele>
        <time>2021-08-19T08:23:05Z</time>
      </trkpt>
      <trkpt lat="44.24334" lon="6.69852">
        <ele>2138</ele>
        <time>2021-08-19T08:23:15Z</time>
      </trkpt>
      <trkpt lat="44.2433" lon="6.69862">
        <ele>2138</ele>
        <time>2021-08-19T08:23:24Z</time>
      </trkpt>
      <trkpt lat="44.24328" lon="6.69874">
        <ele>2138</ele>
        <time>2021-08-19T08:23:33Z</time>
      </trkpt>
      <trkpt lat="44.24327" lon="6.69879">
        <ele>2138</ele>
        <time>2021-08-19T08:23:44Z</time>
      </trkpt>
      <trkpt lat="44.24327" lon="6.69889">
        <ele>2138</ele>
        <time>2021-08-19T08:23:54Z</time>
      </trkpt>
      <trkpt lat="44.24324" lon="6.69899">
        <ele>2138</ele>
        <time>2021-08-19T08:24:04Z</time>
      </trkpt>
      <trkpt lat="44.24324" lon="6.6991">
        <ele>2136</ele>
        <time>2021-08-19T08:24:13Z</time>
      </trkpt>
      <trkpt lat="44.24322" lon="6.69922">
        <ele>2136</ele>
        <time>2021-08-19T08:24:22Z</time>
      </trkpt>
      <trkpt lat="44.24321" lon="6.69934">
        <ele>2136</ele>
        <time>2021-08-19T08:24:32Z</time>
      </trkpt>
      <trkpt lat="44.24318" lon="6.69946">
        <ele>2136</ele>
        <time>2021-08-19T08:24:42Z</time>
      </trkpt>
      <trkpt lat="44.24317" lon="6.69959">
        <ele>2136</ele>
        <time>2021-08-19T08:24:52Z</time>
      </trkpt>
      <trkpt lat="44.24313" lon="6.69971">
        <ele>2136</ele>
        <time>2021-08-19T08:25:01Z</time>
      </trkpt>
      <trkpt lat="44.24311" lon="6.69983">
        <ele>2136</ele>
        <time>2021-08-19T08:25:11Z</time>
      </trkpt>
      <trkpt lat="44.24309" lon="6.69994">
        <ele>2136</ele>
        <time>2021-08-19T08:25:20Z</time>
      </trkpt>
      <trkpt lat="44.24306" lon="6.70006">
        <ele>2136</ele>
        <time>2021-08-19T08:25:30Z</time>
      </trkpt>
      <trkpt lat="44.24304" lon="6.70015">
        <ele>2136</ele>
        <time>2021-08-19T08:25:39Z</time>
      </trkpt>
      <trkpt lat="44.243" lon="6.70025">
        <ele>2136</ele>
        <time>2021-08-19T08:25:49Z</time>
      </trkpt>
      <trkpt lat="44.243" lon="6.70036">
        <ele>2136</ele>
        <time>2021-08-19T08:25:58Z</time>
      </trkpt>
      <trkpt lat="44.24299" lon="6.70049">
        <ele>2136</ele>
        <time>2021-08-19T08:26:08Z</time>
      </trkpt>
      <trkpt lat="44.24302" lon="6.70059">
        <ele>2136</ele>
        <time>2021-08-19T08:26:18Z</time>
      </trkpt>
      <trkpt lat="44.24304" lon="6.70069">
        <ele>2136</ele>
        <time>2021-08-19T08:26:28Z</time>
      </trkpt>
      <trkpt lat="44.2431" lon="6.70077">
        <ele>2137</ele>
        <time>2021-08-19T08:26:38Z</time>
      </trkpt>
      <trkpt lat="44.24316" lon="6.70082">
        <ele>2139</ele>
        <time>2021-08-19T08:26:47Z</time>
      </trkpt>
      <trkpt lat="44.24321" lon="6.70086">
        <ele>2141</ele>
        <time>2021-08-19T08:26:56Z</time>
      </trkpt>
      <trkpt lat="44.24324" lon="6.70095">
        <ele>2143</ele>
        <time>2021-08-19T08:27:05Z</time>
      </trkpt>
      <trkpt lat="44.24325" lon="6.70104">
        <ele>2145</ele>
        <time>2021-08-19T08:27:14Z</time>
      </trkpt>
      <trkpt lat="44.24329" lon="6.70116">
        <ele>2146</ele>
        <time>2021-08-19T08:27:23Z</time>
      </trkpt>
      <trkpt lat="44.24332" lon="6.70126">
        <ele>2146</ele>
        <time>2021-08-19T08:27:32Z</time>
      </trkpt>
      <trkpt lat="44.24341" lon="6.7014">
        <ele>2146</ele>
        <time>2021-08-19T08:27:43Z</time>
      </trkpt>
      <trkpt lat="44.24348" lon="6.70149">
        <ele>2146</ele>
        <time>2021-08-19T08:27:53Z</time>
      </trkpt>
      <trkpt lat="44.24355" lon="6.70158">
        <ele>2146</ele>
        <time>2021-08-19T08:28:02Z</time>
      </trkpt>
      <trkpt lat="44.24362" lon="6.70167">
        <ele>2146</ele>
        <time>2021-08-19T08:28:12Z</time>
      </trkpt>
      <trkpt lat="44.24369" lon="6.70175">
        <ele>2146</ele>
        <time>2021-08-19T08:28:22Z</time>
      </trkpt>
      <trkpt lat="44.24377" lon="6.70182">
        <ele>2146</ele>
        <time>2021-08-19T08:28:32Z</time>
      </trkpt>
      <trkpt lat="44.24383" lon="6.70191">
        <ele>2146</ele>
        <time>2021-08-19T08:28:42Z</time>
      </trkpt>
      <trkpt lat="44.24389" lon="6.702">
        <ele>2146</ele>
        <time>2021-08-19T08:28:52Z</time>
      </trkpt>
      <trkpt lat="44.24397" lon="6.70207">
        <ele>2146</ele>
        <time>2021-08-19T08:29:02Z</time>
      </trkpt>
      <trkpt lat="44.24404" lon="6.70215">
        <ele>2146</ele>
        <time>2021-08-19T08:29:12Z</time>
      </trkpt>
      <trkpt lat="44.24411" lon="6.70221">
        <ele>2146</ele>
        <time>2021-08-19T08:29:22Z</time>
      </trkpt>
      <trkpt lat="44.24414" lon="6.7023">
        <ele>2147</ele>
        <time>2021-08-19T08:29:32Z</time>
      </trkpt>
      <trkpt lat="44.24413" lon="6.70243">
        <ele>2148</ele>
        <time>2021-08-19T08:29:42Z</time>
      </trkpt>
      <trkpt lat="44.24413" lon="6.70255">
        <ele>2148</ele>
        <time>2021-08-19T08:29:52Z</time>
      </trkpt>
      <trkpt lat="44.24408" lon="6.70265">
        <ele>2151</ele>
        <time>2021-08-19T08:30:02Z</time>
      </trkpt>
      <trkpt lat="44.24406" lon="6.70276">
        <ele>2153</ele>
        <time>2021-08-19T08:30:11Z</time>
      </trkpt>
      <trkpt lat="44.24402" lon="6.70287">
        <ele>2153</ele>
        <time>2021-08-19T08:30:20Z</time>
      </trkpt>
      <trkpt lat="44.24396" lon="6.70293">
        <ele>2153</ele>
        <time>2021-08-19T08:30:29Z</time>
      </trkpt>
      <trkpt lat="44.24389" lon="6.70299">
        <ele>2162</ele>
        <time>2021-08-19T08:30:39Z</time>
      </trkpt>
      <trkpt lat="44.24384" lon="6.70308">
        <ele>2164</ele>
        <time>2021-08-19T08:30:49Z</time>
      </trkpt>
      <trkpt lat="44.24378" lon="6.70317">
        <ele>2166</ele>
        <time>2021-08-19T08:30:59Z</time>
      </trkpt>
      <trkpt lat="44.24375" lon="6.70327">
        <ele>2166</ele>
        <time>2021-08-19T08:31:08Z</time>
      </trkpt>
      <trkpt lat="44.24373" lon="6.70338">
        <ele>2166</ele>
        <time>2021-08-19T08:31:18Z</time>
      </trkpt>
      <trkpt lat="44.2437" lon="6.70349">
        <ele>2166</ele>
        <time>2021-08-19T08:31:28Z</time>
      </trkpt>
      <trkpt lat="44.24365" lon="6.70356">
        <ele>2167</ele>
        <time>2021-08-19T08:31:38Z</time>
      </trkpt>
      <trkpt lat="44.24362" lon="6.70366">
        <ele>2167</ele>
        <time>2021-08-19T08:31:48Z</time>
      </trkpt>
      <trkpt lat="44.24359" lon="6.70375">
        <ele>2167</ele>
        <time>2021-08-19T08:31:57Z</time>
      </trkpt>
      <trkpt lat="44.24354" lon="6.70384">
        <ele>2167</ele>
        <time>2021-08-19T08:32:07Z</time>
      </trkpt>
      <trkpt lat="44.24349" lon="6.70391">
        <ele>2167</ele>
        <time>2021-08-19T08:32:18Z</time>
      </trkpt>
      <trkpt lat="44.24343" lon="6.70398">
        <ele>2171</ele>
        <time>2021-08-19T08:32:28Z</time>
      </trkpt>
      <trkpt lat="44.24338" lon="6.70404">
        <ele>2171</ele>
        <time>2021-08-19T08:32:37Z</time>
      </trkpt>
      <trkpt lat="44.24331" lon="6.70408">
        <ele>2171</ele>
        <time>2021-08-19T08:32:47Z</time>
      </trkpt>
      <trkpt lat="44.24327" lon="6.70411">
        <ele>2171</ele>
        <time>2021-08-19T08:32:57Z</time>
      </trkpt>
      <trkpt lat="44.24321" lon="6.70414">
        <ele>2171</ele>
        <time>2021-08-19T08:33:06Z</time>
      </trkpt>
      <trkpt lat="44.24313" lon="6.70414">
        <ele>2171</ele>
        <time>2021-08-19T08:33:15Z</time>
      </trkpt>
      <trkpt lat="44.24305" lon="6.70419">
        <ele>2173</ele>
        <time>2021-08-19T08:33:25Z</time>
      </trkpt>
      <trkpt lat="44.24296" lon="6.70419">
        <ele>2173</ele>
        <time>2021-08-19T08:33:35Z</time>
      </trkpt>
      <trkpt lat="44.2429" lon="6.7042">
        <ele>2173</ele>
        <time>2021-08-19T08:33:45Z</time>
      </trkpt>
      <trkpt lat="44.24281" lon="6.7042">
        <ele>2175</ele>
        <time>2021-08-19T08:33:55Z</time>
      </trkpt>
      <trkpt lat="44.24275" lon="6.70422">
        <ele>2177</ele>
        <time>2021-08-19T08:34:05Z</time>
      </trkpt>
      <trkpt lat="44.24269" lon="6.70423">
        <ele>2178</ele>
        <time>2021-08-19T08:34:14Z</time>
      </trkpt>
      <trkpt lat="44.2426" lon="6.70425">
        <ele>2181</ele>
        <time>2021-08-19T08:34:24Z</time>
      </trkpt>
      <trkpt lat="44.24252" lon="6.70426">
        <ele>2182</ele>
        <time>2021-08-19T08:34:34Z</time>
      </trkpt>
      <trkpt lat="44.24245" lon="6.7043">
        <ele>2183</ele>
        <time>2021-08-19T08:34:44Z</time>
      </trkpt>
      <trkpt lat="44.24238" lon="6.70432">
        <ele>2183</ele>
        <time>2021-08-19T08:34:53Z</time>
      </trkpt>
      <trkpt lat="44.24229" lon="6.70435">
        <ele>2187</ele>
        <time>2021-08-19T08:35:03Z</time>
      </trkpt>
      <trkpt lat="44.24224" lon="6.70436">
        <ele>2187</ele>
        <time>2021-08-19T08:35:12Z</time>
      </trkpt>
      <trkpt lat="44.24218" lon="6.7044">
        <ele>2187</ele>
        <time>2021-08-19T08:35:22Z</time>
      </trkpt>
      <trkpt lat="44.2421" lon="6.70441">
        <ele>2189</ele>
        <time>2021-08-19T08:35:32Z</time>
      </trkpt>
      <trkpt lat="44.24202" lon="6.70442">
        <ele>2191</ele>
        <time>2021-08-19T08:35:42Z</time>
      </trkpt>
      <trkpt lat="44.24195" lon="6.70444">
        <ele>2192</ele>
        <time>2021-08-19T08:35:52Z</time>
      </trkpt>
      <trkpt lat="44.24189" lon="6.70445">
        <ele>2192</ele>
        <time>2021-08-19T08:36:01Z</time>
      </trkpt>
      <trkpt lat="44.24181" lon="6.70446">
        <ele>2193</ele>
        <time>2021-08-19T08:36:11Z</time>
      </trkpt>
      <trkpt lat="44.24172" lon="6.70447">
        <ele>2193</ele>
        <time>2021-08-19T08:36:21Z</time>
      </trkpt>
      <trkpt lat="44.24164" lon="6.70444">
        <ele>2196</ele>
        <time>2021-08-19T08:36:31Z</time>
      </trkpt>
      <trkpt lat="44.24157" lon="6.70442">
        <ele>2198</ele>
        <time>2021-08-19T08:36:41Z</time>
      </trkpt>
      <trkpt lat="44.24149" lon="6.7044">
        <ele>2198</ele>
        <time>2021-08-19T08:36:51Z</time>
      </trkpt>
      <trkpt lat="44.24141" lon="6.70439">
        <ele>2199</ele>
        <time>2021-08-19T08:37:01Z</time>
      </trkpt>
      <trkpt lat="44.24133" lon="6.70437">
        <ele>2200</ele>
        <time>2021-08-19T08:37:11Z</time>
      </trkpt>
      <trkpt lat="44.24125" lon="6.70435">
        <ele>2201</ele>
        <time>2021-08-19T08:37:21Z</time>
      </trkpt>
      <trkpt lat="44.24117" lon="6.70435">
        <ele>2201</ele>
        <time>2021-08-19T08:37:31Z</time>
      </trkpt>
      <trkpt lat="44.24109" lon="6.70433">
        <ele>2202</ele>
        <time>2021-08-19T08:37:41Z</time>
      </trkpt>
      <trkpt lat="44.24102" lon="6.70435">
        <ele>2202</ele>
        <time>2021-08-19T08:37:51Z</time>
      </trkpt>
      <trkpt lat="44.24095" lon="6.70435">
        <ele>2203</ele>
        <time>2021-08-19T08:38:00Z</time>
      </trkpt>
      <trkpt lat="44.24088" lon="6.70436">
        <ele>2204</ele>
        <time>2021-08-19T08:38:09Z</time>
      </trkpt>
      <trkpt lat="44.24081" lon="6.70436">
        <ele>2205</ele>
        <time>2021-08-19T08:38:19Z</time>
      </trkpt>
      <trkpt lat="44.24073" lon="6.70435">
        <ele>2205</ele>
        <time>2021-08-19T08:38:29Z</time>
      </trkpt>
      <trkpt lat="44.24066" lon="6.70435">
        <ele>2207</ele>
        <time>2021-08-19T08:38:39Z</time>
      </trkpt>
      <trkpt lat="44.2406" lon="6.70433">
        <ele>2207</ele>
        <time>2021-08-19T08:38:48Z</time>
      </trkpt>
      <trkpt lat="44.24054" lon="6.70428">
        <ele>2207</ele>
        <time>2021-08-19T08:38:58Z</time>
      </trkpt>
      <trkpt lat="44.24046" lon="6.70425">
        <ele>2208</ele>
        <time>2021-08-19T08:39:08Z</time>
      </trkpt>
      <trkpt lat="44.2404" lon="6.70422">
        <ele>2209</ele>
        <time>2021-08-19T08:39:18Z</time>
      </trkpt>
      <trkpt lat="44.24033" lon="6.70419">
        <ele>2210</ele>
        <time>2021-08-19T08:39:28Z</time>
      </trkpt>
      <trkpt lat="44.24025" lon="6.70414">
        <ele>2214</ele>
        <time>2021-08-19T08:39:38Z</time>
      </trkpt>
      <trkpt lat="44.24019" lon="6.70408">
        <ele>2217</ele>
        <time>2021-08-19T08:39:48Z</time>
      </trkpt>
      <trkpt lat="44.24013" lon="6.70401">
        <ele>2218</ele>
        <time>2021-08-19T08:39:58Z</time>
      </trkpt>
      <trkpt lat="44.24007" lon="6.70397">
        <ele>2220</ele>
        <time>2021-08-19T08:40:08Z</time>
      </trkpt>
      <trkpt lat="44.24001" lon="6.70394">
        <ele>2221</ele>
        <time>2021-08-19T08:40:18Z</time>
      </trkpt>
      <trkpt lat="44.23996" lon="6.70387">
        <ele>2222</ele>
        <time>2021-08-19T08:40:28Z</time>
      </trkpt>
      <trkpt lat="44.23991" lon="6.70384">
        <ele>2222</ele>
        <time>2021-08-19T08:40:37Z</time>
      </trkpt>
      <trkpt lat="44.23984" lon="6.70377">
        <ele>2222</ele>
        <time>2021-08-19T08:40:47Z</time>
      </trkpt>
      <trkpt lat="44.23977" lon="6.70373">
        <ele>2223</ele>
        <time>2021-08-19T08:40:57Z</time>
      </trkpt>
      <trkpt lat="44.23971" lon="6.70369">
        <ele>2223</ele>
        <time>2021-08-19T08:41:06Z</time>
      </trkpt>
      <trkpt lat="44.23965" lon="6.70365">
        <ele>2223</ele>
        <time>2021-08-19T08:41:15Z</time>
      </trkpt>
      <trkpt lat="44.23958" lon="6.7036">
        <ele>2224</ele>
        <time>2021-08-19T08:41:25Z</time>
      </trkpt>
      <trkpt lat="44.2395" lon="6.70356">
        <ele>2226</ele>
        <time>2021-08-19T08:41:35Z</time>
      </trkpt>
      <trkpt lat="44.23943" lon="6.70353">
        <ele>2228</ele>
        <time>2021-08-19T08:41:46Z</time>
      </trkpt>
      <trkpt lat="44.23936" lon="6.70349">
        <ele>2229</ele>
        <time>2021-08-19T08:41:56Z</time>
      </trkpt>
      <trkpt lat="44.23931" lon="6.70347">
        <ele>2230</ele>
        <time>2021-08-19T08:42:05Z</time>
      </trkpt>
      <trkpt lat="44.23925" lon="6.70343">
        <ele>2230</ele>
        <time>2021-08-19T08:42:16Z</time>
      </trkpt>
      <trkpt lat="44.23919" lon="6.70339">
        <ele>2230</ele>
        <time>2021-08-19T08:42:27Z</time>
      </trkpt>
      <trkpt lat="44.23914" lon="6.70331">
        <ele>2232</ele>
        <time>2021-08-19T08:42:38Z</time>
      </trkpt>
      <trkpt lat="44.23908" lon="6.70323">
        <ele>2233</ele>
        <time>2021-08-19T08:42:48Z</time>
      </trkpt>
      <trkpt lat="44.23908" lon="6.70322">
        <ele>2233</ele>
        <time>2021-08-19T08:43:19Z</time>
      </trkpt>
      <trkpt lat="44.23903" lon="6.70317">
        <ele>2233</ele>
        <time>2021-08-19T08:43:29Z</time>
      </trkpt>
      <trkpt lat="44.23896" lon="6.70316">
        <ele>2234</ele>
        <time>2021-08-19T08:43:39Z</time>
      </trkpt>
      <trkpt lat="44.23889" lon="6.70316">
        <ele>2235</ele>
        <time>2021-08-19T08:43:49Z</time>
      </trkpt>
      <trkpt lat="44.23881" lon="6.70318">
        <ele>2236</ele>
        <time>2021-08-19T08:43:58Z</time>
      </trkpt>
      <trkpt lat="44.23875" lon="6.70317">
        <ele>2238</ele>
        <time>2021-08-19T08:44:07Z</time>
      </trkpt>
      <trkpt lat="44.23868" lon="6.70319">
        <ele>2239</ele>
        <time>2021-08-19T08:44:17Z</time>
      </trkpt>
      <trkpt lat="44.23861" lon="6.70317">
        <ele>2239</ele>
        <time>2021-08-19T08:44:27Z</time>
      </trkpt>
      <trkpt lat="44.23855" lon="6.70308">
        <ele>2242</ele>
        <time>2021-08-19T08:44:37Z</time>
      </trkpt>
      <trkpt lat="44.23854" lon="6.70302">
        <ele>2248</ele>
        <time>2021-08-19T08:44:46Z</time>
      </trkpt>
      <trkpt lat="44.23848" lon="6.70294">
        <ele>2250</ele>
        <time>2021-08-19T08:44:56Z</time>
      </trkpt>
      <trkpt lat="44.23842" lon="6.70287">
        <ele>2251</ele>
        <time>2021-08-19T08:45:07Z</time>
      </trkpt>
      <trkpt lat="44.23836" lon="6.70278">
        <ele>2251</ele>
        <time>2021-08-19T08:45:17Z</time>
      </trkpt>
      <trkpt lat="44.23829" lon="6.70271">
        <ele>2251</ele>
        <time>2021-08-19T08:45:27Z</time>
      </trkpt>
      <trkpt lat="44.23822" lon="6.70263">
        <ele>2251</ele>
        <time>2021-08-19T08:45:37Z</time>
      </trkpt>
      <trkpt lat="44.23813" lon="6.70259">
        <ele>2252</ele>
        <time>2021-08-19T08:45:47Z</time>
      </trkpt>
      <trkpt lat="44.23808" lon="6.70257">
        <ele>2252</ele>
        <time>2021-08-19T08:45:56Z</time>
      </trkpt>
      <trkpt lat="44.23803" lon="6.7025">
        <ele>2252</ele>
        <time>2021-08-19T08:46:05Z</time>
      </trkpt>
      <trkpt lat="44.23796" lon="6.70243">
        <ele>2254</ele>
        <time>2021-08-19T08:46:16Z</time>
      </trkpt>
      <trkpt lat="44.23789" lon="6.70235">
        <ele>2255</ele>
        <time>2021-08-19T08:46:26Z</time>
      </trkpt>
      <trkpt lat="44.23784" lon="6.7023">
        <ele>2256</ele>
        <time>2021-08-19T08:46:35Z</time>
      </trkpt>
      <trkpt lat="44.23776" lon="6.70226">
        <ele>2256</ele>
        <time>2021-08-19T08:46:45Z</time>
      </trkpt>
      <trkpt lat="44.23769" lon="6.70222">
        <ele>2256</ele>
        <time>2021-08-19T08:46:55Z</time>
      </trkpt>
      <trkpt lat="44.23763" lon="6.70222">
        <ele>2256</ele>
        <time>2021-08-19T08:47:07Z</time>
      </trkpt>
      <trkpt lat="44.23763" lon="6.70218">
        <ele>2262</ele>
        <time>2021-08-19T08:47:21Z</time>
      </trkpt>
      <trkpt lat="44.2378" lon="6.70217">
        <ele>2259</ele>
        <time>2021-08-19T08:47:30Z</time>
      </trkpt>
      <trkpt lat="44.2378" lon="6.7022">
        <ele>2246</ele>
        <time>2021-08-19T08:47:40Z</time>
      </trkpt>
      <trkpt lat="44.23777" lon="6.7022">
        <ele>2227</ele>
        <time>2021-08-19T08:47:51Z</time>
      </trkpt>
      <trkpt lat="44.23771" lon="6.70214">
        <ele>2230</ele>
        <time>2021-08-19T08:48:01Z</time>
      </trkpt>
      <trkpt lat="44.23766" lon="6.70208">
        <ele>2241</ele>
        <time>2021-08-19T08:48:12Z</time>
      </trkpt>
      <trkpt lat="44.23767" lon="6.70209">
        <ele>2241</ele>
        <time>2021-08-19T08:48:21Z</time>
      </trkpt>
      <trkpt lat="44.23769" lon="6.7021">
        <ele>2241</ele>
        <time>2021-08-19T08:48:33Z</time>
      </trkpt>
      <trkpt lat="44.23762" lon="6.70209">
        <ele>2247</ele>
        <time>2021-08-19T08:48:42Z</time>
      </trkpt>
      <trkpt lat="44.23764" lon="6.70208">
        <ele>2258</ele>
        <time>2021-08-19T08:48:53Z</time>
      </trkpt>
      <trkpt lat="44.23756" lon="6.70214">
        <ele>2260</ele>
        <time>2021-08-19T08:49:02Z</time>
      </trkpt>
      <trkpt lat="44.23759" lon="6.70213">
        <ele>2261</ele>
        <time>2021-08-19T08:49:11Z</time>
      </trkpt>
      <trkpt lat="44.23765" lon="6.70211">
        <ele>2261</ele>
        <time>2021-08-19T08:49:22Z</time>
      </trkpt>
      <trkpt lat="44.23772" lon="6.70212">
        <ele>2254</ele>
        <time>2021-08-19T08:49:31Z</time>
      </trkpt>
      <trkpt lat="44.23775" lon="6.70214">
        <ele>2243</ele>
        <time>2021-08-19T08:49:40Z</time>
      </trkpt>
      <trkpt lat="44.2378" lon="6.70234">
        <ele>2225</ele>
        <time>2021-08-19T08:49:49Z</time>
      </trkpt>
      <trkpt lat="44.23782" lon="6.70243">
        <ele>2207</ele>
        <time>2021-08-19T08:49:58Z</time>
      </trkpt>
      <trkpt lat="44.23783" lon="6.70236">
        <ele>2175</ele>
        <time>2021-08-19T08:50:09Z</time>
      </trkpt>
      <trkpt lat="44.23785" lon="6.70228">
        <ele>2174</ele>
        <time>2021-08-19T08:50:19Z</time>
      </trkpt>
      <trkpt lat="44.23772" lon="6.70216">
        <ele>2193</ele>
        <time>2021-08-19T08:50:28Z</time>
      </trkpt>
      <trkpt lat="44.23766" lon="6.7022">
        <ele>2231</ele>
        <time>2021-08-19T08:50:41Z</time>
      </trkpt>
      <trkpt lat="44.23763" lon="6.70217">
        <ele>2236</ele>
        <time>2021-08-19T08:50:51Z</time>
      </trkpt>
      <trkpt lat="44.2376" lon="6.70211">
        <ele>2243</ele>
        <time>2021-08-19T08:51:00Z</time>
      </trkpt>
      <trkpt lat="44.23759" lon="6.70213">
        <ele>2252</ele>
        <time>2021-08-19T08:51:12Z</time>
      </trkpt>
      <trkpt lat="44.23761" lon="6.70216">
        <ele>2254</ele>
        <time>2021-08-19T08:51:24Z</time>
      </trkpt>
      <trkpt lat="44.2376" lon="6.7022">
        <ele>2249</ele>
        <time>2021-08-19T08:51:34Z</time>
      </trkpt>
      <trkpt lat="44.23763" lon="6.70221">
        <ele>2245</ele>
        <time>2021-08-19T08:51:46Z</time>
      </trkpt>
      <trkpt lat="44.23762" lon="6.70217">
        <ele>2252</ele>
        <time>2021-08-19T08:51:59Z</time>
      </trkpt>
      <trkpt lat="44.23761" lon="6.70222">
        <ele>2252</ele>
        <time>2021-08-19T08:52:09Z</time>
      </trkpt>
      <trkpt lat="44.23761" lon="6.70224">
        <ele>2254</ele>
        <time>2021-08-19T08:52:19Z</time>
      </trkpt>
      <trkpt lat="44.23763" lon="6.70227">
        <ele>2253</ele>
        <time>2021-08-19T08:52:32Z</time>
      </trkpt>
      <trkpt lat="44.23764" lon="6.70228">
        <ele>2243</ele>
        <time>2021-08-19T08:52:46Z</time>
      </trkpt>
      <trkpt lat="44.23761" lon="6.70224">
        <ele>2242</ele>
        <time>2021-08-19T08:52:56Z</time>
      </trkpt>
      <trkpt lat="44.23759" lon="6.70219">
        <ele>2251</ele>
        <time>2021-08-19T08:53:05Z</time>
      </trkpt>
      <trkpt lat="44.23759" lon="6.70223">
        <ele>2252</ele>
        <time>2021-08-19T08:53:14Z</time>
      </trkpt>
      <trkpt lat="44.2376" lon="6.70223">
        <ele>2245</ele>
        <time>2021-08-19T08:53:23Z</time>
      </trkpt>
      <trkpt lat="44.23759" lon="6.70215">
        <ele>2246</ele>
        <time>2021-08-19T08:53:34Z</time>
      </trkpt>
      <trkpt lat="44.23759" lon="6.70217">
        <ele>2247</ele>
        <time>2021-08-19T08:53:45Z</time>
      </trkpt>
      <trkpt lat="44.23763" lon="6.7022">
        <ele>2245</ele>
        <time>2021-08-19T08:53:55Z</time>
      </trkpt>
      <trkpt lat="44.23763" lon="6.70216">
        <ele>2246</ele>
        <time>2021-08-19T08:54:05Z</time>
      </trkpt>
      <trkpt lat="44.23758" lon="6.7021">
        <ele>2256</ele>
        <time>2021-08-19T08:54:15Z</time>
      </trkpt>
      <trkpt lat="44.23761" lon="6.70213">
        <ele>2271</ele>
        <time>2021-08-19T08:54:30Z</time>
      </trkpt>
      <trkpt lat="44.23764" lon="6.70217">
        <ele>2264</ele>
        <time>2021-08-19T08:54:43Z</time>
      </trkpt>
      <trkpt lat="44.23765" lon="6.7022">
        <ele>2261</ele>
        <time>2021-08-19T08:54:53Z</time>
      </trkpt>
      <trkpt lat="44.23764" lon="6.7022">
        <ele>2261</ele>
        <time>2021-08-19T08:55:16Z</time>
      </trkpt>
      <trkpt lat="44.23759" lon="6.70215">
        <ele>2263</ele>
        <time>2021-08-19T08:55:29Z</time>
      </trkpt>
      <trkpt lat="44.23752" lon="6.70216">
        <ele>2268</ele>
        <time>2021-08-19T08:55:38Z</time>
      </trkpt>
      <trkpt lat="44.23745" lon="6.70217">
        <ele>2268</ele>
        <time>2021-08-19T08:55:48Z</time>
      </trkpt>
      <trkpt lat="44.23738" lon="6.70214">
        <ele>2266</ele>
        <time>2021-08-19T08:55:58Z</time>
      </trkpt>
      <trkpt lat="44.23732" lon="6.70215">
        <ele>2266</ele>
        <time>2021-08-19T08:56:07Z</time>
      </trkpt>
      <trkpt lat="44.23727" lon="6.70213">
        <ele>2266</ele>
        <time>2021-08-19T08:56:16Z</time>
      </trkpt>
      <trkpt lat="44.2372" lon="6.70207">
        <ele>2266</ele>
        <time>2021-08-19T08:56:26Z</time>
      </trkpt>
      <trkpt lat="44.23714" lon="6.70203">
        <ele>2264</ele>
        <time>2021-08-19T08:56:35Z</time>
      </trkpt>
      <trkpt lat="44.23708" lon="6.70197">
        <ele>2264</ele>
        <time>2021-08-19T08:56:46Z</time>
      </trkpt>
      <trkpt lat="44.23704" lon="6.70189">
        <ele>2260</ele>
        <time>2021-08-19T08:56:56Z</time>
      </trkpt>
      <trkpt lat="44.23702" lon="6.70181">
        <ele>2260</ele>
        <time>2021-08-19T08:57:06Z</time>
      </trkpt>
      <trkpt lat="44.23696" lon="6.70176">
        <ele>2260</ele>
        <time>2021-08-19T08:57:15Z</time>
      </trkpt>
      <trkpt lat="44.23691" lon="6.70169">
        <ele>2264</ele>
        <time>2021-08-19T08:57:26Z</time>
      </trkpt>
      <trkpt lat="44.23685" lon="6.70164">
        <ele>2264</ele>
        <time>2021-08-19T08:57:35Z</time>
      </trkpt>
      <trkpt lat="44.23679" lon="6.70159">
        <ele>2265</ele>
        <time>2021-08-19T08:57:45Z</time>
      </trkpt>
      <trkpt lat="44.23671" lon="6.70153">
        <ele>2269</ele>
        <time>2021-08-19T08:57:56Z</time>
      </trkpt>
      <trkpt lat="44.23664" lon="6.70147">
        <ele>2269</ele>
        <time>2021-08-19T08:58:06Z</time>
      </trkpt>
      <trkpt lat="44.23656" lon="6.70142">
        <ele>2271</ele>
        <time>2021-08-19T08:58:17Z</time>
      </trkpt>
      <trkpt lat="44.23648" lon="6.70139">
        <ele>2274</ele>
        <time>2021-08-19T08:58:28Z</time>
      </trkpt>
      <trkpt lat="44.23641" lon="6.70133">
        <ele>2277</ele>
        <time>2021-08-19T08:58:39Z</time>
      </trkpt>
      <trkpt lat="44.23633" lon="6.70129">
        <ele>2283</ele>
        <time>2021-08-19T08:58:51Z</time>
      </trkpt>
      <trkpt lat="44.2363" lon="6.70122">
        <ele>2284</ele>
        <time>2021-08-19T08:59:02Z</time>
      </trkpt>
      <trkpt lat="44.23626" lon="6.70116">
        <ele>2282</ele>
        <time>2021-08-19T08:59:13Z</time>
      </trkpt>
      <trkpt lat="44.23621" lon="6.7011">
        <ele>2282</ele>
        <time>2021-08-19T08:59:23Z</time>
      </trkpt>
      <trkpt lat="44.23613" lon="6.70104">
        <ele>2282</ele>
        <time>2021-08-19T08:59:34Z</time>
      </trkpt>
      <trkpt lat="44.23605" lon="6.70098">
        <ele>2282</ele>
        <time>2021-08-19T08:59:44Z</time>
      </trkpt>
      <trkpt lat="44.23601" lon="6.70092">
        <ele>2282</ele>
        <time>2021-08-19T08:59:55Z</time>
      </trkpt>
      <trkpt lat="44.23595" lon="6.70084">
        <ele>2282</ele>
        <time>2021-08-19T09:00:05Z</time>
      </trkpt>
      <trkpt lat="44.2359" lon="6.70077">
        <ele>2282</ele>
        <time>2021-08-19T09:00:14Z</time>
      </trkpt>
      <trkpt lat="44.23587" lon="6.70069">
        <ele>2282</ele>
        <time>2021-08-19T09:00:23Z</time>
      </trkpt>
      <trkpt lat="44.23584" lon="6.7006">
        <ele>2282</ele>
        <time>2021-08-19T09:00:34Z</time>
      </trkpt>
      <trkpt lat="44.23582" lon="6.7005">
        <ele>2282</ele>
        <time>2021-08-19T09:00:43Z</time>
      </trkpt>
      <trkpt lat="44.23579" lon="6.70041">
        <ele>2282</ele>
        <time>2021-08-19T09:00:53Z</time>
      </trkpt>
      <trkpt lat="44.23577" lon="6.70033">
        <ele>2282</ele>
        <time>2021-08-19T09:01:02Z</time>
      </trkpt>
      <trkpt lat="44.23574" lon="6.70025">
        <ele>2282</ele>
        <time>2021-08-19T09:01:12Z</time>
      </trkpt>
      <trkpt lat="44.2357" lon="6.70016">
        <ele>2282</ele>
        <time>2021-08-19T09:01:22Z</time>
      </trkpt>
      <trkpt lat="44.23566" lon="6.70008">
        <ele>2282</ele>
        <time>2021-08-19T09:01:32Z</time>
      </trkpt>
      <trkpt lat="44.23561" lon="6.70005">
        <ele>2282</ele>
        <time>2021-08-19T09:01:41Z</time>
      </trkpt>
      <trkpt lat="44.23556" lon="6.69998">
        <ele>2283</ele>
        <time>2021-08-19T09:01:51Z</time>
      </trkpt>
      <trkpt lat="44.23552" lon="6.6999">
        <ele>2283</ele>
        <time>2021-08-19T09:02:00Z</time>
      </trkpt>
      <trkpt lat="44.23545" lon="6.69986">
        <ele>2287</ele>
        <time>2021-08-19T09:02:10Z</time>
      </trkpt>
      <trkpt lat="44.2354" lon="6.69979">
        <ele>2290</ele>
        <time>2021-08-19T09:02:20Z</time>
      </trkpt>
      <trkpt lat="44.23537" lon="6.69969">
        <ele>2292</ele>
        <time>2021-08-19T09:02:30Z</time>
      </trkpt>
      <trkpt lat="44.23537" lon="6.69957">
        <ele>2292</ele>
        <time>2021-08-19T09:02:40Z</time>
      </trkpt>
      <trkpt lat="44.23534" lon="6.69948">
        <ele>2292</ele>
        <time>2021-08-19T09:02:50Z</time>
      </trkpt>
      <trkpt lat="44.23533" lon="6.69937">
        <ele>2292</ele>
        <time>2021-08-19T09:03:00Z</time>
      </trkpt>
      <trkpt lat="44.23533" lon="6.69928">
        <ele>2294</ele>
        <time>2021-08-19T09:03:09Z</time>
      </trkpt>
      <trkpt lat="44.23531" lon="6.69917">
        <ele>2296</ele>
        <time>2021-08-19T09:03:19Z</time>
      </trkpt>
      <trkpt lat="44.23526" lon="6.69908">
        <ele>2297</ele>
        <time>2021-08-19T09:03:29Z</time>
      </trkpt>
      <trkpt lat="44.23523" lon="6.699">
        <ele>2297</ele>
        <time>2021-08-19T09:03:40Z</time>
      </trkpt>
      <trkpt lat="44.23523" lon="6.69891">
        <ele>2299</ele>
        <time>2021-08-19T09:03:50Z</time>
      </trkpt>
      <trkpt lat="44.23526" lon="6.69882">
        <ele>2301</ele>
        <time>2021-08-19T09:04:00Z</time>
      </trkpt>
      <trkpt lat="44.23533" lon="6.69877">
        <ele>2301</ele>
        <time>2021-08-19T09:04:10Z</time>
      </trkpt>
      <trkpt lat="44.23538" lon="6.69874">
        <ele>2304</ele>
        <time>2021-08-19T09:04:22Z</time>
      </trkpt>
      <trkpt lat="44.23532" lon="6.69872">
        <ele>2305</ele>
        <time>2021-08-19T09:04:31Z</time>
      </trkpt>
      <trkpt lat="44.23526" lon="6.69867">
        <ele>2307</ele>
        <time>2021-08-19T09:04:41Z</time>
      </trkpt>
      <trkpt lat="44.2352" lon="6.69863">
        <ele>2307</ele>
        <time>2021-08-19T09:04:51Z</time>
      </trkpt>
      <trkpt lat="44.23514" lon="6.69859">
        <ele>2307</ele>
        <time>2021-08-19T09:05:01Z</time>
      </trkpt>
      <trkpt lat="44.23507" lon="6.69856">
        <ele>2309</ele>
        <time>2021-08-19T09:05:11Z</time>
      </trkpt>
      <trkpt lat="44.23502" lon="6.69853">
        <ele>2311</ele>
        <time>2021-08-19T09:05:20Z</time>
      </trkpt>
      <trkpt lat="44.23497" lon="6.69847">
        <ele>2314</ele>
        <time>2021-08-19T09:05:29Z</time>
      </trkpt>
      <trkpt lat="44.23492" lon="6.69844">
        <ele>2315</ele>
        <time>2021-08-19T09:05:38Z</time>
      </trkpt>
      <trkpt lat="44.23489" lon="6.69843">
        <ele>2315</ele>
        <time>2021-08-19T09:05:47Z</time>
      </trkpt>
      <trkpt lat="44.23482" lon="6.69841">
        <ele>2315</ele>
        <time>2021-08-19T09:05:57Z</time>
      </trkpt>
      <trkpt lat="44.23473" lon="6.69846">
        <ele>2315</ele>
        <time>2021-08-19T09:06:07Z</time>
      </trkpt>
      <trkpt lat="44.23464" lon="6.69849">
        <ele>2315</ele>
        <time>2021-08-19T09:06:17Z</time>
      </trkpt>
      <trkpt lat="44.23459" lon="6.69846">
        <ele>2315</ele>
        <time>2021-08-19T09:06:26Z</time>
      </trkpt>
      <trkpt lat="44.23453" lon="6.69842">
        <ele>2315</ele>
        <time>2021-08-19T09:06:35Z</time>
      </trkpt>
      <trkpt lat="44.23446" lon="6.69844">
        <ele>2318</ele>
        <time>2021-08-19T09:06:45Z</time>
      </trkpt>
      <trkpt lat="44.23438" lon="6.69849">
        <ele>2319</ele>
        <time>2021-08-19T09:06:56Z</time>
      </trkpt>
      <trkpt lat="44.23431" lon="6.69852">
        <ele>2321</ele>
        <time>2021-08-19T09:07:06Z</time>
      </trkpt>
      <trkpt lat="44.23427" lon="6.6986">
        <ele>2322</ele>
        <time>2021-08-19T09:07:15Z</time>
      </trkpt>
      <trkpt lat="44.23419" lon="6.69866">
        <ele>2324</ele>
        <time>2021-08-19T09:07:25Z</time>
      </trkpt>
      <trkpt lat="44.23413" lon="6.69869">
        <ele>2324</ele>
        <time>2021-08-19T09:07:34Z</time>
      </trkpt>
      <trkpt lat="44.23406" lon="6.6987">
        <ele>2324</ele>
        <time>2021-08-19T09:07:44Z</time>
      </trkpt>
      <trkpt lat="44.23398" lon="6.69867">
        <ele>2324</ele>
        <time>2021-08-19T09:07:54Z</time>
      </trkpt>
      <trkpt lat="44.23392" lon="6.69861">
        <ele>2325</ele>
        <time>2021-08-19T09:08:04Z</time>
      </trkpt>
      <trkpt lat="44.23385" lon="6.69855">
        <ele>2326</ele>
        <time>2021-08-19T09:08:14Z</time>
      </trkpt>
      <trkpt lat="44.23378" lon="6.69849">
        <ele>2326</ele>
        <time>2021-08-19T09:08:24Z</time>
      </trkpt>
      <trkpt lat="44.23372" lon="6.69843">
        <ele>2326</ele>
        <time>2021-08-19T09:08:33Z</time>
      </trkpt>
      <trkpt lat="44.23365" lon="6.69835">
        <ele>2326</ele>
        <time>2021-08-19T09:08:44Z</time>
      </trkpt>
      <trkpt lat="44.2336" lon="6.69827">
        <ele>2326</ele>
        <time>2021-08-19T09:08:54Z</time>
      </trkpt>
      <trkpt lat="44.23355" lon="6.69817">
        <ele>2326</ele>
        <time>2021-08-19T09:09:04Z</time>
      </trkpt>
      <trkpt lat="44.23348" lon="6.6981">
        <ele>2326</ele>
        <time>2021-08-19T09:09:14Z</time>
      </trkpt>
      <trkpt lat="44.2334" lon="6.69807">
        <ele>2330</ele>
        <time>2021-08-19T09:09:24Z</time>
      </trkpt>
      <trkpt lat="44.23332" lon="6.69808">
        <ele>2334</ele>
        <time>2021-08-19T09:09:34Z</time>
      </trkpt>
      <trkpt lat="44.23324" lon="6.69813">
        <ele>2335</ele>
        <time>2021-08-19T09:09:44Z</time>
      </trkpt>
      <trkpt lat="44.23316" lon="6.69811">
        <ele>2335</ele>
        <time>2021-08-19T09:09:53Z</time>
      </trkpt>
      <trkpt lat="44.2331" lon="6.69802">
        <ele>2336</ele>
        <time>2021-08-19T09:10:03Z</time>
      </trkpt>
      <trkpt lat="44.23302" lon="6.69795">
        <ele>2336</ele>
        <time>2021-08-19T09:10:13Z</time>
      </trkpt>
      <trkpt lat="44.23294" lon="6.69789">
        <ele>2336</ele>
        <time>2021-08-19T09:10:23Z</time>
      </trkpt>
      <trkpt lat="44.23285" lon="6.69785">
        <ele>2336</ele>
        <time>2021-08-19T09:10:33Z</time>
      </trkpt>
      <trkpt lat="44.23276" lon="6.69783">
        <ele>2337</ele>
        <time>2021-08-19T09:10:43Z</time>
      </trkpt>
      <trkpt lat="44.23266" lon="6.69783">
        <ele>2338</ele>
        <time>2021-08-19T09:10:53Z</time>
      </trkpt>
      <trkpt lat="44.23258" lon="6.6979">
        <ele>2338</ele>
        <time>2021-08-19T09:11:04Z</time>
      </trkpt>
      <trkpt lat="44.2325" lon="6.69794">
        <ele>2339</ele>
        <time>2021-08-19T09:11:14Z</time>
      </trkpt>
      <trkpt lat="44.2324" lon="6.69796">
        <ele>2339</ele>
        <time>2021-08-19T09:11:24Z</time>
      </trkpt>
      <trkpt lat="44.2323" lon="6.69799">
        <ele>2341</ele>
        <time>2021-08-19T09:11:34Z</time>
      </trkpt>
      <trkpt lat="44.23222" lon="6.69806">
        <ele>2342</ele>
        <time>2021-08-19T09:11:44Z</time>
      </trkpt>
      <trkpt lat="44.23216" lon="6.69817">
        <ele>2342</ele>
        <time>2021-08-19T09:11:54Z</time>
      </trkpt>
      <trkpt lat="44.23206" lon="6.69819">
        <ele>2342</ele>
        <time>2021-08-19T09:12:04Z</time>
      </trkpt>
      <trkpt lat="44.23198" lon="6.69822">
        <ele>2342</ele>
        <time>2021-08-19T09:12:14Z</time>
      </trkpt>
      <trkpt lat="44.23189" lon="6.69824">
        <ele>2342</ele>
        <time>2021-08-19T09:12:24Z</time>
      </trkpt>
      <trkpt lat="44.23179" lon="6.69824">
        <ele>2343</ele>
        <time>2021-08-19T09:12:34Z</time>
      </trkpt>
      <trkpt lat="44.23169" lon="6.69823">
        <ele>2345</ele>
        <time>2021-08-19T09:12:44Z</time>
      </trkpt>
      <trkpt lat="44.23159" lon="6.69822">
        <ele>2346</ele>
        <time>2021-08-19T09:12:53Z</time>
      </trkpt>
      <trkpt lat="44.2315" lon="6.69822">
        <ele>2348</ele>
        <time>2021-08-19T09:13:02Z</time>
      </trkpt>
      <trkpt lat="44.23141" lon="6.6982">
        <ele>2350</ele>
        <time>2021-08-19T09:13:11Z</time>
      </trkpt>
      <trkpt lat="44.23133" lon="6.69818">
        <ele>2350</ele>
        <time>2021-08-19T09:13:20Z</time>
      </trkpt>
      <trkpt lat="44.23124" lon="6.69818">
        <ele>2350</ele>
        <time>2021-08-19T09:13:30Z</time>
      </trkpt>
      <trkpt lat="44.23117" lon="6.69817">
        <ele>2350</ele>
        <time>2021-08-19T09:13:40Z</time>
      </trkpt>
      <trkpt lat="44.23109" lon="6.6981">
        <ele>2350</ele>
        <time>2021-08-19T09:13:50Z</time>
      </trkpt>
      <trkpt lat="44.23103" lon="6.698">
        <ele>2350</ele>
        <time>2021-08-19T09:14:00Z</time>
      </trkpt>
      <trkpt lat="44.23096" lon="6.69793">
        <ele>2350</ele>
        <time>2021-08-19T09:14:10Z</time>
      </trkpt>
      <trkpt lat="44.23089" lon="6.69786">
        <ele>2350</ele>
        <time>2021-08-19T09:14:20Z</time>
      </trkpt>
      <trkpt lat="44.23081" lon="6.69778">
        <ele>2350</ele>
        <time>2021-08-19T09:14:30Z</time>
      </trkpt>
      <trkpt lat="44.23072" lon="6.69772">
        <ele>2350</ele>
        <time>2021-08-19T09:14:40Z</time>
      </trkpt>
      <trkpt lat="44.23064" lon="6.69767">
        <ele>2350</ele>
        <time>2021-08-19T09:14:50Z</time>
      </trkpt>
      <trkpt lat="44.2306" lon="6.69756">
        <ele>2349</ele>
        <time>2021-08-19T09:14:59Z</time>
      </trkpt>
      <trkpt lat="44.23055" lon="6.69745">
        <ele>2349</ele>
        <time>2021-08-19T09:15:09Z</time>
      </trkpt>
      <trkpt lat="44.23048" lon="6.69735">
        <ele>2349</ele>
        <time>2021-08-19T09:15:19Z</time>
      </trkpt>
      <trkpt lat="44.23042" lon="6.69726">
        <ele>2349</ele>
        <time>2021-08-19T09:15:29Z</time>
      </trkpt>
      <trkpt lat="44.2304" lon="6.69713">
        <ele>2349</ele>
        <time>2021-08-19T09:15:38Z</time>
      </trkpt>
      <trkpt lat="44.23034" lon="6.69704">
        <ele>2349</ele>
        <time>2021-08-19T09:15:47Z</time>
      </trkpt>
      <trkpt lat="44.23025" lon="6.69699">
        <ele>2349</ele>
        <time>2021-08-19T09:15:57Z</time>
      </trkpt>
      <trkpt lat="44.23015" lon="6.69697">
        <ele>2350</ele>
        <time>2021-08-19T09:16:07Z</time>
      </trkpt>
      <trkpt lat="44.23007" lon="6.6969">
        <ele>2351</ele>
        <time>2021-08-19T09:16:17Z</time>
      </trkpt>
      <trkpt lat="44.23003" lon="6.69679">
        <ele>2351</ele>
        <time>2021-08-19T09:16:27Z</time>
      </trkpt>
      <trkpt lat="44.22996" lon="6.69671">
        <ele>2351</ele>
        <time>2021-08-19T09:16:37Z</time>
      </trkpt>
      <trkpt lat="44.2299" lon="6.69664">
        <ele>2351</ele>
        <time>2021-08-19T09:16:47Z</time>
      </trkpt>
      <trkpt lat="44.22983" lon="6.69656">
        <ele>2351</ele>
        <time>2021-08-19T09:16:57Z</time>
      </trkpt>
      <trkpt lat="44.22977" lon="6.69648">
        <ele>2351</ele>
        <time>2021-08-19T09:17:07Z</time>
      </trkpt>
      <trkpt lat="44.22971" lon="6.69644">
        <ele>2351</ele>
        <time>2021-08-19T09:17:17Z</time>
      </trkpt>
      <trkpt lat="44.22964" lon="6.69653">
        <ele>2351</ele>
        <time>2021-08-19T09:17:27Z</time>
      </trkpt>
      <trkpt lat="44.22959" lon="6.69661">
        <ele>2352</ele>
        <time>2021-08-19T09:17:37Z</time>
      </trkpt>
      <trkpt lat="44.22953" lon="6.6967">
        <ele>2352</ele>
        <time>2021-08-19T09:17:47Z</time>
      </trkpt>
      <trkpt lat="44.22947" lon="6.69674">
        <ele>2353</ele>
        <time>2021-08-19T09:17:56Z</time>
      </trkpt>
      <trkpt lat="44.22939" lon="6.69675">
        <ele>2354</ele>
        <time>2021-08-19T09:18:06Z</time>
      </trkpt>
      <trkpt lat="44.22931" lon="6.69668">
        <ele>2355</ele>
        <time>2021-08-19T09:18:16Z</time>
      </trkpt>
      <trkpt lat="44.22924" lon="6.69667">
        <ele>2356</ele>
        <time>2021-08-19T09:18:26Z</time>
      </trkpt>
      <trkpt lat="44.22916" lon="6.69669">
        <ele>2358</ele>
        <time>2021-08-19T09:18:36Z</time>
      </trkpt>
      <trkpt lat="44.22908" lon="6.69671">
        <ele>2359</ele>
        <time>2021-08-19T09:18:46Z</time>
      </trkpt>
      <trkpt lat="44.22899" lon="6.69666">
        <ele>2360</ele>
        <time>2021-08-19T09:18:56Z</time>
      </trkpt>
      <trkpt lat="44.22891" lon="6.69662">
        <ele>2360</ele>
        <time>2021-08-19T09:19:06Z</time>
      </trkpt>
      <trkpt lat="44.22884" lon="6.69665">
        <ele>2361</ele>
        <time>2021-08-19T09:19:16Z</time>
      </trkpt>
      <trkpt lat="44.22875" lon="6.69665">
        <ele>2362</ele>
        <time>2021-08-19T09:19:26Z</time>
      </trkpt>
      <trkpt lat="44.22865" lon="6.69667">
        <ele>2364</ele>
        <time>2021-08-19T09:19:37Z</time>
      </trkpt>
      <trkpt lat="44.22858" lon="6.69669">
        <ele>2366</ele>
        <time>2021-08-19T09:19:47Z</time>
      </trkpt>
      <trkpt lat="44.22851" lon="6.69669">
        <ele>2367</ele>
        <time>2021-08-19T09:19:58Z</time>
      </trkpt>
      <trkpt lat="44.22844" lon="6.69665">
        <ele>2367</ele>
        <time>2021-08-19T09:20:08Z</time>
      </trkpt>
      <trkpt lat="44.22837" lon="6.6966">
        <ele>2367</ele>
        <time>2021-08-19T09:20:18Z</time>
      </trkpt>
      <trkpt lat="44.2283" lon="6.69656">
        <ele>2367</ele>
        <time>2021-08-19T09:20:28Z</time>
      </trkpt>
      <trkpt lat="44.22821" lon="6.69658">
        <ele>2367</ele>
        <time>2021-08-19T09:20:38Z</time>
      </trkpt>
      <trkpt lat="44.22811" lon="6.69659">
        <ele>2370</ele>
        <time>2021-08-19T09:20:48Z</time>
      </trkpt>
      <trkpt lat="44.22802" lon="6.69659">
        <ele>2371</ele>
        <time>2021-08-19T09:20:58Z</time>
      </trkpt>
      <trkpt lat="44.22792" lon="6.69661">
        <ele>2373</ele>
        <time>2021-08-19T09:21:09Z</time>
      </trkpt>
      <trkpt lat="44.22785" lon="6.69669">
        <ele>2374</ele>
        <time>2021-08-19T09:21:19Z</time>
      </trkpt>
      <trkpt lat="44.22779" lon="6.69678">
        <ele>2374</ele>
        <time>2021-08-19T09:21:29Z</time>
      </trkpt>
      <trkpt lat="44.22771" lon="6.69679">
        <ele>2375</ele>
        <time>2021-08-19T09:21:39Z</time>
      </trkpt>
      <trkpt lat="44.22766" lon="6.69682">
        <ele>2376</ele>
        <time>2021-08-19T09:22:07Z</time>
      </trkpt>
      <trkpt lat="44.22765" lon="6.69683">
        <ele>2376</ele>
        <time>2021-08-19T09:22:21Z</time>
      </trkpt>
      <trkpt lat="44.22761" lon="6.69684">
        <ele>2376</ele>
        <time>2021-08-19T09:22:32Z</time>
      </trkpt>
      <trkpt lat="44.22754" lon="6.69686">
        <ele>2376</ele>
        <time>2021-08-19T09:22:42Z</time>
      </trkpt>
      <trkpt lat="44.22746" lon="6.69687">
        <ele>2378</ele>
        <time>2021-08-19T09:22:52Z</time>
      </trkpt>
      <trkpt lat="44.22739" lon="6.69685">
        <ele>2379</ele>
        <time>2021-08-19T09:23:02Z</time>
      </trkpt>
      <trkpt lat="44.22735" lon="6.69681">
        <ele>2380</ele>
        <time>2021-08-19T09:23:12Z</time>
      </trkpt>
      <trkpt lat="44.22726" lon="6.69681">
        <ele>2382</ele>
        <time>2021-08-19T09:23:21Z</time>
      </trkpt>
      <trkpt lat="44.22718" lon="6.69682">
        <ele>2385</ele>
        <time>2021-08-19T09:23:31Z</time>
      </trkpt>
      <trkpt lat="44.22712" lon="6.69684">
        <ele>2386</ele>
        <time>2021-08-19T09:23:41Z</time>
      </trkpt>
      <trkpt lat="44.22705" lon="6.69685">
        <ele>2386</ele>
        <time>2021-08-19T09:23:51Z</time>
      </trkpt>
      <trkpt lat="44.22697" lon="6.69686">
        <ele>2386</ele>
        <time>2021-08-19T09:24:01Z</time>
      </trkpt>
      <trkpt lat="44.22691" lon="6.69687">
        <ele>2386</ele>
        <time>2021-08-19T09:24:11Z</time>
      </trkpt>
      <trkpt lat="44.22685" lon="6.69689">
        <ele>2386</ele>
        <time>2021-08-19T09:24:21Z</time>
      </trkpt>
      <trkpt lat="44.22679" lon="6.69689">
        <ele>2387</ele>
        <time>2021-08-19T09:24:30Z</time>
      </trkpt>
      <trkpt lat="44.22673" lon="6.6969">
        <ele>2387</ele>
        <time>2021-08-19T09:24:40Z</time>
      </trkpt>
      <trkpt lat="44.22665" lon="6.69691">
        <ele>2387</ele>
        <time>2021-08-19T09:24:50Z</time>
      </trkpt>
      <trkpt lat="44.2266" lon="6.69694">
        <ele>2388</ele>
        <time>2021-08-19T09:24:59Z</time>
      </trkpt>
      <trkpt lat="44.22652" lon="6.69695">
        <ele>2389</ele>
        <time>2021-08-19T09:25:09Z</time>
      </trkpt>
      <trkpt lat="44.22644" lon="6.69698">
        <ele>2390</ele>
        <time>2021-08-19T09:25:19Z</time>
      </trkpt>
      <trkpt lat="44.22637" lon="6.69699">
        <ele>2390</ele>
        <time>2021-08-19T09:25:29Z</time>
      </trkpt>
      <trkpt lat="44.2263" lon="6.69695">
        <ele>2391</ele>
        <time>2021-08-19T09:25:39Z</time>
      </trkpt>
      <trkpt lat="44.22623" lon="6.69689">
        <ele>2391</ele>
        <time>2021-08-19T09:25:49Z</time>
      </trkpt>
      <trkpt lat="44.22617" lon="6.69684">
        <ele>2391</ele>
        <time>2021-08-19T09:25:59Z</time>
      </trkpt>
      <trkpt lat="44.2261" lon="6.6968">
        <ele>2391</ele>
        <time>2021-08-19T09:26:08Z</time>
      </trkpt>
      <trkpt lat="44.22603" lon="6.69676">
        <ele>2392</ele>
        <time>2021-08-19T09:26:18Z</time>
      </trkpt>
      <trkpt lat="44.22596" lon="6.69671">
        <ele>2393</ele>
        <time>2021-08-19T09:26:28Z</time>
      </trkpt>
      <trkpt lat="44.22589" lon="6.69667">
        <ele>2394</ele>
        <time>2021-08-19T09:26:38Z</time>
      </trkpt>
      <trkpt lat="44.22582" lon="6.69662">
        <ele>2395</ele>
        <time>2021-08-19T09:26:48Z</time>
      </trkpt>
      <trkpt lat="44.22575" lon="6.69658">
        <ele>2397</ele>
        <time>2021-08-19T09:26:58Z</time>
      </trkpt>
      <trkpt lat="44.22568" lon="6.69652">
        <ele>2397</ele>
        <time>2021-08-19T09:27:08Z</time>
      </trkpt>
      <trkpt lat="44.2256" lon="6.69646">
        <ele>2397</ele>
        <time>2021-08-19T09:27:18Z</time>
      </trkpt>
      <trkpt lat="44.22555" lon="6.69642">
        <ele>2397</ele>
        <time>2021-08-19T09:27:27Z</time>
      </trkpt>
      <trkpt lat="44.22549" lon="6.69639">
        <ele>2399</ele>
        <time>2021-08-19T09:27:36Z</time>
      </trkpt>
      <trkpt lat="44.22541" lon="6.69636">
        <ele>2401</ele>
        <time>2021-08-19T09:27:46Z</time>
      </trkpt>
      <trkpt lat="44.22536" lon="6.69632">
        <ele>2403</ele>
        <time>2021-08-19T09:27:56Z</time>
      </trkpt>
      <trkpt lat="44.22528" lon="6.6963">
        <ele>2406</ele>
        <time>2021-08-19T09:28:06Z</time>
      </trkpt>
      <trkpt lat="44.22522" lon="6.69626">
        <ele>2406</ele>
        <time>2021-08-19T09:28:16Z</time>
      </trkpt>
      <trkpt lat="44.22515" lon="6.69621">
        <ele>2406</ele>
        <time>2021-08-19T09:28:26Z</time>
      </trkpt>
      <trkpt lat="44.22507" lon="6.69617">
        <ele>2406</ele>
        <time>2021-08-19T09:28:36Z</time>
      </trkpt>
      <trkpt lat="44.22501" lon="6.69615">
        <ele>2408</ele>
        <time>2021-08-19T09:28:46Z</time>
      </trkpt>
      <trkpt lat="44.22493" lon="6.69613">
        <ele>2408</ele>
        <time>2021-08-19T09:28:56Z</time>
      </trkpt>
      <trkpt lat="44.22488" lon="6.69611">
        <ele>2409</ele>
        <time>2021-08-19T09:29:07Z</time>
      </trkpt>
      <trkpt lat="44.22481" lon="6.69609">
        <ele>2409</ele>
        <time>2021-08-19T09:29:17Z</time>
      </trkpt>
      <trkpt lat="44.22474" lon="6.69607">
        <ele>2409</ele>
        <time>2021-08-19T09:29:27Z</time>
      </trkpt>
      <trkpt lat="44.22467" lon="6.69607">
        <ele>2410</ele>
        <time>2021-08-19T09:29:37Z</time>
      </trkpt>
      <trkpt lat="44.2246" lon="6.69608">
        <ele>2410</ele>
        <time>2021-08-19T09:29:47Z</time>
      </trkpt>
      <trkpt lat="44.22453" lon="6.69609">
        <ele>2412</ele>
        <time>2021-08-19T09:29:57Z</time>
      </trkpt>
      <trkpt lat="44.22446" lon="6.6961">
        <ele>2413</ele>
        <time>2021-08-19T09:30:07Z</time>
      </trkpt>
      <trkpt lat="44.22439" lon="6.69616">
        <ele>2415</ele>
        <time>2021-08-19T09:30:17Z</time>
      </trkpt>
      <trkpt lat="44.22434" lon="6.69622">
        <ele>2415</ele>
        <time>2021-08-19T09:30:26Z</time>
      </trkpt>
      <trkpt lat="44.22427" lon="6.69628">
        <ele>2415</ele>
        <time>2021-08-19T09:30:36Z</time>
      </trkpt>
      <trkpt lat="44.22422" lon="6.6963">
        <ele>2417</ele>
        <time>2021-08-19T09:30:48Z</time>
      </trkpt>
      <trkpt lat="44.22419" lon="6.69635">
        <ele>2417</ele>
        <time>2021-08-19T09:30:58Z</time>
      </trkpt>
      <trkpt lat="44.22414" lon="6.6964">
        <ele>2418</ele>
        <time>2021-08-19T09:31:08Z</time>
      </trkpt>
      <trkpt lat="44.22413" lon="6.6965">
        <ele>2421</ele>
        <time>2021-08-19T09:31:19Z</time>
      </trkpt>
      <trkpt lat="44.2241" lon="6.6966">
        <ele>2423</ele>
        <time>2021-08-19T09:31:29Z</time>
      </trkpt>
      <trkpt lat="44.22402" lon="6.69664">
        <ele>2424</ele>
        <time>2021-08-19T09:31:39Z</time>
      </trkpt>
      <trkpt lat="44.22394" lon="6.69668">
        <ele>2425</ele>
        <time>2021-08-19T09:31:49Z</time>
      </trkpt>
      <trkpt lat="44.22385" lon="6.69672">
        <ele>2425</ele>
        <time>2021-08-19T09:31:59Z</time>
      </trkpt>
      <trkpt lat="44.22383" lon="6.69683">
        <ele>2425</ele>
        <time>2021-08-19T09:32:08Z</time>
      </trkpt>
      <trkpt lat="44.2238" lon="6.69692">
        <ele>2425</ele>
        <time>2021-08-19T09:32:18Z</time>
      </trkpt>
      <trkpt lat="44.22373" lon="6.69698">
        <ele>2425</ele>
        <time>2021-08-19T09:32:28Z</time>
      </trkpt>
      <trkpt lat="44.22365" lon="6.69697">
        <ele>2426</ele>
        <time>2021-08-19T09:32:38Z</time>
      </trkpt>
      <trkpt lat="44.22358" lon="6.69701">
        <ele>2426</ele>
        <time>2021-08-19T09:32:49Z</time>
      </trkpt>
      <trkpt lat="44.22354" lon="6.69709">
        <ele>2427</ele>
        <time>2021-08-19T09:32:59Z</time>
      </trkpt>
      <trkpt lat="44.2235" lon="6.69718">
        <ele>2429</ele>
        <time>2021-08-19T09:33:09Z</time>
      </trkpt>
      <trkpt lat="44.22347" lon="6.69725">
        <ele>2429</ele>
        <time>2021-08-19T09:33:18Z</time>
      </trkpt>
      <trkpt lat="44.22343" lon="6.69732">
        <ele>2430</ele>
        <time>2021-08-19T09:33:27Z</time>
      </trkpt>
      <trkpt lat="44.2234" lon="6.6974">
        <ele>2432</ele>
        <time>2021-08-19T09:33:37Z</time>
      </trkpt>
      <trkpt lat="44.22335" lon="6.69749">
        <ele>2432</ele>
        <time>2021-08-19T09:33:47Z</time>
      </trkpt>
      <trkpt lat="44.22332" lon="6.69758">
        <ele>2433</ele>
        <time>2021-08-19T09:33:57Z</time>
      </trkpt>
      <trkpt lat="44.22326" lon="6.69765">
        <ele>2434</ele>
        <time>2021-08-19T09:34:07Z</time>
      </trkpt>
      <trkpt lat="44.2232" lon="6.69767">
        <ele>2434</ele>
        <time>2021-08-19T09:34:16Z</time>
      </trkpt>
      <trkpt lat="44.22314" lon="6.69771">
        <ele>2436</ele>
        <time>2021-08-19T09:34:33Z</time>
      </trkpt>
      <trkpt lat="44.22308" lon="6.69779">
        <ele>2436</ele>
        <time>2021-08-19T09:34:43Z</time>
      </trkpt>
      <trkpt lat="44.22304" lon="6.69787">
        <ele>2437</ele>
        <time>2021-08-19T09:34:53Z</time>
      </trkpt>
      <trkpt lat="44.223" lon="6.69796">
        <ele>2438</ele>
        <time>2021-08-19T09:35:03Z</time>
      </trkpt>
      <trkpt lat="44.22296" lon="6.69805">
        <ele>2441</ele>
        <time>2021-08-19T09:35:13Z</time>
      </trkpt>
      <trkpt lat="44.22292" lon="6.69814">
        <ele>2442</ele>
        <time>2021-08-19T09:35:23Z</time>
      </trkpt>
      <trkpt lat="44.2229" lon="6.69821">
        <ele>2442</ele>
        <time>2021-08-19T09:35:33Z</time>
      </trkpt>
      <trkpt lat="44.22287" lon="6.6983">
        <ele>2444</ele>
        <time>2021-08-19T09:35:43Z</time>
      </trkpt>
      <trkpt lat="44.22284" lon="6.69841">
        <ele>2445</ele>
        <time>2021-08-19T09:35:53Z</time>
      </trkpt>
      <trkpt lat="44.22282" lon="6.69845">
        <ele>2445</ele>
        <time>2021-08-19T09:36:03Z</time>
      </trkpt>
      <trkpt lat="44.22276" lon="6.69853">
        <ele>2445</ele>
        <time>2021-08-19T09:36:13Z</time>
      </trkpt>
      <trkpt lat="44.22271" lon="6.69862">
        <ele>2446</ele>
        <time>2021-08-19T09:36:23Z</time>
      </trkpt>
      <trkpt lat="44.22266" lon="6.69869">
        <ele>2447</ele>
        <time>2021-08-19T09:36:33Z</time>
      </trkpt>
      <trkpt lat="44.22261" lon="6.69876">
        <ele>2447</ele>
        <time>2021-08-19T09:36:42Z</time>
      </trkpt>
      <trkpt lat="44.2226" lon="6.69876">
        <ele>2448</ele>
        <time>2021-08-19T09:36:54Z</time>
      </trkpt>
      <trkpt lat="44.22258" lon="6.69879">
        <ele>2448</ele>
        <time>2021-08-19T09:37:05Z</time>
      </trkpt>
      <trkpt lat="44.22256" lon="6.69877">
        <ele>2449</ele>
        <time>2021-08-19T09:37:26Z</time>
      </trkpt>
      <trkpt lat="44.22256" lon="6.69879">
        <ele>2449</ele>
        <time>2021-08-19T09:37:47Z</time>
      </trkpt>
      <trkpt lat="44.2225" lon="6.69888">
        <ele>2449</ele>
        <time>2021-08-19T09:37:58Z</time>
      </trkpt>
      <trkpt lat="44.22245" lon="6.69894">
        <ele>2451</ele>
        <time>2021-08-19T09:38:16Z</time>
      </trkpt>
      <trkpt lat="44.22243" lon="6.69903">
        <ele>2451</ele>
        <time>2021-08-19T09:38:31Z</time>
      </trkpt>
      <trkpt lat="44.22239" lon="6.69912">
        <ele>2451</ele>
        <time>2021-08-19T09:38:41Z</time>
      </trkpt>
      <trkpt lat="44.22234" lon="6.69919">
        <ele>2451</ele>
        <time>2021-08-19T09:38:50Z</time>
      </trkpt>
      <trkpt lat="44.22234" lon="6.6993">
        <ele>2452</ele>
        <time>2021-08-19T09:39:00Z</time>
      </trkpt>
      <trkpt lat="44.22232" lon="6.69939">
        <ele>2453</ele>
        <time>2021-08-19T09:39:10Z</time>
      </trkpt>
      <trkpt lat="44.22228" lon="6.69948">
        <ele>2454</ele>
        <time>2021-08-19T09:39:20Z</time>
      </trkpt>
      <trkpt lat="44.22224" lon="6.69952">
        <ele>2455</ele>
        <time>2021-08-19T09:39:30Z</time>
      </trkpt>
      <trkpt lat="44.22218" lon="6.69959">
        <ele>2456</ele>
        <time>2021-08-19T09:39:40Z</time>
      </trkpt>
      <trkpt lat="44.22215" lon="6.69967">
        <ele>2456</ele>
        <time>2021-08-19T09:39:49Z</time>
      </trkpt>
      <trkpt lat="44.22211" lon="6.69974">
        <ele>2458</ele>
        <time>2021-08-19T09:39:59Z</time>
      </trkpt>
      <trkpt lat="44.2221" lon="6.69974">
        <ele>2458</ele>
        <time>2021-08-19T09:40:16Z</time>
      </trkpt>
      <trkpt lat="44.22209" lon="6.69974">
        <ele>2458</ele>
        <time>2021-08-19T09:40:28Z</time>
      </trkpt>
      <trkpt lat="44.22206" lon="6.69974">
        <ele>2458</ele>
        <time>2021-08-19T09:40:43Z</time>
      </trkpt>
      <trkpt lat="44.22205" lon="6.69974">
        <ele>2459</ele>
        <time>2021-08-19T09:40:53Z</time>
      </trkpt>
      <trkpt lat="44.222" lon="6.69973">
        <ele>2460</ele>
        <time>2021-08-19T09:41:03Z</time>
      </trkpt>
      <trkpt lat="44.22192" lon="6.69974">
        <ele>2463</ele>
        <time>2021-08-19T09:41:13Z</time>
      </trkpt>
      <trkpt lat="44.22184" lon="6.69973">
        <ele>2464</ele>
        <time>2021-08-19T09:41:23Z</time>
      </trkpt>
      <trkpt lat="44.22176" lon="6.69966">
        <ele>2465</ele>
        <time>2021-08-19T09:41:33Z</time>
      </trkpt>
      <trkpt lat="44.22171" lon="6.69962">
        <ele>2465</ele>
        <time>2021-08-19T09:41:43Z</time>
      </trkpt>
      <trkpt lat="44.22164" lon="6.69962">
        <ele>2465</ele>
        <time>2021-08-19T09:41:53Z</time>
      </trkpt>
      <trkpt lat="44.22157" lon="6.69958">
        <ele>2467</ele>
        <time>2021-08-19T09:42:03Z</time>
      </trkpt>
      <trkpt lat="44.2215" lon="6.69953">
        <ele>2467</ele>
        <time>2021-08-19T09:42:13Z</time>
      </trkpt>
      <trkpt lat="44.22144" lon="6.6995">
        <ele>2468</ele>
        <time>2021-08-19T09:42:23Z</time>
      </trkpt>
      <trkpt lat="44.22139" lon="6.69944">
        <ele>2468</ele>
        <time>2021-08-19T09:42:32Z</time>
      </trkpt>
      <trkpt lat="44.22136" lon="6.69938">
        <ele>2468</ele>
        <time>2021-08-19T09:42:41Z</time>
      </trkpt>
      <trkpt lat="44.22129" lon="6.69932">
        <ele>2468</ele>
        <time>2021-08-19T09:42:51Z</time>
      </trkpt>
      <trkpt lat="44.22123" lon="6.69928">
        <ele>2469</ele>
        <time>2021-08-19T09:43:01Z</time>
      </trkpt>
      <trkpt lat="44.22122" lon="6.69924">
        <ele>2470</ele>
        <time>2021-08-19T09:43:10Z</time>
      </trkpt>
      <trkpt lat="44.22127" lon="6.69922">
        <ele>2472</ele>
        <time>2021-08-19T09:43:20Z</time>
      </trkpt>
      <trkpt lat="44.22132" lon="6.69916">
        <ele>2473</ele>
        <time>2021-08-19T09:43:29Z</time>
      </trkpt>
      <trkpt lat="44.22137" lon="6.69909">
        <ele>2474</ele>
        <time>2021-08-19T09:43:39Z</time>
      </trkpt>
      <trkpt lat="44.22141" lon="6.69905">
        <ele>2477</ele>
        <time>2021-08-19T09:43:49Z</time>
      </trkpt>
      <trkpt lat="44.22146" lon="6.69897">
        <ele>2479</ele>
        <time>2021-08-19T09:43:59Z</time>
      </trkpt>
      <trkpt lat="44.22151" lon="6.69889">
        <ele>2481</ele>
        <time>2021-08-19T09:44:09Z</time>
      </trkpt>
      <trkpt lat="44.22155" lon="6.69881">
        <ele>2482</ele>
        <time>2021-08-19T09:44:19Z</time>
      </trkpt>
      <trkpt lat="44.22158" lon="6.69873">
        <ele>2483</ele>
        <time>2021-08-19T09:44:29Z</time>
      </trkpt>
      <trkpt lat="44.22155" lon="6.69876">
        <ele>2484</ele>
        <time>2021-08-19T09:44:38Z</time>
      </trkpt>
      <trkpt lat="44.22152" lon="6.69878">
        <ele>2485</ele>
        <time>2021-08-19T09:44:48Z</time>
      </trkpt>
      <trkpt lat="44.22151" lon="6.69878">
        <ele>2488</ele>
        <time>2021-08-19T09:45:02Z</time>
      </trkpt>
      <trkpt lat="44.2215" lon="6.69878">
        <ele>2488</ele>
        <time>2021-08-19T09:45:26Z</time>
      </trkpt>
      <trkpt lat="44.22142" lon="6.6988">
        <ele>2488</ele>
        <time>2021-08-19T09:45:36Z</time>
      </trkpt>
      <trkpt lat="44.22135" lon="6.69884">
        <ele>2490</ele>
        <time>2021-08-19T09:45:46Z</time>
      </trkpt>
      <trkpt lat="44.22128" lon="6.69886">
        <ele>2491</ele>
        <time>2021-08-19T09:45:56Z</time>
      </trkpt>
      <trkpt lat="44.22122" lon="6.69884">
        <ele>2493</ele>
        <time>2021-08-19T09:46:05Z</time>
      </trkpt>
      <trkpt lat="44.22117" lon="6.69883">
        <ele>2493</ele>
        <time>2021-08-19T09:46:14Z</time>
      </trkpt>
      <trkpt lat="44.2211" lon="6.69883">
        <ele>2494</ele>
        <time>2021-08-19T09:46:24Z</time>
      </trkpt>
      <trkpt lat="44.22104" lon="6.69884">
        <ele>2494</ele>
        <time>2021-08-19T09:46:34Z</time>
      </trkpt>
      <trkpt lat="44.22098" lon="6.69885">
        <ele>2495</ele>
        <time>2021-08-19T09:46:43Z</time>
      </trkpt>
      <trkpt lat="44.2209" lon="6.69886">
        <ele>2496</ele>
        <time>2021-08-19T09:46:53Z</time>
      </trkpt>
      <trkpt lat="44.22082" lon="6.69887">
        <ele>2498</ele>
        <time>2021-08-19T09:47:03Z</time>
      </trkpt>
      <trkpt lat="44.22075" lon="6.69889">
        <ele>2500</ele>
        <time>2021-08-19T09:47:13Z</time>
      </trkpt>
      <trkpt lat="44.22067" lon="6.69892">
        <ele>2501</ele>
        <time>2021-08-19T09:47:23Z</time>
      </trkpt>
      <trkpt lat="44.2206" lon="6.69895">
        <ele>2502</ele>
        <time>2021-08-19T09:47:33Z</time>
      </trkpt>
      <trkpt lat="44.22052" lon="6.69898">
        <ele>2503</ele>
        <time>2021-08-19T09:47:43Z</time>
      </trkpt>
      <trkpt lat="44.22045" lon="6.69902">
        <ele>2504</ele>
        <time>2021-08-19T09:47:53Z</time>
      </trkpt>
      <trkpt lat="44.22038" lon="6.69906">
        <ele>2506</ele>
        <time>2021-08-19T09:48:03Z</time>
      </trkpt>
      <trkpt lat="44.22031" lon="6.69909">
        <ele>2507</ele>
        <time>2021-08-19T09:48:13Z</time>
      </trkpt>
      <trkpt lat="44.22025" lon="6.69913">
        <ele>2509</ele>
        <time>2021-08-19T09:48:23Z</time>
      </trkpt>
      <trkpt lat="44.22018" lon="6.69918">
        <ele>2510</ele>
        <time>2021-08-19T09:48:33Z</time>
      </trkpt>
      <trkpt lat="44.22014" lon="6.69922">
        <ele>2512</ele>
        <time>2021-08-19T09:48:42Z</time>
      </trkpt>
      <trkpt lat="44.22009" lon="6.69927">
        <ele>2512</ele>
        <time>2021-08-19T09:48:53Z</time>
      </trkpt>
      <trkpt lat="44.22005" lon="6.69933">
        <ele>2512</ele>
        <time>2021-08-19T09:49:02Z</time>
      </trkpt>
      <trkpt lat="44.22002" lon="6.69938">
        <ele>2512</ele>
        <time>2021-08-19T09:49:11Z</time>
      </trkpt>
      <trkpt lat="44.22001" lon="6.69939">
        <ele>2512</ele>
        <time>2021-08-19T09:49:21Z</time>
      </trkpt>
      <trkpt lat="44.21999" lon="6.69939">
        <ele>2512</ele>
        <time>2021-08-19T09:49:32Z</time>
      </trkpt>
      <trkpt lat="44.22" lon="6.69941">
        <ele>2512</ele>
        <time>2021-08-19T09:49:54Z</time>
      </trkpt>
      <trkpt lat="44.21999" lon="6.69944">
        <ele>2512</ele>
        <time>2021-08-19T09:50:23Z</time>
      </trkpt>
      <trkpt lat="44.21995" lon="6.69951">
        <ele>2512</ele>
        <time>2021-08-19T09:50:33Z</time>
      </trkpt>
      <trkpt lat="44.21992" lon="6.69962">
        <ele>2512</ele>
        <time>2021-08-19T09:50:42Z</time>
      </trkpt>
      <trkpt lat="44.2199" lon="6.69974">
        <ele>2512</ele>
        <time>2021-08-19T09:50:51Z</time>
      </trkpt>
      <trkpt lat="44.21988" lon="6.69985">
        <ele>2512</ele>
        <time>2021-08-19T09:51:00Z</time>
      </trkpt>
      <trkpt lat="44.21986" lon="6.69996">
        <ele>2512</ele>
        <time>2021-08-19T09:51:09Z</time>
      </trkpt>
      <trkpt lat="44.21986" lon="6.70007">
        <ele>2512</ele>
        <time>2021-08-19T09:51:19Z</time>
      </trkpt>
      <trkpt lat="44.21984" lon="6.70018">
        <ele>2512</ele>
        <time>2021-08-19T09:51:29Z</time>
      </trkpt>
      <trkpt lat="44.21983" lon="6.70029">
        <ele>2512</ele>
        <time>2021-08-19T09:51:39Z</time>
      </trkpt>
      <trkpt lat="44.2198" lon="6.70036">
        <ele>2515</ele>
        <time>2021-08-19T09:51:49Z</time>
      </trkpt>
      <trkpt lat="44.21978" lon="6.70041">
        <ele>2516</ele>
        <time>2021-08-19T09:51:58Z</time>
      </trkpt>
      <trkpt lat="44.21976" lon="6.70048">
        <ele>2518</ele>
        <time>2021-08-19T09:52:07Z</time>
      </trkpt>
      <trkpt lat="44.21976" lon="6.70059">
        <ele>2518</ele>
        <time>2021-08-19T09:52:17Z</time>
      </trkpt>
      <trkpt lat="44.21976" lon="6.70071">
        <ele>2518</ele>
        <time>2021-08-19T09:52:27Z</time>
      </trkpt>
      <trkpt lat="44.21976" lon="6.70081">
        <ele>2519</ele>
        <time>2021-08-19T09:52:37Z</time>
      </trkpt>
      <trkpt lat="44.21978" lon="6.70089">
        <ele>2520</ele>
        <time>2021-08-19T09:52:46Z</time>
      </trkpt>
      <trkpt lat="44.21979" lon="6.70098">
        <ele>2522</ele>
        <time>2021-08-19T09:52:56Z</time>
      </trkpt>
      <trkpt lat="44.2198" lon="6.70106">
        <ele>2524</ele>
        <time>2021-08-19T09:53:06Z</time>
      </trkpt>
      <trkpt lat="44.21981" lon="6.70113">
        <ele>2527</ele>
        <time>2021-08-19T09:53:18Z</time>
      </trkpt>
      <trkpt lat="44.21983" lon="6.70123">
        <ele>2527</ele>
        <time>2021-08-19T09:53:28Z</time>
      </trkpt>
      <trkpt lat="44.21981" lon="6.7012">
        <ele>2531</ele>
        <time>2021-08-19T09:53:37Z</time>
      </trkpt>
      <trkpt lat="44.21977" lon="6.70112">
        <ele>2535</ele>
        <time>2021-08-19T09:53:48Z</time>
      </trkpt>
      <trkpt lat="44.21973" lon="6.70107">
        <ele>2537</ele>
        <time>2021-08-19T09:53:57Z</time>
      </trkpt>
      <trkpt lat="44.21969" lon="6.701">
        <ele>2539</ele>
        <time>2021-08-19T09:54:07Z</time>
      </trkpt>
      <trkpt lat="44.21965" lon="6.70093">
        <ele>2540</ele>
        <time>2021-08-19T09:54:16Z</time>
      </trkpt>
      <trkpt lat="44.21964" lon="6.70086">
        <ele>2541</ele>
        <time>2021-08-19T09:54:25Z</time>
      </trkpt>
      <trkpt lat="44.21961" lon="6.7008">
        <ele>2541</ele>
        <time>2021-08-19T09:54:34Z</time>
      </trkpt>
      <trkpt lat="44.2196" lon="6.70088">
        <ele>2541</ele>
        <time>2021-08-19T09:54:45Z</time>
      </trkpt>
      <trkpt lat="44.21956" lon="6.70094">
        <ele>2542</ele>
        <time>2021-08-19T09:54:55Z</time>
      </trkpt>
      <trkpt lat="44.21953" lon="6.70102">
        <ele>2544</ele>
        <time>2021-08-19T09:55:13Z</time>
      </trkpt>
      <trkpt lat="44.21952" lon="6.7011">
        <ele>2545</ele>
        <time>2021-08-19T09:55:23Z</time>
      </trkpt>
      <trkpt lat="44.21951" lon="6.70119">
        <ele>2546</ele>
        <time>2021-08-19T09:55:33Z</time>
      </trkpt>
      <trkpt lat="44.21951" lon="6.70128">
        <ele>2547</ele>
        <time>2021-08-19T09:55:43Z</time>
      </trkpt>
      <trkpt lat="44.21947" lon="6.70133">
        <ele>2547</ele>
        <time>2021-08-19T09:55:54Z</time>
      </trkpt>
      <trkpt lat="44.21944" lon="6.70137">
        <ele>2547</ele>
        <time>2021-08-19T09:56:03Z</time>
      </trkpt>
      <trkpt lat="44.21942" lon="6.7014">
        <ele>2548</ele>
        <time>2021-08-19T09:56:18Z</time>
      </trkpt>
      <trkpt lat="44.21939" lon="6.70139">
        <ele>2549</ele>
        <time>2021-08-19T09:56:30Z</time>
      </trkpt>
      <trkpt lat="44.21938" lon="6.7014">
        <ele>2549</ele>
        <time>2021-08-19T09:56:41Z</time>
      </trkpt>
      <trkpt lat="44.21938" lon="6.70138">
        <ele>2549</ele>
        <time>2021-08-19T09:56:54Z</time>
      </trkpt>
      <trkpt lat="44.21939" lon="6.70137">
        <ele>2549</ele>
        <time>2021-08-19T09:57:25Z</time>
      </trkpt>
      <trkpt lat="44.2194" lon="6.70139">
        <ele>2549</ele>
        <time>2021-08-19T09:59:25Z</time>
      </trkpt>
      <trkpt lat="44.21941" lon="6.7014">
        <ele>2549</ele>
        <time>2021-08-19T09:59:34Z</time>
      </trkpt>
      <trkpt lat="44.21942" lon="6.70141">
        <ele>2545</ele>
        <time>2021-08-19T09:59:48Z</time>
      </trkpt>
      <trkpt lat="44.21943" lon="6.7014">
        <ele>2545</ele>
        <time>2021-08-19T10:00:01Z</time>
      </trkpt>
      <trkpt lat="44.21942" lon="6.70137">
        <ele>2545</ele>
        <time>2021-08-19T10:00:13Z</time>
      </trkpt>
      <trkpt lat="44.21941" lon="6.70138">
        <ele>2545</ele>
        <time>2021-08-19T10:00:38Z</time>
      </trkpt>
      <trkpt lat="44.21942" lon="6.70138">
        <ele>2545</ele>
        <time>2021-08-19T10:01:43Z</time>
      </trkpt>
      <trkpt lat="44.21943" lon="6.70139">
        <ele>2545</ele>
        <time>2021-08-19T10:02:01Z</time>
      </trkpt>
      <trkpt lat="44.21944" lon="6.70139">
        <ele>2545</ele>
        <time>2021-08-19T10:02:11Z</time>
      </trkpt>
      <trkpt lat="44.21945" lon="6.7014">
        <ele>2545</ele>
        <time>2021-08-19T10:03:33Z</time>
      </trkpt>
      <trkpt lat="44.21945" lon="6.70141">
        <ele>2545</ele>
        <time>2021-08-19T10:04:15Z</time>
      </trkpt>
      <trkpt lat="44.21944" lon="6.70141">
        <ele>2545</ele>
        <time>2021-08-19T10:04:26Z</time>
      </trkpt>
      <trkpt lat="44.21941" lon="6.70141">
        <ele>2538</ele>
        <time>2021-08-19T10:04:42Z</time>
      </trkpt>
      <trkpt lat="44.2194" lon="6.7014">
        <ele>2537</ele>
        <time>2021-08-19T10:05:05Z</time>
      </trkpt>
      <trkpt lat="44.21941" lon="6.70139">
        <ele>2537</ele>
        <time>2021-08-19T10:05:14Z</time>
      </trkpt>
      <trkpt lat="44.21943" lon="6.70139">
        <ele>2538</ele>
        <time>2021-08-19T10:05:23Z</time>
      </trkpt>
      <trkpt lat="44.21943" lon="6.70137">
        <ele>2541</ele>
        <time>2021-08-19T10:06:03Z</time>
      </trkpt>
      <trkpt lat="44.21941" lon="6.70136">
        <ele>2541</ele>
        <time>2021-08-19T10:06:28Z</time>
      </trkpt>
      <trkpt lat="44.2194" lon="6.70139">
        <ele>2541</ele>
        <time>2021-08-19T10:06:42Z</time>
      </trkpt>
      <trkpt lat="44.21939" lon="6.70139">
        <ele>2541</ele>
        <time>2021-08-19T10:06:59Z</time>
      </trkpt>
      <trkpt lat="44.21937" lon="6.70139">
        <ele>2541</ele>
        <time>2021-08-19T10:07:25Z</time>
      </trkpt>
      <trkpt lat="44.2194" lon="6.70136">
        <ele>2541</ele>
        <time>2021-08-19T10:07:35Z</time>
      </trkpt>
      <trkpt lat="44.21945" lon="6.70134">
        <ele>2542</ele>
        <time>2021-08-19T10:07:47Z</time>
      </trkpt>
      <trkpt lat="44.21946" lon="6.70134">
        <ele>2545</ele>
        <time>2021-08-19T10:07:57Z</time>
      </trkpt>
      <trkpt lat="44.21944" lon="6.70134">
        <ele>2545</ele>
        <time>2021-08-19T10:08:07Z</time>
      </trkpt>
      <trkpt lat="44.21941" lon="6.70136">
        <ele>2545</ele>
        <time>2021-08-19T10:08:32Z</time>
      </trkpt>
      <trkpt lat="44.21936" lon="6.70138">
        <ele>2543</ele>
        <time>2021-08-19T10:08:41Z</time>
      </trkpt>
      <trkpt lat="44.21938" lon="6.70137">
        <ele>2544</ele>
        <time>2021-08-19T10:09:30Z</time>
      </trkpt>
      <trkpt lat="44.21937" lon="6.70139">
        <ele>2540</ele>
        <time>2021-08-19T10:11:23Z</time>
      </trkpt>
      <trkpt lat="44.21938" lon="6.70138">
        <ele>2540</ele>
        <time>2021-08-19T10:11:46Z</time>
      </trkpt>
      <trkpt lat="44.21939" lon="6.70138">
        <ele>2540</ele>
        <time>2021-08-19T10:11:55Z</time>
      </trkpt>
      <trkpt lat="44.21941" lon="6.70137">
        <ele>2540</ele>
        <time>2021-08-19T10:12:05Z</time>
      </trkpt>
      <trkpt lat="44.21943" lon="6.70137">
        <ele>2540</ele>
        <time>2021-08-19T10:13:16Z</time>
      </trkpt>
      <trkpt lat="44.21943" lon="6.70139">
        <ele>2540</ele>
        <time>2021-08-19T10:13:26Z</time>
      </trkpt>
      <trkpt lat="44.21944" lon="6.7014">
        <ele>2540</ele>
        <time>2021-08-19T10:13:35Z</time>
      </trkpt>
      <trkpt lat="44.2195" lon="6.70143">
        <ele>2540</ele>
        <time>2021-08-19T10:13:45Z</time>
      </trkpt>
      <trkpt lat="44.21949" lon="6.70136">
        <ele>2540</ele>
        <time>2021-08-19T10:13:55Z</time>
      </trkpt>
      <trkpt lat="44.21949" lon="6.70124">
        <ele>2540</ele>
        <time>2021-08-19T10:14:04Z</time>
      </trkpt>
      <trkpt lat="44.2195" lon="6.70112">
        <ele>2540</ele>
        <time>2021-08-19T10:14:14Z</time>
      </trkpt>
      <trkpt lat="44.21951" lon="6.70103">
        <ele>2540</ele>
        <time>2021-08-19T10:14:23Z</time>
      </trkpt>
      <trkpt lat="44.21956" lon="6.70093">
        <ele>2540</ele>
        <time>2021-08-19T10:14:33Z</time>
      </trkpt>
      <trkpt lat="44.21959" lon="6.70082">
        <ele>2539</ele>
        <time>2021-08-19T10:14:43Z</time>
      </trkpt>
      <trkpt lat="44.21962" lon="6.70086">
        <ele>2538</ele>
        <time>2021-08-19T10:14:53Z</time>
      </trkpt>
      <trkpt lat="44.21963" lon="6.70089">
        <ele>2538</ele>
        <time>2021-08-19T10:15:17Z</time>
      </trkpt>
      <trkpt lat="44.21964" lon="6.70092">
        <ele>2535</ele>
        <time>2021-08-19T10:15:52Z</time>
      </trkpt>
      <trkpt lat="44.21969" lon="6.70102">
        <ele>2534</ele>
        <time>2021-08-19T10:16:02Z</time>
      </trkpt>
      <trkpt lat="44.21976" lon="6.7011">
        <ele>2532</ele>
        <time>2021-08-19T10:16:12Z</time>
      </trkpt>
      <trkpt lat="44.21982" lon="6.70119">
        <ele>2530</ele>
        <time>2021-08-19T10:16:22Z</time>
      </trkpt>
      <trkpt lat="44.21985" lon="6.70122">
        <ele>2529</ele>
        <time>2021-08-19T10:16:34Z</time>
      </trkpt>
      <trkpt lat="44.21985" lon="6.70121">
        <ele>2529</ele>
        <time>2021-08-19T10:16:45Z</time>
      </trkpt>
      <trkpt lat="44.21982" lon="6.70111">
        <ele>2529</ele>
        <time>2021-08-19T10:16:54Z</time>
      </trkpt>
      <trkpt lat="44.2198" lon="6.70103">
        <ele>2529</ele>
        <time>2021-08-19T10:17:04Z</time>
      </trkpt>
      <trkpt lat="44.21981" lon="6.70091">
        <ele>2529</ele>
        <time>2021-08-19T10:17:14Z</time>
      </trkpt>
      <trkpt lat="44.21979" lon="6.70082">
        <ele>2528</ele>
        <time>2021-08-19T10:17:25Z</time>
      </trkpt>
      <trkpt lat="44.21978" lon="6.70071">
        <ele>2527</ele>
        <time>2021-08-19T10:17:34Z</time>
      </trkpt>
      <trkpt lat="44.21976" lon="6.70058">
        <ele>2526</ele>
        <time>2021-08-19T10:17:43Z</time>
      </trkpt>
      <trkpt lat="44.21974" lon="6.70046">
        <ele>2525</ele>
        <time>2021-08-19T10:17:53Z</time>
      </trkpt>
      <trkpt lat="44.21977" lon="6.70041">
        <ele>2524</ele>
        <time>2021-08-19T10:18:03Z</time>
      </trkpt>
      <trkpt lat="44.21982" lon="6.70033">
        <ele>2522</ele>
        <time>2021-08-19T10:18:12Z</time>
      </trkpt>
      <trkpt lat="44.21986" lon="6.70021">
        <ele>2521</ele>
        <time>2021-08-19T10:18:22Z</time>
      </trkpt>
      <trkpt lat="44.21986" lon="6.70008">
        <ele>2520</ele>
        <time>2021-08-19T10:18:31Z</time>
      </trkpt>
      <trkpt lat="44.21986" lon="6.70002">
        <ele>2519</ele>
        <time>2021-08-19T10:18:46Z</time>
      </trkpt>
      <trkpt lat="44.21987" lon="6.69988">
        <ele>2518</ele>
        <time>2021-08-19T10:18:56Z</time>
      </trkpt>
      <trkpt lat="44.21988" lon="6.69975">
        <ele>2516</ele>
        <time>2021-08-19T10:19:05Z</time>
      </trkpt>
      <trkpt lat="44.2199" lon="6.69963">
        <ele>2515</ele>
        <time>2021-08-19T10:19:14Z</time>
      </trkpt>
      <trkpt lat="44.21995" lon="6.69949">
        <ele>2514</ele>
        <time>2021-08-19T10:19:24Z</time>
      </trkpt>
      <trkpt lat="44.22" lon="6.69941">
        <ele>2513</ele>
        <time>2021-08-19T10:19:33Z</time>
      </trkpt>
      <trkpt lat="44.22007" lon="6.6993">
        <ele>2512</ele>
        <time>2021-08-19T10:19:43Z</time>
      </trkpt>
      <trkpt lat="44.22013" lon="6.69921">
        <ele>2510</ele>
        <time>2021-08-19T10:19:53Z</time>
      </trkpt>
      <trkpt lat="44.22021" lon="6.69913">
        <ele>2507</ele>
        <time>2021-08-19T10:20:03Z</time>
      </trkpt>
      <trkpt lat="44.22029" lon="6.69907">
        <ele>2505</ele>
        <time>2021-08-19T10:20:13Z</time>
      </trkpt>
      <trkpt lat="44.22039" lon="6.69903">
        <ele>2503</ele>
        <time>2021-08-19T10:20:23Z</time>
      </trkpt>
      <trkpt lat="44.22048" lon="6.69898">
        <ele>2502</ele>
        <time>2021-08-19T10:20:33Z</time>
      </trkpt>
      <trkpt lat="44.22057" lon="6.69893">
        <ele>2500</ele>
        <time>2021-08-19T10:20:43Z</time>
      </trkpt>
      <trkpt lat="44.22067" lon="6.6989">
        <ele>2498</ele>
        <time>2021-08-19T10:20:53Z</time>
      </trkpt>
      <trkpt lat="44.22077" lon="6.69886">
        <ele>2497</ele>
        <time>2021-08-19T10:21:03Z</time>
      </trkpt>
      <trkpt lat="44.22087" lon="6.69885">
        <ele>2495</ele>
        <time>2021-08-19T10:21:13Z</time>
      </trkpt>
      <trkpt lat="44.22097" lon="6.69882">
        <ele>2494</ele>
        <time>2021-08-19T10:21:23Z</time>
      </trkpt>
      <trkpt lat="44.22102" lon="6.69881">
        <ele>2494</ele>
        <time>2021-08-19T10:21:34Z</time>
      </trkpt>
      <trkpt lat="44.22111" lon="6.6988">
        <ele>2494</ele>
        <time>2021-08-19T10:21:44Z</time>
      </trkpt>
      <trkpt lat="44.2212" lon="6.69881">
        <ele>2491</ele>
        <time>2021-08-19T10:21:54Z</time>
      </trkpt>
      <trkpt lat="44.2213" lon="6.69884">
        <ele>2488</ele>
        <time>2021-08-19T10:22:04Z</time>
      </trkpt>
      <trkpt lat="44.2214" lon="6.6988">
        <ele>2486</ele>
        <time>2021-08-19T10:22:14Z</time>
      </trkpt>
      <trkpt lat="44.22149" lon="6.69879">
        <ele>2484</ele>
        <time>2021-08-19T10:22:24Z</time>
      </trkpt>
      <trkpt lat="44.22157" lon="6.69876">
        <ele>2482</ele>
        <time>2021-08-19T10:22:34Z</time>
      </trkpt>
      <trkpt lat="44.22154" lon="6.69883">
        <ele>2482</ele>
        <time>2021-08-19T10:22:47Z</time>
      </trkpt>
      <trkpt lat="44.22149" lon="6.69894">
        <ele>2480</ele>
        <time>2021-08-19T10:22:56Z</time>
      </trkpt>
      <trkpt lat="44.22142" lon="6.69906">
        <ele>2478</ele>
        <time>2021-08-19T10:23:06Z</time>
      </trkpt>
      <trkpt lat="44.22135" lon="6.69916">
        <ele>2476</ele>
        <time>2021-08-19T10:23:16Z</time>
      </trkpt>
      <trkpt lat="44.22129" lon="6.69923">
        <ele>2476</ele>
        <time>2021-08-19T10:23:30Z</time>
      </trkpt>
      <trkpt lat="44.22124" lon="6.69926">
        <ele>2475</ele>
        <time>2021-08-19T10:23:56Z</time>
      </trkpt>
      <trkpt lat="44.22126" lon="6.69931">
        <ele>2475</ele>
        <time>2021-08-19T10:24:05Z</time>
      </trkpt>
      <trkpt lat="44.22135" lon="6.69937">
        <ele>2473</ele>
        <time>2021-08-19T10:24:15Z</time>
      </trkpt>
      <trkpt lat="44.22142" lon="6.69946">
        <ele>2471</ele>
        <time>2021-08-19T10:24:25Z</time>
      </trkpt>
      <trkpt lat="44.2215" lon="6.69953">
        <ele>2470</ele>
        <time>2021-08-19T10:24:35Z</time>
      </trkpt>
      <trkpt lat="44.22159" lon="6.69958">
        <ele>2469</ele>
        <time>2021-08-19T10:24:45Z</time>
      </trkpt>
      <trkpt lat="44.2217" lon="6.6996">
        <ele>2468</ele>
        <time>2021-08-19T10:24:55Z</time>
      </trkpt>
      <trkpt lat="44.2218" lon="6.69962">
        <ele>2467</ele>
        <time>2021-08-19T10:25:05Z</time>
      </trkpt>
      <trkpt lat="44.22187" lon="6.69969">
        <ele>2466</ele>
        <time>2021-08-19T10:25:15Z</time>
      </trkpt>
      <trkpt lat="44.22197" lon="6.69971">
        <ele>2464</ele>
        <time>2021-08-19T10:25:25Z</time>
      </trkpt>
      <trkpt lat="44.22206" lon="6.6997">
        <ele>2462</ele>
        <time>2021-08-19T10:25:34Z</time>
      </trkpt>
      <trkpt lat="44.22215" lon="6.69969">
        <ele>2461</ele>
        <time>2021-08-19T10:25:43Z</time>
      </trkpt>
      <trkpt lat="44.22219" lon="6.69957">
        <ele>2461</ele>
        <time>2021-08-19T10:25:53Z</time>
      </trkpt>
      <trkpt lat="44.22226" lon="6.69949">
        <ele>2460</ele>
        <time>2021-08-19T10:26:03Z</time>
      </trkpt>
      <trkpt lat="44.22232" lon="6.69939">
        <ele>2458</ele>
        <time>2021-08-19T10:26:13Z</time>
      </trkpt>
      <trkpt lat="44.22233" lon="6.69927">
        <ele>2457</ele>
        <time>2021-08-19T10:26:23Z</time>
      </trkpt>
      <trkpt lat="44.22233" lon="6.69916">
        <ele>2456</ele>
        <time>2021-08-19T10:26:34Z</time>
      </trkpt>
      <trkpt lat="44.22234" lon="6.69916">
        <ele>2456</ele>
        <time>2021-08-19T10:27:14Z</time>
      </trkpt>
      <trkpt lat="44.22236" lon="6.69916">
        <ele>2456</ele>
        <time>2021-08-19T10:27:26Z</time>
      </trkpt>
      <trkpt lat="44.22242" lon="6.69907">
        <ele>2456</ele>
        <time>2021-08-19T10:27:36Z</time>
      </trkpt>
      <trkpt lat="44.22246" lon="6.69895">
        <ele>2455</ele>
        <time>2021-08-19T10:27:45Z</time>
      </trkpt>
      <trkpt lat="44.22252" lon="6.69885">
        <ele>2454</ele>
        <time>2021-08-19T10:27:54Z</time>
      </trkpt>
      <trkpt lat="44.2226" lon="6.69876">
        <ele>2453</ele>
        <time>2021-08-19T10:28:04Z</time>
      </trkpt>
      <trkpt lat="44.22267" lon="6.69865">
        <ele>2451</ele>
        <time>2021-08-19T10:28:14Z</time>
      </trkpt>
      <trkpt lat="44.22273" lon="6.69854">
        <ele>2450</ele>
        <time>2021-08-19T10:28:24Z</time>
      </trkpt>
      <trkpt lat="44.22281" lon="6.69843">
        <ele>2449</ele>
        <time>2021-08-19T10:28:34Z</time>
      </trkpt>
      <trkpt lat="44.22285" lon="6.69829">
        <ele>2447</ele>
        <time>2021-08-19T10:28:44Z</time>
      </trkpt>
      <trkpt lat="44.2229" lon="6.69817">
        <ele>2446</ele>
        <time>2021-08-19T10:28:54Z</time>
      </trkpt>
      <trkpt lat="44.22293" lon="6.69805">
        <ele>2444</ele>
        <time>2021-08-19T10:29:04Z</time>
      </trkpt>
      <trkpt lat="44.22297" lon="6.69798">
        <ele>2443</ele>
        <time>2021-08-19T10:29:14Z</time>
      </trkpt>
      <trkpt lat="44.22301" lon="6.69787">
        <ele>2441</ele>
        <time>2021-08-19T10:29:23Z</time>
      </trkpt>
      <trkpt lat="44.22305" lon="6.69782">
        <ele>2441</ele>
        <time>2021-08-19T10:29:33Z</time>
      </trkpt>
      <trkpt lat="44.2231" lon="6.69772">
        <ele>2440</ele>
        <time>2021-08-19T10:29:43Z</time>
      </trkpt>
      <trkpt lat="44.22316" lon="6.69765">
        <ele>2438</ele>
        <time>2021-08-19T10:29:53Z</time>
      </trkpt>
      <trkpt lat="44.22322" lon="6.69763">
        <ele>2435</ele>
        <time>2021-08-19T10:30:25Z</time>
      </trkpt>
      <trkpt lat="44.22329" lon="6.69756">
        <ele>2434</ele>
        <time>2021-08-19T10:30:36Z</time>
      </trkpt>
      <trkpt lat="44.22332" lon="6.69747">
        <ele>2433</ele>
        <time>2021-08-19T10:30:51Z</time>
      </trkpt>
      <trkpt lat="44.22333" lon="6.69746">
        <ele>2431</ele>
        <time>2021-08-19T10:31:23Z</time>
      </trkpt>
      <trkpt lat="44.22334" lon="6.69746">
        <ele>2431</ele>
        <time>2021-08-19T10:31:55Z</time>
      </trkpt>
      <trkpt lat="44.22334" lon="6.69747">
        <ele>2431</ele>
        <time>2021-08-19T10:32:23Z</time>
      </trkpt>
      <trkpt lat="44.22335" lon="6.69746">
        <ele>2432</ele>
        <time>2021-08-19T10:33:03Z</time>
      </trkpt>
      <trkpt lat="44.22339" lon="6.69738">
        <ele>2432</ele>
        <time>2021-08-19T10:33:13Z</time>
      </trkpt>
      <trkpt lat="44.22344" lon="6.69727">
        <ele>2432</ele>
        <time>2021-08-19T10:33:23Z</time>
      </trkpt>
      <trkpt lat="44.22348" lon="6.69715">
        <ele>2432</ele>
        <time>2021-08-19T10:33:32Z</time>
      </trkpt>
      <trkpt lat="44.22354" lon="6.69703">
        <ele>2432</ele>
        <time>2021-08-19T10:33:42Z</time>
      </trkpt>
      <trkpt lat="44.22361" lon="6.69696">
        <ele>2432</ele>
        <time>2021-08-19T10:33:57Z</time>
      </trkpt>
      <trkpt lat="44.22369" lon="6.69694">
        <ele>2432</ele>
        <time>2021-08-19T10:34:06Z</time>
      </trkpt>
      <trkpt lat="44.22378" lon="6.69688">
        <ele>2432</ele>
        <time>2021-08-19T10:34:16Z</time>
      </trkpt>
      <trkpt lat="44.22381" lon="6.69677">
        <ele>2432</ele>
        <time>2021-08-19T10:34:25Z</time>
      </trkpt>
      <trkpt lat="44.22387" lon="6.69667">
        <ele>2432</ele>
        <time>2021-08-19T10:34:35Z</time>
      </trkpt>
      <trkpt lat="44.22396" lon="6.69664">
        <ele>2432</ele>
        <time>2021-08-19T10:34:44Z</time>
      </trkpt>
      <trkpt lat="44.22405" lon="6.6966">
        <ele>2431</ele>
        <time>2021-08-19T10:34:53Z</time>
      </trkpt>
      <trkpt lat="44.2241" lon="6.69652">
        <ele>2431</ele>
        <time>2021-08-19T10:35:02Z</time>
      </trkpt>
      <trkpt lat="44.22413" lon="6.69641">
        <ele>2431</ele>
        <time>2021-08-19T10:35:12Z</time>
      </trkpt>
      <trkpt lat="44.22419" lon="6.69635">
        <ele>2430</ele>
        <time>2021-08-19T10:35:21Z</time>
      </trkpt>
      <trkpt lat="44.22428" lon="6.69629">
        <ele>2428</ele>
        <time>2021-08-19T10:35:31Z</time>
      </trkpt>
      <trkpt lat="44.22437" lon="6.69621">
        <ele>2426</ele>
        <time>2021-08-19T10:35:41Z</time>
      </trkpt>
      <trkpt lat="44.22446" lon="6.69613">
        <ele>2425</ele>
        <time>2021-08-19T10:35:51Z</time>
      </trkpt>
      <trkpt lat="44.22455" lon="6.69611">
        <ele>2421</ele>
        <time>2021-08-19T10:36:01Z</time>
      </trkpt>
      <trkpt lat="44.22464" lon="6.69609">
        <ele>2419</ele>
        <time>2021-08-19T10:36:10Z</time>
      </trkpt>
      <trkpt lat="44.22473" lon="6.69607">
        <ele>2417</ele>
        <time>2021-08-19T10:36:20Z</time>
      </trkpt>
      <trkpt lat="44.22483" lon="6.69611">
        <ele>2414</ele>
        <time>2021-08-19T10:36:29Z</time>
      </trkpt>
      <trkpt lat="44.22495" lon="6.69614">
        <ele>2414</ele>
        <time>2021-08-19T10:36:38Z</time>
      </trkpt>
      <trkpt lat="44.22504" lon="6.69616">
        <ele>2412</ele>
        <time>2021-08-19T10:36:48Z</time>
      </trkpt>
      <trkpt lat="44.22515" lon="6.6962">
        <ele>2410</ele>
        <time>2021-08-19T10:36:57Z</time>
      </trkpt>
      <trkpt lat="44.22525" lon="6.69625">
        <ele>2409</ele>
        <time>2021-08-19T10:37:06Z</time>
      </trkpt>
      <trkpt lat="44.22534" lon="6.6963">
        <ele>2405</ele>
        <time>2021-08-19T10:37:16Z</time>
      </trkpt>
      <trkpt lat="44.22542" lon="6.69634">
        <ele>2405</ele>
        <time>2021-08-19T10:37:25Z</time>
      </trkpt>
      <trkpt lat="44.22551" lon="6.69639">
        <ele>2404</ele>
        <time>2021-08-19T10:37:35Z</time>
      </trkpt>
      <trkpt lat="44.2256" lon="6.69644">
        <ele>2401</ele>
        <time>2021-08-19T10:37:44Z</time>
      </trkpt>
      <trkpt lat="44.22569" lon="6.69651">
        <ele>2398</ele>
        <time>2021-08-19T10:37:54Z</time>
      </trkpt>
      <trkpt lat="44.22579" lon="6.69657">
        <ele>2396</ele>
        <time>2021-08-19T10:38:03Z</time>
      </trkpt>
      <trkpt lat="44.22588" lon="6.69664">
        <ele>2395</ele>
        <time>2021-08-19T10:38:13Z</time>
      </trkpt>
      <trkpt lat="44.22597" lon="6.69669">
        <ele>2394</ele>
        <time>2021-08-19T10:38:22Z</time>
      </trkpt>
      <trkpt lat="44.22606" lon="6.69675">
        <ele>2391</ele>
        <time>2021-08-19T10:38:31Z</time>
      </trkpt>
      <trkpt lat="44.22615" lon="6.6968">
        <ele>2389</ele>
        <time>2021-08-19T10:38:40Z</time>
      </trkpt>
      <trkpt lat="44.22626" lon="6.69687">
        <ele>2386</ele>
        <time>2021-08-19T10:38:50Z</time>
      </trkpt>
      <trkpt lat="44.22634" lon="6.69693">
        <ele>2383</ele>
        <time>2021-08-19T10:39:00Z</time>
      </trkpt>
      <trkpt lat="44.22642" lon="6.69696">
        <ele>2383</ele>
        <time>2021-08-19T10:39:09Z</time>
      </trkpt>
      <trkpt lat="44.22651" lon="6.69693">
        <ele>2383</ele>
        <time>2021-08-19T10:39:19Z</time>
      </trkpt>
      <trkpt lat="44.2266" lon="6.69691">
        <ele>2383</ele>
        <time>2021-08-19T10:39:28Z</time>
      </trkpt>
      <trkpt lat="44.22671" lon="6.69689">
        <ele>2383</ele>
        <time>2021-08-19T10:39:38Z</time>
      </trkpt>
      <trkpt lat="44.2268" lon="6.69687">
        <ele>2383</ele>
        <time>2021-08-19T10:39:47Z</time>
      </trkpt>
      <trkpt lat="44.22688" lon="6.69686">
        <ele>2383</ele>
        <time>2021-08-19T10:39:56Z</time>
      </trkpt>
      <trkpt lat="44.22697" lon="6.69684">
        <ele>2383</ele>
        <time>2021-08-19T10:40:05Z</time>
      </trkpt>
      <trkpt lat="44.22707" lon="6.69682">
        <ele>2382</ele>
        <time>2021-08-19T10:40:15Z</time>
      </trkpt>
      <trkpt lat="44.22718" lon="6.69679">
        <ele>2382</ele>
        <time>2021-08-19T10:40:24Z</time>
      </trkpt>
      <trkpt lat="44.2273" lon="6.69679">
        <ele>2382</ele>
        <time>2021-08-19T10:40:33Z</time>
      </trkpt>
      <trkpt lat="44.2274" lon="6.69681">
        <ele>2382</ele>
        <time>2021-08-19T10:40:42Z</time>
      </trkpt>
      <trkpt lat="44.22749" lon="6.69685">
        <ele>2381</ele>
        <time>2021-08-19T10:40:52Z</time>
      </trkpt>
      <trkpt lat="44.22757" lon="6.69682">
        <ele>2378</ele>
        <time>2021-08-19T10:41:02Z</time>
      </trkpt>
      <trkpt lat="44.22767" lon="6.69679">
        <ele>2376</ele>
        <time>2021-08-19T10:41:11Z</time>
      </trkpt>
      <trkpt lat="44.22774" lon="6.69677">
        <ele>2374</ele>
        <time>2021-08-19T10:41:21Z</time>
      </trkpt>
      <trkpt lat="44.22782" lon="6.69669">
        <ele>2371</ele>
        <time>2021-08-19T10:41:31Z</time>
      </trkpt>
      <trkpt lat="44.2279" lon="6.69658">
        <ele>2371</ele>
        <time>2021-08-19T10:41:41Z</time>
      </trkpt>
      <trkpt lat="44.228" lon="6.69656">
        <ele>2371</ele>
        <time>2021-08-19T10:41:50Z</time>
      </trkpt>
      <trkpt lat="44.2281" lon="6.69657">
        <ele>2369</ele>
        <time>2021-08-19T10:41:59Z</time>
      </trkpt>
      <trkpt lat="44.22821" lon="6.69655">
        <ele>2367</ele>
        <time>2021-08-19T10:42:08Z</time>
      </trkpt>
      <trkpt lat="44.22831" lon="6.69655">
        <ele>2366</ele>
        <time>2021-08-19T10:42:18Z</time>
      </trkpt>
      <trkpt lat="44.22839" lon="6.69663">
        <ele>2366</ele>
        <time>2021-08-19T10:42:28Z</time>
      </trkpt>
      <trkpt lat="44.22848" lon="6.69666">
        <ele>2364</ele>
        <time>2021-08-19T10:42:37Z</time>
      </trkpt>
      <trkpt lat="44.22858" lon="6.69668">
        <ele>2363</ele>
        <time>2021-08-19T10:42:46Z</time>
      </trkpt>
      <trkpt lat="44.22866" lon="6.69665">
        <ele>2362</ele>
        <time>2021-08-19T10:42:56Z</time>
      </trkpt>
      <trkpt lat="44.22876" lon="6.69664">
        <ele>2362</ele>
        <time>2021-08-19T10:43:05Z</time>
      </trkpt>
      <trkpt lat="44.22885" lon="6.69663">
        <ele>2362</ele>
        <time>2021-08-19T10:43:15Z</time>
      </trkpt>
      <trkpt lat="44.22894" lon="6.69661">
        <ele>2361</ele>
        <time>2021-08-19T10:43:24Z</time>
      </trkpt>
      <trkpt lat="44.22903" lon="6.69667">
        <ele>2360</ele>
        <time>2021-08-19T10:43:34Z</time>
      </trkpt>
      <trkpt lat="44.22913" lon="6.69667">
        <ele>2359</ele>
        <time>2021-08-19T10:43:44Z</time>
      </trkpt>
      <trkpt lat="44.22922" lon="6.69666">
        <ele>2358</ele>
        <time>2021-08-19T10:43:53Z</time>
      </trkpt>
      <trkpt lat="44.2293" lon="6.69667">
        <ele>2357</ele>
        <time>2021-08-19T10:44:02Z</time>
      </trkpt>
      <trkpt lat="44.2294" lon="6.69673">
        <ele>2356</ele>
        <time>2021-08-19T10:44:12Z</time>
      </trkpt>
      <trkpt lat="44.22949" lon="6.69671">
        <ele>2355</ele>
        <time>2021-08-19T10:44:22Z</time>
      </trkpt>
      <trkpt lat="44.22957" lon="6.69664">
        <ele>2355</ele>
        <time>2021-08-19T10:44:32Z</time>
      </trkpt>
      <trkpt lat="44.22964" lon="6.69653">
        <ele>2354</ele>
        <time>2021-08-19T10:44:42Z</time>
      </trkpt>
      <trkpt lat="44.22973" lon="6.69644">
        <ele>2352</ele>
        <time>2021-08-19T10:44:52Z</time>
      </trkpt>
      <trkpt lat="44.22981" lon="6.69655">
        <ele>2352</ele>
        <time>2021-08-19T10:45:02Z</time>
      </trkpt>
      <trkpt lat="44.22988" lon="6.69664">
        <ele>2352</ele>
        <time>2021-08-19T10:45:11Z</time>
      </trkpt>
      <trkpt lat="44.22997" lon="6.69672">
        <ele>2352</ele>
        <time>2021-08-19T10:45:20Z</time>
      </trkpt>
      <trkpt lat="44.23005" lon="6.69682">
        <ele>2352</ele>
        <time>2021-08-19T10:45:30Z</time>
      </trkpt>
      <trkpt lat="44.2301" lon="6.69694">
        <ele>2352</ele>
        <time>2021-08-19T10:45:39Z</time>
      </trkpt>
      <trkpt lat="44.23019" lon="6.697">
        <ele>2352</ele>
        <time>2021-08-19T10:45:48Z</time>
      </trkpt>
      <trkpt lat="44.23029" lon="6.69702">
        <ele>2352</ele>
        <time>2021-08-19T10:45:57Z</time>
      </trkpt>
      <trkpt lat="44.23038" lon="6.69711">
        <ele>2352</ele>
        <time>2021-08-19T10:46:06Z</time>
      </trkpt>
      <trkpt lat="44.23042" lon="6.69723">
        <ele>2352</ele>
        <time>2021-08-19T10:46:15Z</time>
      </trkpt>
      <trkpt lat="44.23044" lon="6.69733">
        <ele>2352</ele>
        <time>2021-08-19T10:46:35Z</time>
      </trkpt>
      <trkpt lat="44.23052" lon="6.69743">
        <ele>2350</ele>
        <time>2021-08-19T10:46:44Z</time>
      </trkpt>
      <trkpt lat="44.23059" lon="6.69756">
        <ele>2348</ele>
        <time>2021-08-19T10:46:53Z</time>
      </trkpt>
      <trkpt lat="44.23066" lon="6.69769">
        <ele>2348</ele>
        <time>2021-08-19T10:47:03Z</time>
      </trkpt>
      <trkpt lat="44.2307" lon="6.69773">
        <ele>2348</ele>
        <time>2021-08-19T10:47:27Z</time>
      </trkpt>
      <trkpt lat="44.23071" lon="6.69773">
        <ele>2348</ele>
        <time>2021-08-19T10:47:43Z</time>
      </trkpt>
      <trkpt lat="44.2308" lon="6.69777">
        <ele>2347</ele>
        <time>2021-08-19T10:47:52Z</time>
      </trkpt>
      <trkpt lat="44.23083" lon="6.69777">
        <ele>2347</ele>
        <time>2021-08-19T10:48:14Z</time>
      </trkpt>
      <trkpt lat="44.2309" lon="6.69785">
        <ele>2347</ele>
        <time>2021-08-19T10:48:24Z</time>
      </trkpt>
      <trkpt lat="44.23099" lon="6.69792">
        <ele>2346</ele>
        <time>2021-08-19T10:48:33Z</time>
      </trkpt>
      <trkpt lat="44.23107" lon="6.69802">
        <ele>2346</ele>
        <time>2021-08-19T10:48:42Z</time>
      </trkpt>
      <trkpt lat="44.23114" lon="6.69813">
        <ele>2345</ele>
        <time>2021-08-19T10:48:52Z</time>
      </trkpt>
      <trkpt lat="44.23124" lon="6.69818">
        <ele>2344</ele>
        <time>2021-08-19T10:49:01Z</time>
      </trkpt>
      <trkpt lat="44.23134" lon="6.69817">
        <ele>2342</ele>
        <time>2021-08-19T10:49:10Z</time>
      </trkpt>
      <trkpt lat="44.23138" lon="6.69817">
        <ele>2342</ele>
        <time>2021-08-19T10:49:35Z</time>
      </trkpt>
      <trkpt lat="44.23149" lon="6.6982">
        <ele>2342</ele>
        <time>2021-08-19T10:49:44Z</time>
      </trkpt>
      <trkpt lat="44.23159" lon="6.69822">
        <ele>2342</ele>
        <time>2021-08-19T10:49:53Z</time>
      </trkpt>
      <trkpt lat="44.23171" lon="6.69822">
        <ele>2342</ele>
        <time>2021-08-19T10:50:03Z</time>
      </trkpt>
      <trkpt lat="44.23182" lon="6.69822">
        <ele>2342</ele>
        <time>2021-08-19T10:50:12Z</time>
      </trkpt>
      <trkpt lat="44.23192" lon="6.69822">
        <ele>2342</ele>
        <time>2021-08-19T10:50:21Z</time>
      </trkpt>
      <trkpt lat="44.23202" lon="6.69818">
        <ele>2342</ele>
        <time>2021-08-19T10:50:30Z</time>
      </trkpt>
      <trkpt lat="44.23213" lon="6.69816">
        <ele>2342</ele>
        <time>2021-08-19T10:50:40Z</time>
      </trkpt>
      <trkpt lat="44.23219" lon="6.69813">
        <ele>2342</ele>
        <time>2021-08-19T10:50:50Z</time>
      </trkpt>
      <trkpt lat="44.23221" lon="6.69808">
        <ele>2342</ele>
        <time>2021-08-19T10:51:00Z</time>
      </trkpt>
      <trkpt lat="44.23228" lon="6.69799">
        <ele>2342</ele>
        <time>2021-08-19T10:51:10Z</time>
      </trkpt>
      <trkpt lat="44.23238" lon="6.69794">
        <ele>2341</ele>
        <time>2021-08-19T10:51:19Z</time>
      </trkpt>
      <trkpt lat="44.23249" lon="6.69792">
        <ele>2341</ele>
        <time>2021-08-19T10:51:29Z</time>
      </trkpt>
      <trkpt lat="44.23259" lon="6.69789">
        <ele>2340</ele>
        <time>2021-08-19T10:51:39Z</time>
      </trkpt>
      <trkpt lat="44.23268" lon="6.69782">
        <ele>2339</ele>
        <time>2021-08-19T10:51:49Z</time>
      </trkpt>
      <trkpt lat="44.23278" lon="6.69783">
        <ele>2339</ele>
        <time>2021-08-19T10:51:58Z</time>
      </trkpt>
      <trkpt lat="44.23288" lon="6.69785">
        <ele>2339</ele>
        <time>2021-08-19T10:52:07Z</time>
      </trkpt>
      <trkpt lat="44.23298" lon="6.6979">
        <ele>2338</ele>
        <time>2021-08-19T10:52:16Z</time>
      </trkpt>
      <trkpt lat="44.23307" lon="6.69797">
        <ele>2338</ele>
        <time>2021-08-19T10:52:25Z</time>
      </trkpt>
      <trkpt lat="44.23316" lon="6.69806">
        <ele>2338</ele>
        <time>2021-08-19T10:52:35Z</time>
      </trkpt>
      <trkpt lat="44.23323" lon="6.69814">
        <ele>2338</ele>
        <time>2021-08-19T10:52:44Z</time>
      </trkpt>
      <trkpt lat="44.23333" lon="6.69808">
        <ele>2336</ele>
        <time>2021-08-19T10:52:54Z</time>
      </trkpt>
      <trkpt lat="44.23343" lon="6.69808">
        <ele>2335</ele>
        <time>2021-08-19T10:53:03Z</time>
      </trkpt>
      <trkpt lat="44.23352" lon="6.69814">
        <ele>2333</ele>
        <time>2021-08-19T10:53:13Z</time>
      </trkpt>
      <trkpt lat="44.23359" lon="6.69825">
        <ele>2333</ele>
        <time>2021-08-19T10:53:23Z</time>
      </trkpt>
      <trkpt lat="44.23365" lon="6.69834">
        <ele>2333</ele>
        <time>2021-08-19T10:53:32Z</time>
      </trkpt>
      <trkpt lat="44.23372" lon="6.69843">
        <ele>2333</ele>
        <time>2021-08-19T10:53:42Z</time>
      </trkpt>
      <trkpt lat="44.23381" lon="6.69853">
        <ele>2331</ele>
        <time>2021-08-19T10:53:52Z</time>
      </trkpt>
      <trkpt lat="44.2339" lon="6.69859">
        <ele>2329</ele>
        <time>2021-08-19T10:54:02Z</time>
      </trkpt>
      <trkpt lat="44.23399" lon="6.69866">
        <ele>2327</ele>
        <time>2021-08-19T10:54:12Z</time>
      </trkpt>
      <trkpt lat="44.2341" lon="6.69869">
        <ele>2326</ele>
        <time>2021-08-19T10:54:22Z</time>
      </trkpt>
      <trkpt lat="44.23418" lon="6.69865">
        <ele>2325</ele>
        <time>2021-08-19T10:54:31Z</time>
      </trkpt>
      <trkpt lat="44.23427" lon="6.69858">
        <ele>2324</ele>
        <time>2021-08-19T10:54:41Z</time>
      </trkpt>
      <trkpt lat="44.23434" lon="6.6985">
        <ele>2323</ele>
        <time>2021-08-19T10:54:51Z</time>
      </trkpt>
      <trkpt lat="44.23443" lon="6.69846">
        <ele>2322</ele>
        <time>2021-08-19T10:55:01Z</time>
      </trkpt>
      <trkpt lat="44.23451" lon="6.69842">
        <ele>2321</ele>
        <time>2021-08-19T10:55:10Z</time>
      </trkpt>
      <trkpt lat="44.2346" lon="6.69847">
        <ele>2320</ele>
        <time>2021-08-19T10:55:20Z</time>
      </trkpt>
      <trkpt lat="44.23469" lon="6.69847">
        <ele>2320</ele>
        <time>2021-08-19T10:55:29Z</time>
      </trkpt>
      <trkpt lat="44.23476" lon="6.69843">
        <ele>2320</ele>
        <time>2021-08-19T10:55:39Z</time>
      </trkpt>
      <trkpt lat="44.23484" lon="6.69843">
        <ele>2319</ele>
        <time>2021-08-19T10:55:49Z</time>
      </trkpt>
      <trkpt lat="44.23493" lon="6.69846">
        <ele>2318</ele>
        <time>2021-08-19T10:55:59Z</time>
      </trkpt>
      <trkpt lat="44.235" lon="6.69851">
        <ele>2316</ele>
        <time>2021-08-19T10:56:09Z</time>
      </trkpt>
      <trkpt lat="44.23506" lon="6.69855">
        <ele>2314</ele>
        <time>2021-08-19T10:56:18Z</time>
      </trkpt>
      <trkpt lat="44.23515" lon="6.69859">
        <ele>2314</ele>
        <time>2021-08-19T10:56:28Z</time>
      </trkpt>
      <trkpt lat="44.23523" lon="6.69862">
        <ele>2314</ele>
        <time>2021-08-19T10:56:39Z</time>
      </trkpt>
      <trkpt lat="44.23529" lon="6.69867">
        <ele>2314</ele>
        <time>2021-08-19T10:56:48Z</time>
      </trkpt>
      <trkpt lat="44.23536" lon="6.69869">
        <ele>2314</ele>
        <time>2021-08-19T10:56:57Z</time>
      </trkpt>
      <trkpt lat="44.23533" lon="6.69875">
        <ele>2312</ele>
        <time>2021-08-19T10:57:06Z</time>
      </trkpt>
      <trkpt lat="44.23526" lon="6.69882">
        <ele>2310</ele>
        <time>2021-08-19T10:57:16Z</time>
      </trkpt>
      <trkpt lat="44.23524" lon="6.69891">
        <ele>2309</ele>
        <time>2021-08-19T10:57:25Z</time>
      </trkpt>
      <trkpt lat="44.23524" lon="6.69902">
        <ele>2306</ele>
        <time>2021-08-19T10:57:35Z</time>
      </trkpt>
      <trkpt lat="44.23531" lon="6.69912">
        <ele>2306</ele>
        <time>2021-08-19T10:57:45Z</time>
      </trkpt>
      <trkpt lat="44.23534" lon="6.69925">
        <ele>2304</ele>
        <time>2021-08-19T10:57:55Z</time>
      </trkpt>
      <trkpt lat="44.23532" lon="6.6994">
        <ele>2302</ele>
        <time>2021-08-19T10:58:04Z</time>
      </trkpt>
      <trkpt lat="44.23535" lon="6.69952">
        <ele>2302</ele>
        <time>2021-08-19T10:58:13Z</time>
      </trkpt>
      <trkpt lat="44.23537" lon="6.69965">
        <ele>2301</ele>
        <time>2021-08-19T10:58:23Z</time>
      </trkpt>
      <trkpt lat="44.2354" lon="6.69977">
        <ele>2300</ele>
        <time>2021-08-19T10:58:32Z</time>
      </trkpt>
      <trkpt lat="44.23544" lon="6.69985">
        <ele>2299</ele>
        <time>2021-08-19T10:58:42Z</time>
      </trkpt>
      <trkpt lat="44.23552" lon="6.69992">
        <ele>2298</ele>
        <time>2021-08-19T10:58:52Z</time>
      </trkpt>
      <trkpt lat="44.23559" lon="6.70002">
        <ele>2296</ele>
        <time>2021-08-19T10:59:02Z</time>
      </trkpt>
      <trkpt lat="44.23566" lon="6.7001">
        <ele>2295</ele>
        <time>2021-08-19T10:59:12Z</time>
      </trkpt>
      <trkpt lat="44.23572" lon="6.70019">
        <ele>2293</ele>
        <time>2021-08-19T10:59:22Z</time>
      </trkpt>
      <trkpt lat="44.23576" lon="6.70029">
        <ele>2291</ele>
        <time>2021-08-19T10:59:32Z</time>
      </trkpt>
      <trkpt lat="44.23579" lon="6.7004">
        <ele>2290</ele>
        <time>2021-08-19T10:59:42Z</time>
      </trkpt>
      <trkpt lat="44.23582" lon="6.7005">
        <ele>2288</ele>
        <time>2021-08-19T10:59:52Z</time>
      </trkpt>
      <trkpt lat="44.23585" lon="6.70061">
        <ele>2287</ele>
        <time>2021-08-19T11:00:01Z</time>
      </trkpt>
      <trkpt lat="44.2359" lon="6.70072">
        <ele>2286</ele>
        <time>2021-08-19T11:00:11Z</time>
      </trkpt>
      <trkpt lat="44.23596" lon="6.70084">
        <ele>2285</ele>
        <time>2021-08-19T11:00:21Z</time>
      </trkpt>
      <trkpt lat="44.23602" lon="6.70092">
        <ele>2283</ele>
        <time>2021-08-19T11:00:31Z</time>
      </trkpt>
      <trkpt lat="44.2361" lon="6.70099">
        <ele>2282</ele>
        <time>2021-08-19T11:00:41Z</time>
      </trkpt>
      <trkpt lat="44.23618" lon="6.70107">
        <ele>2282</ele>
        <time>2021-08-19T11:00:51Z</time>
      </trkpt>
      <trkpt lat="44.23625" lon="6.70115">
        <ele>2281</ele>
        <time>2021-08-19T11:01:01Z</time>
      </trkpt>
      <trkpt lat="44.23631" lon="6.70121">
        <ele>2280</ele>
        <time>2021-08-19T11:01:10Z</time>
      </trkpt>
      <trkpt lat="44.23639" lon="6.70127">
        <ele>2278</ele>
        <time>2021-08-19T11:01:20Z</time>
      </trkpt>
      <trkpt lat="44.23648" lon="6.70133">
        <ele>2275</ele>
        <time>2021-08-19T11:01:30Z</time>
      </trkpt>
      <trkpt lat="44.23657" lon="6.70138">
        <ele>2274</ele>
        <time>2021-08-19T11:01:39Z</time>
      </trkpt>
      <trkpt lat="44.23666" lon="6.70145">
        <ele>2272</ele>
        <time>2021-08-19T11:01:49Z</time>
      </trkpt>
      <trkpt lat="44.23675" lon="6.70151">
        <ele>2271</ele>
        <time>2021-08-19T11:01:58Z</time>
      </trkpt>
      <trkpt lat="44.23683" lon="6.70158">
        <ele>2271</ele>
        <time>2021-08-19T11:02:08Z</time>
      </trkpt>
      <trkpt lat="44.2369" lon="6.70166">
        <ele>2269</ele>
        <time>2021-08-19T11:02:18Z</time>
      </trkpt>
      <trkpt lat="44.23697" lon="6.70171">
        <ele>2269</ele>
        <time>2021-08-19T11:02:27Z</time>
      </trkpt>
      <trkpt lat="44.23703" lon="6.70181">
        <ele>2267</ele>
        <time>2021-08-19T11:02:37Z</time>
      </trkpt>
      <trkpt lat="44.23709" lon="6.70191">
        <ele>2266</ele>
        <time>2021-08-19T11:02:47Z</time>
      </trkpt>
      <trkpt lat="44.23716" lon="6.70198">
        <ele>2265</ele>
        <time>2021-08-19T11:02:57Z</time>
      </trkpt>
      <trkpt lat="44.23724" lon="6.70207">
        <ele>2262</ele>
        <time>2021-08-19T11:03:07Z</time>
      </trkpt>
      <trkpt lat="44.23733" lon="6.70212">
        <ele>2259</ele>
        <time>2021-08-19T11:03:17Z</time>
      </trkpt>
      <trkpt lat="44.23741" lon="6.70212">
        <ele>2257</ele>
        <time>2021-08-19T11:03:27Z</time>
      </trkpt>
      <trkpt lat="44.2375" lon="6.70214">
        <ele>2254</ele>
        <time>2021-08-19T11:03:36Z</time>
      </trkpt>
      <trkpt lat="44.23759" lon="6.70214">
        <ele>2253</ele>
        <time>2021-08-19T11:03:45Z</time>
      </trkpt>
      <trkpt lat="44.23764" lon="6.70214">
        <ele>2252</ele>
        <time>2021-08-19T11:03:54Z</time>
      </trkpt>
      <trkpt lat="44.23766" lon="6.70216">
        <ele>2252</ele>
        <time>2021-08-19T11:04:08Z</time>
      </trkpt>
      <trkpt lat="44.23772" lon="6.70225">
        <ele>2252</ele>
        <time>2021-08-19T11:04:18Z</time>
      </trkpt>
      <trkpt lat="44.23778" lon="6.70234">
        <ele>2252</ele>
        <time>2021-08-19T11:04:28Z</time>
      </trkpt>
      <trkpt lat="44.2378" lon="6.7024">
        <ele>2252</ele>
        <time>2021-08-19T11:04:37Z</time>
      </trkpt>
      <trkpt lat="44.23786" lon="6.70253">
        <ele>2255</ele>
        <time>2021-08-19T11:04:48Z</time>
      </trkpt>
      <trkpt lat="44.23792" lon="6.70262">
        <ele>2255</ele>
        <time>2021-08-19T11:04:57Z</time>
      </trkpt>
      <trkpt lat="44.23799" lon="6.70266">
        <ele>2259</ele>
        <time>2021-08-19T11:05:06Z</time>
      </trkpt>
      <trkpt lat="44.23806" lon="6.70269">
        <ele>2260</ele>
        <time>2021-08-19T11:05:16Z</time>
      </trkpt>
      <trkpt lat="44.23809" lon="6.7028">
        <ele>2261</ele>
        <time>2021-08-19T11:05:25Z</time>
      </trkpt>
      <trkpt lat="44.23807" lon="6.70294">
        <ele>2261</ele>
        <time>2021-08-19T11:05:35Z</time>
      </trkpt>
      <trkpt lat="44.23803" lon="6.70304">
        <ele>2261</ele>
        <time>2021-08-19T11:05:44Z</time>
      </trkpt>
      <trkpt lat="44.23798" lon="6.70314">
        <ele>2261</ele>
        <time>2021-08-19T11:05:54Z</time>
      </trkpt>
      <trkpt lat="44.23793" lon="6.70321">
        <ele>2261</ele>
        <time>2021-08-19T11:06:04Z</time>
      </trkpt>
      <trkpt lat="44.23783" lon="6.70328">
        <ele>2261</ele>
        <time>2021-08-19T11:06:14Z</time>
      </trkpt>
      <trkpt lat="44.23775" lon="6.70334">
        <ele>2261</ele>
        <time>2021-08-19T11:06:23Z</time>
      </trkpt>
      <trkpt lat="44.23768" lon="6.70341">
        <ele>2261</ele>
        <time>2021-08-19T11:06:33Z</time>
      </trkpt>
      <trkpt lat="44.23761" lon="6.7035">
        <ele>2259</ele>
        <time>2021-08-19T11:06:43Z</time>
      </trkpt>
      <trkpt lat="44.23753" lon="6.70356">
        <ele>2259</ele>
        <time>2021-08-19T11:06:53Z</time>
      </trkpt>
      <trkpt lat="44.23748" lon="6.70362">
        <ele>2259</ele>
        <time>2021-08-19T11:07:02Z</time>
      </trkpt>
      <trkpt lat="44.2374" lon="6.70367">
        <ele>2262</ele>
        <time>2021-08-19T11:07:12Z</time>
      </trkpt>
      <trkpt lat="44.23733" lon="6.70374">
        <ele>2263</ele>
        <time>2021-08-19T11:07:22Z</time>
      </trkpt>
      <trkpt lat="44.23732" lon="6.70385">
        <ele>2266</ele>
        <time>2021-08-19T11:07:31Z</time>
      </trkpt>
      <trkpt lat="44.23731" lon="6.70396">
        <ele>2267</ele>
        <time>2021-08-19T11:07:41Z</time>
      </trkpt>
      <trkpt lat="44.23728" lon="6.70407">
        <ele>2268</ele>
        <time>2021-08-19T11:07:50Z</time>
      </trkpt>
      <trkpt lat="44.23726" lon="6.70421">
        <ele>2268</ele>
        <time>2021-08-19T11:08:00Z</time>
      </trkpt>
      <trkpt lat="44.23723" lon="6.70431">
        <ele>2268</ele>
        <time>2021-08-19T11:08:10Z</time>
      </trkpt>
      <trkpt lat="44.23719" lon="6.70442">
        <ele>2268</ele>
        <time>2021-08-19T11:08:39Z</time>
      </trkpt>
      <trkpt lat="44.2372" lon="6.70453">
        <ele>2268</ele>
        <time>2021-08-19T11:08:50Z</time>
      </trkpt>
      <trkpt lat="44.2372" lon="6.70465">
        <ele>2268</ele>
        <time>2021-08-19T11:09:00Z</time>
      </trkpt>
      <trkpt lat="44.2372" lon="6.70477">
        <ele>2268</ele>
        <time>2021-08-19T11:09:09Z</time>
      </trkpt>
      <trkpt lat="44.23718" lon="6.70492">
        <ele>2266</ele>
        <time>2021-08-19T11:09:20Z</time>
      </trkpt>
      <trkpt lat="44.23714" lon="6.70503">
        <ele>2265</ele>
        <time>2021-08-19T11:09:29Z</time>
      </trkpt>
      <trkpt lat="44.23713" lon="6.70514">
        <ele>2262</ele>
        <time>2021-08-19T11:09:39Z</time>
      </trkpt>
      <trkpt lat="44.23712" lon="6.70522">
        <ele>2261</ele>
        <time>2021-08-19T11:10:01Z</time>
      </trkpt>
      <trkpt lat="44.23714" lon="6.70534">
        <ele>2261</ele>
        <time>2021-08-19T11:10:11Z</time>
      </trkpt>
      <trkpt lat="44.23717" lon="6.70546">
        <ele>2260</ele>
        <time>2021-08-19T11:10:21Z</time>
      </trkpt>
      <trkpt lat="44.23722" lon="6.70553">
        <ele>2260</ele>
        <time>2021-08-19T11:10:30Z</time>
      </trkpt>
      <trkpt lat="44.23728" lon="6.70559">
        <ele>2260</ele>
        <time>2021-08-19T11:10:40Z</time>
      </trkpt>
      <trkpt lat="44.23735" lon="6.70566">
        <ele>2256</ele>
        <time>2021-08-19T11:10:50Z</time>
      </trkpt>
      <trkpt lat="44.23741" lon="6.70571">
        <ele>2255</ele>
        <time>2021-08-19T11:10:59Z</time>
      </trkpt>
      <trkpt lat="44.23748" lon="6.70581">
        <ele>2256</ele>
        <time>2021-08-19T11:11:08Z</time>
      </trkpt>
      <trkpt lat="44.23756" lon="6.7059">
        <ele>2256</ele>
        <time>2021-08-19T11:11:19Z</time>
      </trkpt>
      <trkpt lat="44.23761" lon="6.70606">
        <ele>2256</ele>
        <time>2021-08-19T11:11:29Z</time>
      </trkpt>
      <trkpt lat="44.23766" lon="6.7062">
        <ele>2255</ele>
        <time>2021-08-19T11:11:39Z</time>
      </trkpt>
      <trkpt lat="44.23771" lon="6.70634">
        <ele>2251</ele>
        <time>2021-08-19T11:11:50Z</time>
      </trkpt>
      <trkpt lat="44.23774" lon="6.70644">
        <ele>2249</ele>
        <time>2021-08-19T11:11:59Z</time>
      </trkpt>
      <trkpt lat="44.2378" lon="6.70656">
        <ele>2249</ele>
        <time>2021-08-19T11:12:09Z</time>
      </trkpt>
      <trkpt lat="44.23786" lon="6.70669">
        <ele>2249</ele>
        <time>2021-08-19T11:12:20Z</time>
      </trkpt>
      <trkpt lat="44.23786" lon="6.70681">
        <ele>2249</ele>
        <time>2021-08-19T11:12:29Z</time>
      </trkpt>
      <trkpt lat="44.23785" lon="6.7069">
        <ele>2249</ele>
        <time>2021-08-19T11:12:38Z</time>
      </trkpt>
      <trkpt lat="44.23787" lon="6.70703">
        <ele>2248</ele>
        <time>2021-08-19T11:12:49Z</time>
      </trkpt>
      <trkpt lat="44.23782" lon="6.70711">
        <ele>2245</ele>
        <time>2021-08-19T11:12:59Z</time>
      </trkpt>
      <trkpt lat="44.23777" lon="6.70713">
        <ele>2243</ele>
        <time>2021-08-19T11:13:09Z</time>
      </trkpt>
      <trkpt lat="44.23785" lon="6.70715">
        <ele>2241</ele>
        <time>2021-08-19T11:13:19Z</time>
      </trkpt>
      <trkpt lat="44.23782" lon="6.70729">
        <ele>2240</ele>
        <time>2021-08-19T11:13:29Z</time>
      </trkpt>
      <trkpt lat="44.23778" lon="6.70741">
        <ele>2239</ele>
        <time>2021-08-19T11:13:38Z</time>
      </trkpt>
      <trkpt lat="44.23774" lon="6.70749">
        <ele>2237</ele>
        <time>2021-08-19T11:13:48Z</time>
      </trkpt>
      <trkpt lat="44.23771" lon="6.70756">
        <ele>2235</ele>
        <time>2021-08-19T11:13:58Z</time>
      </trkpt>
      <trkpt lat="44.23767" lon="6.70762">
        <ele>2232</ele>
        <time>2021-08-19T11:14:08Z</time>
      </trkpt>
      <trkpt lat="44.23764" lon="6.70767">
        <ele>2231</ele>
        <time>2021-08-19T11:14:19Z</time>
      </trkpt>
      <trkpt lat="44.23761" lon="6.70775">
        <ele>2231</ele>
        <time>2021-08-19T11:14:31Z</time>
      </trkpt>
      <trkpt lat="44.23758" lon="6.70771">
        <ele>2230</ele>
        <time>2021-08-19T11:14:46Z</time>
      </trkpt>
      <trkpt lat="44.23758" lon="6.70769">
        <ele>2228</ele>
        <time>2021-08-19T11:14:59Z</time>
      </trkpt>
      <trkpt lat="44.23756" lon="6.70769">
        <ele>2227</ele>
        <time>2021-08-19T11:15:08Z</time>
      </trkpt>
      <trkpt lat="44.23756" lon="6.7077">
        <ele>2227</ele>
        <time>2021-08-19T11:15:19Z</time>
      </trkpt>
      <trkpt lat="44.23756" lon="6.70772">
        <ele>2227</ele>
        <time>2021-08-19T11:15:47Z</time>
      </trkpt>
      <trkpt lat="44.23757" lon="6.70773">
        <ele>2227</ele>
        <time>2021-08-19T11:16:01Z</time>
      </trkpt>
      <trkpt lat="44.23755" lon="6.70772">
        <ele>2227</ele>
        <time>2021-08-19T11:16:15Z</time>
      </trkpt>
      <trkpt lat="44.23754" lon="6.70766">
        <ele>2227</ele>
        <time>2021-08-19T11:16:28Z</time>
      </trkpt>
      <trkpt lat="44.23751" lon="6.70769">
        <ele>2231</ele>
        <time>2021-08-19T11:16:40Z</time>
      </trkpt>
      <trkpt lat="44.2375" lon="6.70771">
        <ele>2231</ele>
        <time>2021-08-19T11:16:52Z</time>
      </trkpt>
      <trkpt lat="44.2375" lon="6.70771">
        <ele>2234</ele>
        <time>2021-08-19T11:17:04Z</time>
      </trkpt>
      <trkpt lat="44.23755" lon="6.70769">
        <ele>2234</ele>
        <time>2021-08-19T11:17:13Z</time>
      </trkpt>
      <trkpt lat="44.23758" lon="6.70768">
        <ele>2234</ele>
        <time>2021-08-19T11:17:24Z</time>
      </trkpt>
      <trkpt lat="44.23759" lon="6.70772">
        <ele>2233</ele>
        <time>2021-08-19T11:17:36Z</time>
      </trkpt>
      <trkpt lat="44.23762" lon="6.70776">
        <ele>2232</ele>
        <time>2021-08-19T11:17:45Z</time>
      </trkpt>
      <trkpt lat="44.23762" lon="6.70776">
        <ele>2232</ele>
        <time>2021-08-19T11:17:58Z</time>
      </trkpt>
      <trkpt lat="44.2376" lon="6.70772">
        <ele>2235</ele>
        <time>2021-08-19T11:18:16Z</time>
      </trkpt>
      <trkpt lat="44.23765" lon="6.70769">
        <ele>2233</ele>
        <time>2021-08-19T11:18:25Z</time>
      </trkpt>
      <trkpt lat="44.23772" lon="6.70764">
        <ele>2227</ele>
        <time>2021-08-19T11:18:34Z</time>
      </trkpt>
      <trkpt lat="44.23776" lon="6.70759">
        <ele>2226</ele>
        <time>2021-08-19T11:18:44Z</time>
      </trkpt>
      <trkpt lat="44.23779" lon="6.70757">
        <ele>2225</ele>
        <time>2021-08-19T11:18:58Z</time>
      </trkpt>
      <trkpt lat="44.23782" lon="6.7075">
        <ele>2225</ele>
        <time>2021-08-19T11:19:07Z</time>
      </trkpt>
      <trkpt lat="44.23782" lon="6.70737">
        <ele>2227</ele>
        <time>2021-08-19T11:19:17Z</time>
      </trkpt>
      <trkpt lat="44.23779" lon="6.70731">
        <ele>2232</ele>
        <time>2021-08-19T11:19:27Z</time>
      </trkpt>
      <trkpt lat="44.23772" lon="6.70729">
        <ele>2242</ele>
        <time>2021-08-19T11:19:38Z</time>
      </trkpt>
      <trkpt lat="44.23771" lon="6.70727">
        <ele>2246</ele>
        <time>2021-08-19T11:19:51Z</time>
      </trkpt>
      <trkpt lat="44.23772" lon="6.70726">
        <ele>2246</ele>
        <time>2021-08-19T11:20:01Z</time>
      </trkpt>
      <trkpt lat="44.2378" lon="6.70723">
        <ele>2246</ele>
        <time>2021-08-19T11:20:10Z</time>
      </trkpt>
      <trkpt lat="44.23785" lon="6.70717">
        <ele>2241</ele>
        <time>2021-08-19T11:20:19Z</time>
      </trkpt>
      <trkpt lat="44.23789" lon="6.70708">
        <ele>2235</ele>
        <time>2021-08-19T11:20:29Z</time>
      </trkpt>
      <trkpt lat="44.2379" lon="6.70695">
        <ele>2234</ele>
        <time>2021-08-19T11:20:39Z</time>
      </trkpt>
      <trkpt lat="44.2379" lon="6.70681">
        <ele>2236</ele>
        <time>2021-08-19T11:20:50Z</time>
      </trkpt>
      <trkpt lat="44.23787" lon="6.70671">
        <ele>2240</ele>
        <time>2021-08-19T11:21:01Z</time>
      </trkpt>
      <trkpt lat="44.23786" lon="6.70664">
        <ele>2240</ele>
        <time>2021-08-19T11:21:11Z</time>
      </trkpt>
      <trkpt lat="44.23782" lon="6.70658">
        <ele>2240</ele>
        <time>2021-08-19T11:21:21Z</time>
      </trkpt>
      <trkpt lat="44.23779" lon="6.70648">
        <ele>2243</ele>
        <time>2021-08-19T11:21:30Z</time>
      </trkpt>
      <trkpt lat="44.23777" lon="6.70638">
        <ele>2243</ele>
        <time>2021-08-19T11:21:40Z</time>
      </trkpt>
      <trkpt lat="44.23774" lon="6.70629">
        <ele>2245</ele>
        <time>2021-08-19T11:21:50Z</time>
      </trkpt>
      <trkpt lat="44.23771" lon="6.70621">
        <ele>2247</ele>
        <time>2021-08-19T11:21:59Z</time>
      </trkpt>
      <trkpt lat="44.23765" lon="6.70615">
        <ele>2252</ele>
        <time>2021-08-19T11:22:09Z</time>
      </trkpt>
      <trkpt lat="44.23764" lon="6.70606">
        <ele>2252</ele>
        <time>2021-08-19T11:22:18Z</time>
      </trkpt>
      <trkpt lat="44.23763" lon="6.70599">
        <ele>2253</ele>
        <time>2021-08-19T11:22:28Z</time>
      </trkpt>
      <trkpt lat="44.23758" lon="6.70594">
        <ele>2258</ele>
        <time>2021-08-19T11:22:37Z</time>
      </trkpt>
      <trkpt lat="44.23752" lon="6.70586">
        <ele>2260</ele>
        <time>2021-08-19T11:22:48Z</time>
      </trkpt>
      <trkpt lat="44.23747" lon="6.70576">
        <ele>2261</ele>
        <time>2021-08-19T11:22:57Z</time>
      </trkpt>
      <trkpt lat="44.23741" lon="6.70573">
        <ele>2262</ele>
        <time>2021-08-19T11:23:06Z</time>
      </trkpt>
      <trkpt lat="44.23734" lon="6.70568">
        <ele>2263</ele>
        <time>2021-08-19T11:23:15Z</time>
      </trkpt>
      <trkpt lat="44.23731" lon="6.70559">
        <ele>2263</ele>
        <time>2021-08-19T11:23:24Z</time>
      </trkpt>
      <trkpt lat="44.23725" lon="6.70548">
        <ele>2263</ele>
        <time>2021-08-19T11:23:33Z</time>
      </trkpt>
      <trkpt lat="44.23721" lon="6.70537">
        <ele>2263</ele>
        <time>2021-08-19T11:23:43Z</time>
      </trkpt>
      <trkpt lat="44.23717" lon="6.70526">
        <ele>2262</ele>
        <time>2021-08-19T11:23:53Z</time>
      </trkpt>
      <trkpt lat="44.23715" lon="6.70516">
        <ele>2262</ele>
        <time>2021-08-19T11:24:02Z</time>
      </trkpt>
      <trkpt lat="44.23715" lon="6.70506">
        <ele>2262</ele>
        <time>2021-08-19T11:24:13Z</time>
      </trkpt>
      <trkpt lat="44.23717" lon="6.70499">
        <ele>2262</ele>
        <time>2021-08-19T11:24:25Z</time>
      </trkpt>
      <trkpt lat="44.23718" lon="6.70495">
        <ele>2262</ele>
        <time>2021-08-19T11:24:35Z</time>
      </trkpt>
      <trkpt lat="44.23723" lon="6.70477">
        <ele>2259</ele>
        <time>2021-08-19T11:24:44Z</time>
      </trkpt>
      <trkpt lat="44.23721" lon="6.70461">
        <ele>2259</ele>
        <time>2021-08-19T11:24:53Z</time>
      </trkpt>
      <trkpt lat="44.23719" lon="6.70448">
        <ele>2264</ele>
        <time>2021-08-19T11:25:02Z</time>
      </trkpt>
      <trkpt lat="44.23719" lon="6.70438">
        <ele>2265</ele>
        <time>2021-08-19T11:25:12Z</time>
      </trkpt>
      <trkpt lat="44.23722" lon="6.7043">
        <ele>2265</ele>
        <time>2021-08-19T11:25:22Z</time>
      </trkpt>
      <trkpt lat="44.23725" lon="6.70421">
        <ele>2265</ele>
        <time>2021-08-19T11:25:32Z</time>
      </trkpt>
      <trkpt lat="44.23727" lon="6.70412">
        <ele>2265</ele>
        <time>2021-08-19T11:25:41Z</time>
      </trkpt>
      <trkpt lat="44.23729" lon="6.70402">
        <ele>2267</ele>
        <time>2021-08-19T11:25:51Z</time>
      </trkpt>
      <trkpt lat="44.23732" lon="6.70389">
        <ele>2267</ele>
        <time>2021-08-19T11:26:01Z</time>
      </trkpt>
      <trkpt lat="44.23731" lon="6.70376">
        <ele>2267</ele>
        <time>2021-08-19T11:26:10Z</time>
      </trkpt>
      <trkpt lat="44.23734" lon="6.70364">
        <ele>2267</ele>
        <time>2021-08-19T11:26:19Z</time>
      </trkpt>
      <trkpt lat="44.23741" lon="6.70362">
        <ele>2267</ele>
        <time>2021-08-19T11:26:28Z</time>
      </trkpt>
      <trkpt lat="44.2375" lon="6.70359">
        <ele>2267</ele>
        <time>2021-08-19T11:26:39Z</time>
      </trkpt>
      <trkpt lat="44.23758" lon="6.70349">
        <ele>2264</ele>
        <time>2021-08-19T11:26:49Z</time>
      </trkpt>
      <trkpt lat="44.23765" lon="6.70344">
        <ele>2260</ele>
        <time>2021-08-19T11:26:58Z</time>
      </trkpt>
      <trkpt lat="44.2377" lon="6.70342">
        <ele>2259</ele>
        <time>2021-08-19T11:27:08Z</time>
      </trkpt>
      <trkpt lat="44.23779" lon="6.70339">
        <ele>2259</ele>
        <time>2021-08-19T11:27:19Z</time>
      </trkpt>
      <trkpt lat="44.23788" lon="6.70327">
        <ele>2259</ele>
        <time>2021-08-19T11:27:30Z</time>
      </trkpt>
      <trkpt lat="44.23797" lon="6.70317">
        <ele>2259</ele>
        <time>2021-08-19T11:27:39Z</time>
      </trkpt>
      <trkpt lat="44.23805" lon="6.70302">
        <ele>2259</ele>
        <time>2021-08-19T11:27:48Z</time>
      </trkpt>
      <trkpt lat="44.23808" lon="6.70292">
        <ele>2259</ele>
        <time>2021-08-19T11:27:57Z</time>
      </trkpt>
      <trkpt lat="44.23808" lon="6.70278">
        <ele>2259</ele>
        <time>2021-08-19T11:28:06Z</time>
      </trkpt>
      <trkpt lat="44.23801" lon="6.70275">
        <ele>2261</ele>
        <time>2021-08-19T11:28:15Z</time>
      </trkpt>
      <trkpt lat="44.23795" lon="6.70269">
        <ele>2264</ele>
        <time>2021-08-19T11:28:26Z</time>
      </trkpt>
      <trkpt lat="44.23792" lon="6.70259">
        <ele>2267</ele>
        <time>2021-08-19T11:28:35Z</time>
      </trkpt>
      <trkpt lat="44.23788" lon="6.70244">
        <ele>2267</ele>
        <time>2021-08-19T11:28:44Z</time>
      </trkpt>
      <trkpt lat="44.23785" lon="6.70236">
        <ele>2267</ele>
        <time>2021-08-19T11:28:53Z</time>
      </trkpt>
      <trkpt lat="44.23777" lon="6.70225">
        <ele>2267</ele>
        <time>2021-08-19T11:29:02Z</time>
      </trkpt>
      <trkpt lat="44.23781" lon="6.70226">
        <ele>2257</ele>
        <time>2021-08-19T11:29:12Z</time>
      </trkpt>
      <trkpt lat="44.23783" lon="6.7023">
        <ele>2253</ele>
        <time>2021-08-19T11:29:22Z</time>
      </trkpt>
      <trkpt lat="44.23786" lon="6.70231">
        <ele>2253</ele>
        <time>2021-08-19T11:29:32Z</time>
      </trkpt>
      <trkpt lat="44.23791" lon="6.70232">
        <ele>2252</ele>
        <time>2021-08-19T11:29:41Z</time>
      </trkpt>
      <trkpt lat="44.23794" lon="6.70236">
        <ele>2252</ele>
        <time>2021-08-19T11:29:50Z</time>
      </trkpt>
      <trkpt lat="44.23805" lon="6.70242">
        <ele>2254</ele>
        <time>2021-08-19T11:29:59Z</time>
      </trkpt>
      <trkpt lat="44.23817" lon="6.70243">
        <ele>2253</ele>
        <time>2021-08-19T11:30:08Z</time>
      </trkpt>
      <trkpt lat="44.23824" lon="6.70255">
        <ele>2248</ele>
        <time>2021-08-19T11:30:17Z</time>
      </trkpt>
      <trkpt lat="44.2383" lon="6.70267">
        <ele>2247</ele>
        <time>2021-08-19T11:30:27Z</time>
      </trkpt>
      <trkpt lat="44.23835" lon="6.7028">
        <ele>2243</ele>
        <time>2021-08-19T11:30:37Z</time>
      </trkpt>
      <trkpt lat="44.23839" lon="6.70292">
        <ele>2243</ele>
        <time>2021-08-19T11:30:46Z</time>
      </trkpt>
      <trkpt lat="44.23843" lon="6.70304">
        <ele>2240</ele>
        <time>2021-08-19T11:30:55Z</time>
      </trkpt>
      <trkpt lat="44.23849" lon="6.70301">
        <ele>2237</ele>
        <time>2021-08-19T11:31:05Z</time>
      </trkpt>
      <trkpt lat="44.23864" lon="6.7031">
        <ele>2240</ele>
        <time>2021-08-19T11:31:14Z</time>
      </trkpt>
      <trkpt lat="44.23878" lon="6.70315">
        <ele>2238</ele>
        <time>2021-08-19T11:31:24Z</time>
      </trkpt>
      <trkpt lat="44.23888" lon="6.70315">
        <ele>2235</ele>
        <time>2021-08-19T11:31:34Z</time>
      </trkpt>
      <trkpt lat="44.23898" lon="6.70313">
        <ele>2233</ele>
        <time>2021-08-19T11:31:43Z</time>
      </trkpt>
      <trkpt lat="44.23907" lon="6.70318">
        <ele>2227</ele>
        <time>2021-08-19T11:31:55Z</time>
      </trkpt>
      <trkpt lat="44.23917" lon="6.70334">
        <ele>2233</ele>
        <time>2021-08-19T11:32:04Z</time>
      </trkpt>
      <trkpt lat="44.23925" lon="6.70334">
        <ele>2236</ele>
        <time>2021-08-19T11:32:14Z</time>
      </trkpt>
      <trkpt lat="44.23936" lon="6.7034">
        <ele>2230</ele>
        <time>2021-08-19T11:32:23Z</time>
      </trkpt>
      <trkpt lat="44.23947" lon="6.70345">
        <ele>2221</ele>
        <time>2021-08-19T11:32:34Z</time>
      </trkpt>
      <trkpt lat="44.23954" lon="6.70355">
        <ele>2219</ele>
        <time>2021-08-19T11:32:44Z</time>
      </trkpt>
      <trkpt lat="44.2396" lon="6.70356">
        <ele>2220</ele>
        <time>2021-08-19T11:32:55Z</time>
      </trkpt>
      <trkpt lat="44.23969" lon="6.7036">
        <ele>2223</ele>
        <time>2021-08-19T11:33:04Z</time>
      </trkpt>
      <trkpt lat="44.23975" lon="6.70361">
        <ele>2223</ele>
        <time>2021-08-19T11:33:14Z</time>
      </trkpt>
      <trkpt lat="44.23984" lon="6.70369">
        <ele>2224</ele>
        <time>2021-08-19T11:33:25Z</time>
      </trkpt>
      <trkpt lat="44.23996" lon="6.70377">
        <ele>2224</ele>
        <time>2021-08-19T11:33:37Z</time>
      </trkpt>
      <trkpt lat="44.24001" lon="6.70384">
        <ele>2227</ele>
        <time>2021-08-19T11:33:49Z</time>
      </trkpt>
      <trkpt lat="44.2401" lon="6.70389">
        <ele>2230</ele>
        <time>2021-08-19T11:34:00Z</time>
      </trkpt>
      <trkpt lat="44.24015" lon="6.70394">
        <ele>2231</ele>
        <time>2021-08-19T11:34:10Z</time>
      </trkpt>
      <trkpt lat="44.24024" lon="6.704">
        <ele>2231</ele>
        <time>2021-08-19T11:34:20Z</time>
      </trkpt>
      <trkpt lat="44.24038" lon="6.70404">
        <ele>2231</ele>
        <time>2021-08-19T11:34:31Z</time>
      </trkpt>
      <trkpt lat="44.24046" lon="6.70413">
        <ele>2231</ele>
        <time>2021-08-19T11:34:40Z</time>
      </trkpt>
      <trkpt lat="44.2406" lon="6.70425">
        <ele>2225</ele>
        <time>2021-08-19T11:34:50Z</time>
      </trkpt>
      <trkpt lat="44.24068" lon="6.70428">
        <ele>2216</ele>
        <time>2021-08-19T11:34:59Z</time>
      </trkpt>
      <trkpt lat="44.24077" lon="6.70431">
        <ele>2211</ele>
        <time>2021-08-19T11:35:08Z</time>
      </trkpt>
      <trkpt lat="44.24087" lon="6.70435">
        <ele>2211</ele>
        <time>2021-08-19T11:35:17Z</time>
      </trkpt>
      <trkpt lat="44.241" lon="6.70438">
        <ele>2202</ele>
        <time>2021-08-19T11:35:26Z</time>
      </trkpt>
      <trkpt lat="44.24114" lon="6.7044">
        <ele>2193</ele>
        <time>2021-08-19T11:35:36Z</time>
      </trkpt>
      <trkpt lat="44.24125" lon="6.70437">
        <ele>2187</ele>
        <time>2021-08-19T11:35:45Z</time>
      </trkpt>
      <trkpt lat="44.24134" lon="6.70434">
        <ele>2187</ele>
        <time>2021-08-19T11:35:55Z</time>
      </trkpt>
      <trkpt lat="44.24141" lon="6.70437">
        <ele>2187</ele>
        <time>2021-08-19T11:36:04Z</time>
      </trkpt>
      <trkpt lat="44.24153" lon="6.70439">
        <ele>2187</ele>
        <time>2021-08-19T11:36:13Z</time>
      </trkpt>
      <trkpt lat="44.2416" lon="6.70441">
        <ele>2187</ele>
        <time>2021-08-19T11:36:24Z</time>
      </trkpt>
      <trkpt lat="44.24169" lon="6.70447">
        <ele>2187</ele>
        <time>2021-08-19T11:36:33Z</time>
      </trkpt>
      <trkpt lat="44.24178" lon="6.70446">
        <ele>2188</ele>
        <time>2021-08-19T11:36:43Z</time>
      </trkpt>
      <trkpt lat="44.24182" lon="6.7044">
        <ele>2192</ele>
        <time>2021-08-19T11:36:52Z</time>
      </trkpt>
      <trkpt lat="44.24194" lon="6.70443">
        <ele>2193</ele>
        <time>2021-08-19T11:37:02Z</time>
      </trkpt>
      <trkpt lat="44.2421" lon="6.70444">
        <ele>2189</ele>
        <time>2021-08-19T11:37:11Z</time>
      </trkpt>
      <trkpt lat="44.24223" lon="6.70444">
        <ele>2178</ele>
        <time>2021-08-19T11:37:23Z</time>
      </trkpt>
      <trkpt lat="44.24226" lon="6.70438">
        <ele>2178</ele>
        <time>2021-08-19T11:37:32Z</time>
      </trkpt>
      <trkpt lat="44.24237" lon="6.70435">
        <ele>2178</ele>
        <time>2021-08-19T11:37:42Z</time>
      </trkpt>
      <trkpt lat="44.24253" lon="6.70433">
        <ele>2177</ele>
        <time>2021-08-19T11:37:51Z</time>
      </trkpt>
      <trkpt lat="44.24261" lon="6.70431">
        <ele>2168</ele>
        <time>2021-08-19T11:38:00Z</time>
      </trkpt>
      <trkpt lat="44.24271" lon="6.70428">
        <ele>2164</ele>
        <time>2021-08-19T11:38:09Z</time>
      </trkpt>
      <trkpt lat="44.24281" lon="6.70427">
        <ele>2163</ele>
        <time>2021-08-19T11:38:18Z</time>
      </trkpt>
      <trkpt lat="44.2429" lon="6.70424">
        <ele>2163</ele>
        <time>2021-08-19T11:38:27Z</time>
      </trkpt>
      <trkpt lat="44.24301" lon="6.70426">
        <ele>2162</ele>
        <time>2021-08-19T11:38:36Z</time>
      </trkpt>
      <trkpt lat="44.24308" lon="6.70422">
        <ele>2162</ele>
        <time>2021-08-19T11:38:45Z</time>
      </trkpt>
      <trkpt lat="44.24316" lon="6.70417">
        <ele>2163</ele>
        <time>2021-08-19T11:38:54Z</time>
      </trkpt>
      <trkpt lat="44.24326" lon="6.70414">
        <ele>2163</ele>
        <time>2021-08-19T11:39:04Z</time>
      </trkpt>
      <trkpt lat="44.24334" lon="6.70411">
        <ele>2163</ele>
        <time>2021-08-19T11:39:13Z</time>
      </trkpt>
      <trkpt lat="44.2434" lon="6.704">
        <ele>2165</ele>
        <time>2021-08-19T11:39:23Z</time>
      </trkpt>
      <trkpt lat="44.24348" lon="6.70394">
        <ele>2164</ele>
        <time>2021-08-19T11:39:32Z</time>
      </trkpt>
      <trkpt lat="44.24358" lon="6.70381">
        <ele>2164</ele>
        <time>2021-08-19T11:39:42Z</time>
      </trkpt>
      <trkpt lat="44.24367" lon="6.70368">
        <ele>2156</ele>
        <time>2021-08-19T11:39:51Z</time>
      </trkpt>
      <trkpt lat="44.24378" lon="6.70359">
        <ele>2148</ele>
        <time>2021-08-19T11:40:00Z</time>
      </trkpt>
      <trkpt lat="44.2438" lon="6.70344">
        <ele>2143</ele>
        <time>2021-08-19T11:40:09Z</time>
      </trkpt>
      <trkpt lat="44.24382" lon="6.70327">
        <ele>2143</ele>
        <time>2021-08-19T11:40:19Z</time>
      </trkpt>
      <trkpt lat="44.24392" lon="6.70318">
        <ele>2143</ele>
        <time>2021-08-19T11:40:28Z</time>
      </trkpt>
      <trkpt lat="44.24402" lon="6.70308">
        <ele>2138</ele>
        <time>2021-08-19T11:40:38Z</time>
      </trkpt>
      <trkpt lat="44.24407" lon="6.70295">
        <ele>2138</ele>
        <time>2021-08-19T11:40:47Z</time>
      </trkpt>
      <trkpt lat="44.2441" lon="6.70281">
        <ele>2138</ele>
        <time>2021-08-19T11:40:56Z</time>
      </trkpt>
      <trkpt lat="44.24412" lon="6.70266">
        <ele>2141</ele>
        <time>2021-08-19T11:41:05Z</time>
      </trkpt>
      <trkpt lat="44.24411" lon="6.70251">
        <ele>2150</ele>
        <time>2021-08-19T11:41:14Z</time>
      </trkpt>
      <trkpt lat="44.24408" lon="6.70237">
        <ele>2160</ele>
        <time>2021-08-19T11:41:24Z</time>
      </trkpt>
      <trkpt lat="44.24411" lon="6.70227">
        <ele>2159</ele>
        <time>2021-08-19T11:41:33Z</time>
      </trkpt>
      <trkpt lat="44.24411" lon="6.7022">
        <ele>2150</ele>
        <time>2021-08-19T11:41:43Z</time>
      </trkpt>
      <trkpt lat="44.24403" lon="6.70215">
        <ele>2145</ele>
        <time>2021-08-19T11:41:52Z</time>
      </trkpt>
      <trkpt lat="44.24397" lon="6.70208">
        <ele>2136</ele>
        <time>2021-08-19T11:42:01Z</time>
      </trkpt>
      <trkpt lat="44.24385" lon="6.70196">
        <ele>2136</ele>
        <time>2021-08-19T11:42:10Z</time>
      </trkpt>
      <trkpt lat="44.2438" lon="6.70186">
        <ele>2136</ele>
        <time>2021-08-19T11:42:19Z</time>
      </trkpt>
      <trkpt lat="44.24374" lon="6.70177">
        <ele>2136</ele>
        <time>2021-08-19T11:42:28Z</time>
      </trkpt>
      <trkpt lat="44.24365" lon="6.70171">
        <ele>2136</ele>
        <time>2021-08-19T11:42:41Z</time>
      </trkpt>
      <trkpt lat="44.24356" lon="6.70155">
        <ele>2132</ele>
        <time>2021-08-19T11:42:50Z</time>
      </trkpt>
      <trkpt lat="44.24349" lon="6.70138">
        <ele>2133</ele>
        <time>2021-08-19T11:42:59Z</time>
      </trkpt>
      <trkpt lat="44.24343" lon="6.70127">
        <ele>2142</ele>
        <time>2021-08-19T11:43:11Z</time>
      </trkpt>
      <trkpt lat="44.24336" lon="6.7013">
        <ele>2142</ele>
        <time>2021-08-19T11:43:20Z</time>
      </trkpt>
      <trkpt lat="44.24328" lon="6.70128">
        <ele>2141</ele>
        <time>2021-08-19T11:43:29Z</time>
      </trkpt>
      <trkpt lat="44.24326" lon="6.70117">
        <ele>2145</ele>
        <time>2021-08-19T11:43:38Z</time>
      </trkpt>
      <trkpt lat="44.24323" lon="6.70108">
        <ele>2144</ele>
        <time>2021-08-19T11:43:47Z</time>
      </trkpt>
      <trkpt lat="44.24321" lon="6.70115">
        <ele>2133</ele>
        <time>2021-08-19T11:43:57Z</time>
      </trkpt>
      <trkpt lat="44.24317" lon="6.70123">
        <ele>2126</ele>
        <time>2021-08-19T11:44:06Z</time>
      </trkpt>
      <trkpt lat="44.24328" lon="6.70145">
        <ele>2116</ele>
        <time>2021-08-19T11:44:15Z</time>
      </trkpt>
      <trkpt lat="44.24331" lon="6.7015">
        <ele>2102</ele>
        <time>2021-08-19T11:44:24Z</time>
      </trkpt>
      <trkpt lat="44.24332" lon="6.70144">
        <ele>2093</ele>
        <time>2021-08-19T11:44:33Z</time>
      </trkpt>
      <trkpt lat="44.24332" lon="6.70135">
        <ele>2095</ele>
        <time>2021-08-19T11:44:44Z</time>
      </trkpt>
      <trkpt lat="44.24331" lon="6.70137">
        <ele>2096</ele>
        <time>2021-08-19T11:44:53Z</time>
      </trkpt>
      <trkpt lat="44.24335" lon="6.70133">
        <ele>2105</ele>
        <time>2021-08-19T11:45:02Z</time>
      </trkpt>
      <trkpt lat="44.24337" lon="6.70135">
        <ele>2108</ele>
        <time>2021-08-19T11:45:16Z</time>
      </trkpt>
      <trkpt lat="44.24337" lon="6.70139">
        <ele>2105</ele>
        <time>2021-08-19T11:45:31Z</time>
      </trkpt>
      <trkpt lat="44.24337" lon="6.70145">
        <ele>2099</ele>
        <time>2021-08-19T11:45:40Z</time>
      </trkpt>
      <trkpt lat="44.24337" lon="6.70143">
        <ele>2097</ele>
        <time>2021-08-19T11:45:51Z</time>
      </trkpt>
      <trkpt lat="44.24338" lon="6.70138">
        <ele>2105</ele>
        <time>2021-08-19T11:46:00Z</time>
      </trkpt>
      <trkpt lat="44.24341" lon="6.70143">
        <ele>2110</ele>
        <time>2021-08-19T11:46:09Z</time>
      </trkpt>
      <trkpt lat="44.24342" lon="6.70148">
        <ele>2110</ele>
        <time>2021-08-19T11:46:19Z</time>
      </trkpt>
      <trkpt lat="44.24336" lon="6.70136">
        <ele>2110</ele>
        <time>2021-08-19T11:46:28Z</time>
      </trkpt>
      <trkpt lat="44.24328" lon="6.70115">
        <ele>2119</ele>
        <time>2021-08-19T11:46:37Z</time>
      </trkpt>
      <trkpt lat="44.24324" lon="6.70095">
        <ele>2128</ele>
        <time>2021-08-19T11:46:46Z</time>
      </trkpt>
      <trkpt lat="44.24321" lon="6.70085">
        <ele>2134</ele>
        <time>2021-08-19T11:46:56Z</time>
      </trkpt>
      <trkpt lat="44.24312" lon="6.70077">
        <ele>2134</ele>
        <time>2021-08-19T11:47:06Z</time>
      </trkpt>
      <trkpt lat="44.24308" lon="6.70075">
        <ele>2127</ele>
        <time>2021-08-19T11:47:18Z</time>
      </trkpt>
      <trkpt lat="44.24303" lon="6.70059">
        <ele>2122</ele>
        <time>2021-08-19T11:47:28Z</time>
      </trkpt>
      <trkpt lat="44.243" lon="6.7004">
        <ele>2122</ele>
        <time>2021-08-19T11:47:37Z</time>
      </trkpt>
      <trkpt lat="44.24298" lon="6.70022">
        <ele>2126</ele>
        <time>2021-08-19T11:47:46Z</time>
      </trkpt>
      <trkpt lat="44.24301" lon="6.70006">
        <ele>2126</ele>
        <time>2021-08-19T11:47:56Z</time>
      </trkpt>
      <trkpt lat="44.24306" lon="6.69995">
        <ele>2125</ele>
        <time>2021-08-19T11:48:06Z</time>
      </trkpt>
      <trkpt lat="44.24311" lon="6.69984">
        <ele>2125</ele>
        <time>2021-08-19T11:48:15Z</time>
      </trkpt>
      <trkpt lat="44.24315" lon="6.69973">
        <ele>2125</ele>
        <time>2021-08-19T11:48:24Z</time>
      </trkpt>
      <trkpt lat="44.24318" lon="6.69959">
        <ele>2125</ele>
        <time>2021-08-19T11:48:33Z</time>
      </trkpt>
      <trkpt lat="44.24319" lon="6.69945">
        <ele>2125</ele>
        <time>2021-08-19T11:48:42Z</time>
      </trkpt>
      <trkpt lat="44.24323" lon="6.69932">
        <ele>2125</ele>
        <time>2021-08-19T11:48:52Z</time>
      </trkpt>
      <trkpt lat="44.24326" lon="6.69917">
        <ele>2125</ele>
        <time>2021-08-19T11:49:02Z</time>
      </trkpt>
      <trkpt lat="44.24327" lon="6.69904">
        <ele>2125</ele>
        <time>2021-08-19T11:49:11Z</time>
      </trkpt>
      <trkpt lat="44.24328" lon="6.69893">
        <ele>2125</ele>
        <time>2021-08-19T11:49:20Z</time>
      </trkpt>
      <trkpt lat="44.24329" lon="6.6988">
        <ele>2125</ele>
        <time>2021-08-19T11:49:30Z</time>
      </trkpt>
      <trkpt lat="44.24332" lon="6.6987">
        <ele>2125</ele>
        <time>2021-08-19T11:49:39Z</time>
      </trkpt>
      <trkpt lat="44.24332" lon="6.69858">
        <ele>2125</ele>
        <time>2021-08-19T11:49:48Z</time>
      </trkpt>
      <trkpt lat="44.24335" lon="6.69848">
        <ele>2125</ele>
        <time>2021-08-19T11:49:58Z</time>
      </trkpt>
      <trkpt lat="44.24337" lon="6.69835">
        <ele>2125</ele>
        <time>2021-08-19T11:50:08Z</time>
      </trkpt>
      <trkpt lat="44.24341" lon="6.69819">
        <ele>2125</ele>
        <time>2021-08-19T11:50:18Z</time>
      </trkpt>
      <trkpt lat="44.24345" lon="6.69808">
        <ele>2125</ele>
        <time>2021-08-19T11:50:28Z</time>
      </trkpt>
      <trkpt lat="44.24343" lon="6.69801">
        <ele>2125</ele>
        <time>2021-08-19T11:50:37Z</time>
      </trkpt>
      <trkpt lat="44.2434" lon="6.6979">
        <ele>2125</ele>
        <time>2021-08-19T11:50:49Z</time>
      </trkpt>
      <trkpt lat="44.24341" lon="6.69779">
        <ele>2125</ele>
        <time>2021-08-19T11:50:59Z</time>
      </trkpt>
      <trkpt lat="44.24346" lon="6.69775">
        <ele>2125</ele>
        <time>2021-08-19T11:51:08Z</time>
      </trkpt>
      <trkpt lat="44.24356" lon="6.69774">
        <ele>2126</ele>
        <time>2021-08-19T11:51:25Z</time>
      </trkpt>
      <trkpt lat="44.24364" lon="6.69776">
        <ele>2126</ele>
        <time>2021-08-19T11:51:35Z</time>
      </trkpt>
      <trkpt lat="44.24372" lon="6.69769">
        <ele>2126</ele>
        <time>2021-08-19T11:51:45Z</time>
      </trkpt>
      <trkpt lat="44.24382" lon="6.6976">
        <ele>2126</ele>
        <time>2021-08-19T11:51:55Z</time>
      </trkpt>
      <trkpt lat="44.2439" lon="6.69754">
        <ele>2126</ele>
        <time>2021-08-19T11:52:04Z</time>
      </trkpt>
      <trkpt lat="44.24397" lon="6.69746">
        <ele>2126</ele>
        <time>2021-08-19T11:52:14Z</time>
      </trkpt>
      <trkpt lat="44.24408" lon="6.69745">
        <ele>2131</ele>
        <time>2021-08-19T11:52:23Z</time>
      </trkpt>
      <trkpt lat="44.24415" lon="6.6974">
        <ele>2133</ele>
        <time>2021-08-19T11:52:32Z</time>
      </trkpt>
      <trkpt lat="44.24425" lon="6.69743">
        <ele>2126</ele>
        <time>2021-08-19T11:52:42Z</time>
      </trkpt>
      <trkpt lat="44.24429" lon="6.69746">
        <ele>2124</ele>
        <time>2021-08-19T11:52:52Z</time>
      </trkpt>
      <trkpt lat="44.24429" lon="6.69746">
        <ele>2125</ele>
        <time>2021-08-19T11:53:04Z</time>
      </trkpt>
      <trkpt lat="44.24435" lon="6.69739">
        <ele>2124</ele>
        <time>2021-08-19T11:53:15Z</time>
      </trkpt>
      <trkpt lat="44.2444" lon="6.69733">
        <ele>2119</ele>
        <time>2021-08-19T11:53:25Z</time>
      </trkpt>
      <trkpt lat="44.24443" lon="6.69721">
        <ele>2119</ele>
        <time>2021-08-19T11:53:34Z</time>
      </trkpt>
      <trkpt lat="44.2445" lon="6.69715">
        <ele>2126</ele>
        <time>2021-08-19T11:53:45Z</time>
      </trkpt>
      <trkpt lat="44.24449" lon="6.69712">
        <ele>2126</ele>
        <time>2021-08-19T11:53:55Z</time>
      </trkpt>
      <trkpt lat="44.24455" lon="6.69722">
        <ele>2126</ele>
        <time>2021-08-19T11:54:04Z</time>
      </trkpt>
      <trkpt lat="44.24458" lon="6.69728">
        <ele>2119</ele>
        <time>2021-08-19T11:54:14Z</time>
      </trkpt>
      <trkpt lat="44.24458" lon="6.69721">
        <ele>2114</ele>
        <time>2021-08-19T11:54:25Z</time>
      </trkpt>
      <trkpt lat="44.24451" lon="6.6971">
        <ele>2115</ele>
        <time>2021-08-19T11:54:34Z</time>
      </trkpt>
      <trkpt lat="44.24452" lon="6.6972">
        <ele>2117</ele>
        <time>2021-08-19T11:54:44Z</time>
      </trkpt>
      <trkpt lat="44.24451" lon="6.69724">
        <ele>2115</ele>
        <time>2021-08-19T11:54:53Z</time>
      </trkpt>
      <trkpt lat="44.24451" lon="6.69726">
        <ele>2108</ele>
        <time>2021-08-19T11:55:03Z</time>
      </trkpt>
      <trkpt lat="44.24446" lon="6.69718">
        <ele>2116</ele>
        <time>2021-08-19T11:55:14Z</time>
      </trkpt>
      <trkpt lat="44.24443" lon="6.69708">
        <ele>2125</ele>
        <time>2021-08-19T11:55:23Z</time>
      </trkpt>
      <trkpt lat="44.24447" lon="6.69713">
        <ele>2125</ele>
        <time>2021-08-19T11:55:34Z</time>
      </trkpt>
      <trkpt lat="44.24446" lon="6.69717">
        <ele>2125</ele>
        <time>2021-08-19T11:55:45Z</time>
      </trkpt>
      <trkpt lat="44.24444" lon="6.69717">
        <ele>2122</ele>
        <time>2021-08-19T11:55:54Z</time>
      </trkpt>
      <trkpt lat="44.24444" lon="6.69719">
        <ele>2122</ele>
        <time>2021-08-19T11:56:03Z</time>
      </trkpt>
      <trkpt lat="44.24446" lon="6.69715">
        <ele>2123</ele>
        <time>2021-08-19T11:56:12Z</time>
      </trkpt>
      <trkpt lat="44.24449" lon="6.69724">
        <ele>2121</ele>
        <time>2021-08-19T11:56:29Z</time>
      </trkpt>
      <trkpt lat="44.24448" lon="6.69722">
        <ele>2122</ele>
        <time>2021-08-19T11:56:42Z</time>
      </trkpt>
      <trkpt lat="44.24449" lon="6.69719">
        <ele>2123</ele>
        <time>2021-08-19T11:56:55Z</time>
      </trkpt>
      <trkpt lat="44.24452" lon="6.69724">
        <ele>2123</ele>
        <time>2021-08-19T11:57:04Z</time>
      </trkpt>
      <trkpt lat="44.2445" lon="6.69724">
        <ele>2123</ele>
        <time>2021-08-19T11:57:21Z</time>
      </trkpt>
      <trkpt lat="44.24452" lon="6.69729">
        <ele>2122</ele>
        <time>2021-08-19T11:57:33Z</time>
      </trkpt>
      <trkpt lat="44.24451" lon="6.69737">
        <ele>2122</ele>
        <time>2021-08-19T11:57:44Z</time>
      </trkpt>
      <trkpt lat="44.24455" lon="6.69752">
        <ele>2122</ele>
        <time>2021-08-19T11:57:54Z</time>
      </trkpt>
      <trkpt lat="44.24462" lon="6.6976">
        <ele>2122</ele>
        <time>2021-08-19T11:58:04Z</time>
      </trkpt>
      <trkpt lat="44.24469" lon="6.69763">
        <ele>2122</ele>
        <time>2021-08-19T11:58:13Z</time>
      </trkpt>
      <trkpt lat="44.24479" lon="6.69765">
        <ele>2122</ele>
        <time>2021-08-19T11:58:22Z</time>
      </trkpt>
      <trkpt lat="44.24485" lon="6.69771">
        <ele>2121</ele>
        <time>2021-08-19T11:58:33Z</time>
      </trkpt>
      <trkpt lat="44.24491" lon="6.69771">
        <ele>2126</ele>
        <time>2021-08-19T11:58:44Z</time>
      </trkpt>
      <trkpt lat="44.24498" lon="6.69781">
        <ele>2126</ele>
        <time>2021-08-19T11:58:53Z</time>
      </trkpt>
      <trkpt lat="44.24505" lon="6.69791">
        <ele>2121</ele>
        <time>2021-08-19T11:59:03Z</time>
      </trkpt>
      <trkpt lat="44.24515" lon="6.69799">
        <ele>2120</ele>
        <time>2021-08-19T11:59:13Z</time>
      </trkpt>
      <trkpt lat="44.24525" lon="6.69807">
        <ele>2118</ele>
        <time>2021-08-19T11:59:23Z</time>
      </trkpt>
      <trkpt lat="44.24534" lon="6.69812">
        <ele>2118</ele>
        <time>2021-08-19T11:59:32Z</time>
      </trkpt>
      <trkpt lat="44.24544" lon="6.69815">
        <ele>2118</ele>
        <time>2021-08-19T11:59:41Z</time>
      </trkpt>
      <trkpt lat="44.24553" lon="6.69813">
        <ele>2118</ele>
        <time>2021-08-19T11:59:50Z</time>
      </trkpt>
      <trkpt lat="44.2456" lon="6.69805">
        <ele>2118</ele>
        <time>2021-08-19T12:00:00Z</time>
      </trkpt>
      <trkpt lat="44.24568" lon="6.69802">
        <ele>2122</ele>
        <time>2021-08-19T12:00:09Z</time>
      </trkpt>
      <trkpt lat="44.24578" lon="6.69801">
        <ele>2122</ele>
        <time>2021-08-19T12:00:18Z</time>
      </trkpt>
      <trkpt lat="44.24588" lon="6.69803">
        <ele>2122</ele>
        <time>2021-08-19T12:00:27Z</time>
      </trkpt>
      <trkpt lat="44.24598" lon="6.69806">
        <ele>2122</ele>
        <time>2021-08-19T12:00:37Z</time>
      </trkpt>
      <trkpt lat="44.24607" lon="6.69813">
        <ele>2121</ele>
        <time>2021-08-19T12:00:46Z</time>
      </trkpt>
      <trkpt lat="44.24616" lon="6.69818">
        <ele>2121</ele>
        <time>2021-08-19T12:00:55Z</time>
      </trkpt>
      <trkpt lat="44.24626" lon="6.69823">
        <ele>2120</ele>
        <time>2021-08-19T12:01:05Z</time>
      </trkpt>
      <trkpt lat="44.24635" lon="6.69827">
        <ele>2120</ele>
        <time>2021-08-19T12:01:15Z</time>
      </trkpt>
      <trkpt lat="44.24645" lon="6.69829">
        <ele>2119</ele>
        <time>2021-08-19T12:01:25Z</time>
      </trkpt>
      <trkpt lat="44.24655" lon="6.69828">
        <ele>2119</ele>
        <time>2021-08-19T12:01:35Z</time>
      </trkpt>
      <trkpt lat="44.24664" lon="6.69826">
        <ele>2119</ele>
        <time>2021-08-19T12:01:44Z</time>
      </trkpt>
      <trkpt lat="44.24672" lon="6.69822">
        <ele>2118</ele>
        <time>2021-08-19T12:01:54Z</time>
      </trkpt>
      <trkpt lat="44.24681" lon="6.69815">
        <ele>2121</ele>
        <time>2021-08-19T12:02:03Z</time>
      </trkpt>
      <trkpt lat="44.24692" lon="6.69816">
        <ele>2121</ele>
        <time>2021-08-19T12:02:12Z</time>
      </trkpt>
      <trkpt lat="44.24702" lon="6.69821">
        <ele>2121</ele>
        <time>2021-08-19T12:02:22Z</time>
      </trkpt>
      <trkpt lat="44.24712" lon="6.69828">
        <ele>2119</ele>
        <time>2021-08-19T12:02:31Z</time>
      </trkpt>
      <trkpt lat="44.24719" lon="6.69835">
        <ele>2119</ele>
        <time>2021-08-19T12:02:40Z</time>
      </trkpt>
      <trkpt lat="44.24729" lon="6.69843">
        <ele>2117</ele>
        <time>2021-08-19T12:02:50Z</time>
      </trkpt>
      <trkpt lat="44.24734" lon="6.69846">
        <ele>2117</ele>
        <time>2021-08-19T12:02:59Z</time>
      </trkpt>
      <trkpt lat="44.24744" lon="6.69845">
        <ele>2117</ele>
        <time>2021-08-19T12:03:08Z</time>
      </trkpt>
      <trkpt lat="44.24753" lon="6.69849">
        <ele>2117</ele>
        <time>2021-08-19T12:03:17Z</time>
      </trkpt>
      <trkpt lat="44.24757" lon="6.69855">
        <ele>2117</ele>
        <time>2021-08-19T12:03:27Z</time>
      </trkpt>
      <trkpt lat="44.24758" lon="6.69857">
        <ele>2119</ele>
        <time>2021-08-19T12:03:36Z</time>
      </trkpt>
      <trkpt lat="44.24764" lon="6.6986">
        <ele>2119</ele>
        <time>2021-08-19T12:03:45Z</time>
      </trkpt>
      <trkpt lat="44.2477" lon="6.69868">
        <ele>2116</ele>
        <time>2021-08-19T12:03:56Z</time>
      </trkpt>
      <trkpt lat="44.24776" lon="6.6987">
        <ele>2111</ele>
        <time>2021-08-19T12:04:05Z</time>
      </trkpt>
      <trkpt lat="44.24781" lon="6.69865">
        <ele>2108</ele>
        <time>2021-08-19T12:04:15Z</time>
      </trkpt>
      <trkpt lat="44.24788" lon="6.69863">
        <ele>2107</ele>
        <time>2021-08-19T12:04:25Z</time>
      </trkpt>
      <trkpt lat="44.24796" lon="6.69862">
        <ele>2107</ele>
        <time>2021-08-19T12:04:35Z</time>
      </trkpt>
      <trkpt lat="44.24808" lon="6.69862">
        <ele>2107</ele>
        <time>2021-08-19T12:04:45Z</time>
      </trkpt>
      <trkpt lat="44.24815" lon="6.69862">
        <ele>2105</ele>
        <time>2021-08-19T12:04:54Z</time>
      </trkpt>
      <trkpt lat="44.24818" lon="6.69855">
        <ele>2101</ele>
        <time>2021-08-19T12:05:03Z</time>
      </trkpt>
      <trkpt lat="44.24826" lon="6.69852">
        <ele>2101</ele>
        <time>2021-08-19T12:05:12Z</time>
      </trkpt>
      <trkpt lat="44.24834" lon="6.69853">
        <ele>2098</ele>
        <time>2021-08-19T12:05:22Z</time>
      </trkpt>
      <trkpt lat="44.24843" lon="6.69856">
        <ele>2095</ele>
        <time>2021-08-19T12:05:31Z</time>
      </trkpt>
      <trkpt lat="44.2485" lon="6.69851">
        <ele>2095</ele>
        <time>2021-08-19T12:05:41Z</time>
      </trkpt>
      <trkpt lat="44.24851" lon="6.69844">
        <ele>2082</ele>
        <time>2021-08-19T12:05:54Z</time>
      </trkpt>
      <trkpt lat="44.24848" lon="6.69839">
        <ele>2075</ele>
        <time>2021-08-19T12:06:03Z</time>
      </trkpt>
      <trkpt lat="44.24844" lon="6.69834">
        <ele>2075</ele>
        <time>2021-08-19T12:06:12Z</time>
      </trkpt>
      <trkpt lat="44.24838" lon="6.69827">
        <ele>2075</ele>
        <time>2021-08-19T12:06:22Z</time>
      </trkpt>
      <trkpt lat="44.24844" lon="6.69824">
        <ele>2073</ele>
        <time>2021-08-19T12:06:32Z</time>
      </trkpt>
      <trkpt lat="44.24844" lon="6.69816">
        <ele>2073</ele>
        <time>2021-08-19T12:06:42Z</time>
      </trkpt>
      <trkpt lat="44.24842" lon="6.69806">
        <ele>2073</ele>
        <time>2021-08-19T12:06:52Z</time>
      </trkpt>
      <trkpt lat="44.24847" lon="6.69804">
        <ele>2071</ele>
        <time>2021-08-19T12:07:02Z</time>
      </trkpt>
      <trkpt lat="44.24854" lon="6.69801">
        <ele>2069</ele>
        <time>2021-08-19T12:07:12Z</time>
      </trkpt>
      <trkpt lat="44.24852" lon="6.69787">
        <ele>2063</ele>
        <time>2021-08-19T12:07:22Z</time>
      </trkpt>
      <trkpt lat="44.24849" lon="6.69779">
        <ele>2062</ele>
        <time>2021-08-19T12:07:32Z</time>
      </trkpt>
      <trkpt lat="44.24845" lon="6.6977">
        <ele>2062</ele>
        <time>2021-08-19T12:07:41Z</time>
      </trkpt>
      <trkpt lat="44.2484" lon="6.69759">
        <ele>2059</ele>
        <time>2021-08-19T12:07:50Z</time>
      </trkpt>
      <trkpt lat="44.24834" lon="6.69746">
        <ele>2054</ele>
        <time>2021-08-19T12:08:00Z</time>
      </trkpt>
      <trkpt lat="44.24827" lon="6.69739">
        <ele>2054</ele>
        <time>2021-08-19T12:08:10Z</time>
      </trkpt>
      <trkpt lat="44.24821" lon="6.69731">
        <ele>2054</ele>
        <time>2021-08-19T12:08:19Z</time>
      </trkpt>
      <trkpt lat="44.24815" lon="6.69723">
        <ele>2054</ele>
        <time>2021-08-19T12:08:29Z</time>
      </trkpt>
      <trkpt lat="44.24807" lon="6.69716">
        <ele>2052</ele>
        <time>2021-08-19T12:08:40Z</time>
      </trkpt>
      <trkpt lat="44.24805" lon="6.69707">
        <ele>2056</ele>
        <time>2021-08-19T12:08:49Z</time>
      </trkpt>
      <trkpt lat="44.24809" lon="6.69699">
        <ele>2054</ele>
        <time>2021-08-19T12:08:59Z</time>
      </trkpt>
      <trkpt lat="44.24815" lon="6.69693">
        <ele>2049</ele>
        <time>2021-08-19T12:09:09Z</time>
      </trkpt>
      <trkpt lat="44.24817" lon="6.69688">
        <ele>2041</ele>
        <time>2021-08-19T12:09:20Z</time>
      </trkpt>
      <trkpt lat="44.2482" lon="6.69679">
        <ele>2040</ele>
        <time>2021-08-19T12:09:29Z</time>
      </trkpt>
      <trkpt lat="44.2482" lon="6.69672">
        <ele>2038</ele>
        <time>2021-08-19T12:09:39Z</time>
      </trkpt>
      <trkpt lat="44.24822" lon="6.69672">
        <ele>2044</ele>
        <time>2021-08-19T12:09:50Z</time>
      </trkpt>
      <trkpt lat="44.24822" lon="6.69669">
        <ele>2051</ele>
        <time>2021-08-19T12:10:03Z</time>
      </trkpt>
      <trkpt lat="44.24822" lon="6.69672">
        <ele>2052</ele>
        <time>2021-08-19T12:10:15Z</time>
      </trkpt>
      <trkpt lat="44.24823" lon="6.69673">
        <ele>2049</ele>
        <time>2021-08-19T12:10:25Z</time>
      </trkpt>
      <trkpt lat="44.24813" lon="6.6967">
        <ele>2049</ele>
        <time>2021-08-19T12:10:34Z</time>
      </trkpt>
      <trkpt lat="44.24804" lon="6.6967">
        <ele>2049</ele>
        <time>2021-08-19T12:10:44Z</time>
      </trkpt>
      <trkpt lat="44.24796" lon="6.6967">
        <ele>2051</ele>
        <time>2021-08-19T12:10:53Z</time>
      </trkpt>
      <trkpt lat="44.24787" lon="6.6967">
        <ele>2049</ele>
        <time>2021-08-19T12:11:03Z</time>
      </trkpt>
      <trkpt lat="44.24781" lon="6.69673">
        <ele>2039</ele>
        <time>2021-08-19T12:11:13Z</time>
      </trkpt>
      <trkpt lat="44.24773" lon="6.69673">
        <ele>2038</ele>
        <time>2021-08-19T12:11:23Z</time>
      </trkpt>
      <trkpt lat="44.2477" lon="6.69674">
        <ele>2036</ele>
        <time>2021-08-19T12:11:35Z</time>
      </trkpt>
      <trkpt lat="44.24763" lon="6.69674">
        <ele>2027</ele>
        <time>2021-08-19T12:11:44Z</time>
      </trkpt>
      <trkpt lat="44.24757" lon="6.6967">
        <ele>2025</ele>
        <time>2021-08-19T12:11:55Z</time>
      </trkpt>
      <trkpt lat="44.24747" lon="6.69668">
        <ele>2032</ele>
        <time>2021-08-19T12:12:06Z</time>
      </trkpt>
      <trkpt lat="44.24741" lon="6.69668">
        <ele>2035</ele>
        <time>2021-08-19T12:12:17Z</time>
      </trkpt>
      <trkpt lat="44.24734" lon="6.69667">
        <ele>2025</ele>
        <time>2021-08-19T12:12:28Z</time>
      </trkpt>
      <trkpt lat="44.24733" lon="6.69657">
        <ele>2025</ele>
        <time>2021-08-19T12:12:38Z</time>
      </trkpt>
      <trkpt lat="44.24734" lon="6.69649">
        <ele>2025</ele>
        <time>2021-08-19T12:12:48Z</time>
      </trkpt>
      <trkpt lat="44.24738" lon="6.69642">
        <ele>2024</ele>
        <time>2021-08-19T12:12:58Z</time>
      </trkpt>
      <trkpt lat="44.24748" lon="6.69632">
        <ele>2024</ele>
        <time>2021-08-19T12:13:08Z</time>
      </trkpt>
      <trkpt lat="44.24754" lon="6.69626">
        <ele>2024</ele>
        <time>2021-08-19T12:13:20Z</time>
      </trkpt>
      <trkpt lat="44.24762" lon="6.69618">
        <ele>2021</ele>
        <time>2021-08-19T12:13:30Z</time>
      </trkpt>
      <trkpt lat="44.24769" lon="6.69609">
        <ele>2019</ele>
        <time>2021-08-19T12:13:40Z</time>
      </trkpt>
      <trkpt lat="44.24778" lon="6.696">
        <ele>2017</ele>
        <time>2021-08-19T12:13:50Z</time>
      </trkpt>
      <trkpt lat="44.24781" lon="6.69593">
        <ele>2011</ele>
        <time>2021-08-19T12:14:00Z</time>
      </trkpt>
      <trkpt lat="44.24781" lon="6.69581">
        <ele>2008</ele>
        <time>2021-08-19T12:14:10Z</time>
      </trkpt>
      <trkpt lat="44.2478" lon="6.6957">
        <ele>2004</ele>
        <time>2021-08-19T12:14:19Z</time>
      </trkpt>
      <trkpt lat="44.2478" lon="6.69562">
        <ele>2003</ele>
        <time>2021-08-19T12:14:28Z</time>
      </trkpt>
      <trkpt lat="44.24782" lon="6.69553">
        <ele>2001</ele>
        <time>2021-08-19T12:14:38Z</time>
      </trkpt>
      <trkpt lat="44.24787" lon="6.69546">
        <ele>2001</ele>
        <time>2021-08-19T12:14:48Z</time>
      </trkpt>
      <trkpt lat="44.24792" lon="6.69536">
        <ele>2001</ele>
        <time>2021-08-19T12:14:57Z</time>
      </trkpt>
      <trkpt lat="44.24794" lon="6.69531">
        <ele>2001</ele>
        <time>2021-08-19T12:15:06Z</time>
      </trkpt>
      <trkpt lat="44.248" lon="6.69521">
        <ele>2002</ele>
        <time>2021-08-19T12:15:15Z</time>
      </trkpt>
      <trkpt lat="44.24805" lon="6.69515">
        <ele>2004</ele>
        <time>2021-08-19T12:15:24Z</time>
      </trkpt>
      <trkpt lat="44.24811" lon="6.69503">
        <ele>1997</ele>
        <time>2021-08-19T12:15:33Z</time>
      </trkpt>
      <trkpt lat="44.24822" lon="6.69502">
        <ele>1998</ele>
        <time>2021-08-19T12:15:42Z</time>
      </trkpt>
      <trkpt lat="44.24829" lon="6.69502">
        <ele>1995</ele>
        <time>2021-08-19T12:15:53Z</time>
      </trkpt>
      <trkpt lat="44.24836" lon="6.69491">
        <ele>1995</ele>
        <time>2021-08-19T12:16:02Z</time>
      </trkpt>
      <trkpt lat="44.2484" lon="6.6948">
        <ele>1995</ele>
        <time>2021-08-19T12:16:12Z</time>
      </trkpt>
      <trkpt lat="44.24845" lon="6.69473">
        <ele>1992</ele>
        <time>2021-08-19T12:16:22Z</time>
      </trkpt>
      <trkpt lat="44.24848" lon="6.69459">
        <ele>1992</ele>
        <time>2021-08-19T12:16:32Z</time>
      </trkpt>
      <trkpt lat="44.24851" lon="6.69441">
        <ele>1992</ele>
        <time>2021-08-19T12:16:43Z</time>
      </trkpt>
      <trkpt lat="44.24857" lon="6.69428">
        <ele>1992</ele>
        <time>2021-08-19T12:16:53Z</time>
      </trkpt>
      <trkpt lat="44.2486" lon="6.69416">
        <ele>1990</ele>
        <time>2021-08-19T12:17:03Z</time>
      </trkpt>
      <trkpt lat="44.24864" lon="6.69402">
        <ele>1985</ele>
        <time>2021-08-19T12:17:12Z</time>
      </trkpt>
      <trkpt lat="44.24864" lon="6.69385">
        <ele>1976</ele>
        <time>2021-08-19T12:17:22Z</time>
      </trkpt>
      <trkpt lat="44.24868" lon="6.69374">
        <ele>1976</ele>
        <time>2021-08-19T12:17:31Z</time>
      </trkpt>
      <trkpt lat="44.24878" lon="6.69368">
        <ele>1976</ele>
        <time>2021-08-19T12:17:40Z</time>
      </trkpt>
      <trkpt lat="44.24886" lon="6.69365">
        <ele>1982</ele>
        <time>2021-08-19T12:17:49Z</time>
      </trkpt>
      <trkpt lat="44.24896" lon="6.69357">
        <ele>1991</ele>
        <time>2021-08-19T12:17:59Z</time>
      </trkpt>
      <trkpt lat="44.24902" lon="6.69345">
        <ele>1999</ele>
        <time>2021-08-19T12:18:08Z</time>
      </trkpt>
      <trkpt lat="44.24908" lon="6.69341">
        <ele>2007</ele>
        <time>2021-08-19T12:18:17Z</time>
      </trkpt>
      <trkpt lat="44.24915" lon="6.6933">
        <ele>2007</ele>
        <time>2021-08-19T12:18:27Z</time>
      </trkpt>
      <trkpt lat="44.24923" lon="6.69319">
        <ele>2000</ele>
        <time>2021-08-19T12:18:38Z</time>
      </trkpt>
      <trkpt lat="44.24933" lon="6.69313">
        <ele>2000</ele>
        <time>2021-08-19T12:18:48Z</time>
      </trkpt>
      <trkpt lat="44.24943" lon="6.69304">
        <ele>1998</ele>
        <time>2021-08-19T12:18:57Z</time>
      </trkpt>
      <trkpt lat="44.24956" lon="6.69297">
        <ele>1984</ele>
        <time>2021-08-19T12:19:06Z</time>
      </trkpt>
      <trkpt lat="44.24958" lon="6.69283">
        <ele>1977</ele>
        <time>2021-08-19T12:19:17Z</time>
      </trkpt>
      <trkpt lat="44.24961" lon="6.69279">
        <ele>1975</ele>
        <time>2021-08-19T12:19:27Z</time>
      </trkpt>
      <trkpt lat="44.24963" lon="6.69276">
        <ele>1975</ele>
        <time>2021-08-19T12:19:37Z</time>
      </trkpt>
      <trkpt lat="44.2497" lon="6.69266">
        <ele>1973</ele>
        <time>2021-08-19T12:19:47Z</time>
      </trkpt>
      <trkpt lat="44.24976" lon="6.69261">
        <ele>1967</ele>
        <time>2021-08-19T12:19:56Z</time>
      </trkpt>
      <trkpt lat="44.24978" lon="6.69254">
        <ele>1965</ele>
        <time>2021-08-19T12:20:05Z</time>
      </trkpt>
      <trkpt lat="44.2498" lon="6.69245">
        <ele>1968</ele>
        <time>2021-08-19T12:20:16Z</time>
      </trkpt>
      <trkpt lat="44.24982" lon="6.69238">
        <ele>1977</ele>
        <time>2021-08-19T12:20:26Z</time>
      </trkpt>
      <trkpt lat="44.24988" lon="6.69223">
        <ele>1980</ele>
        <time>2021-08-19T12:20:36Z</time>
      </trkpt>
      <trkpt lat="44.24996" lon="6.69211">
        <ele>1973</ele>
        <time>2021-08-19T12:20:46Z</time>
      </trkpt>
      <trkpt lat="44.24999" lon="6.692">
        <ele>1964</ele>
        <time>2021-08-19T12:20:55Z</time>
      </trkpt>
      <trkpt lat="44.25005" lon="6.69184">
        <ele>1964</ele>
        <time>2021-08-19T12:21:05Z</time>
      </trkpt>
      <trkpt lat="44.2501" lon="6.69174">
        <ele>1962</ele>
        <time>2021-08-19T12:21:17Z</time>
      </trkpt>
      <trkpt lat="44.25012" lon="6.69174">
        <ele>1954</ele>
        <time>2021-08-19T12:21:27Z</time>
      </trkpt>
      <trkpt lat="44.25013" lon="6.69158">
        <ele>1957</ele>
        <time>2021-08-19T12:21:37Z</time>
      </trkpt>
      <trkpt lat="44.25019" lon="6.69148">
        <ele>1967</ele>
        <time>2021-08-19T12:21:47Z</time>
      </trkpt>
      <trkpt lat="44.25026" lon="6.69143">
        <ele>1969</ele>
        <time>2021-08-19T12:21:56Z</time>
      </trkpt>
      <trkpt lat="44.25034" lon="6.69138">
        <ele>1965</ele>
        <time>2021-08-19T12:22:06Z</time>
      </trkpt>
      <trkpt lat="44.25041" lon="6.69137">
        <ele>1957</ele>
        <time>2021-08-19T12:22:17Z</time>
      </trkpt>
      <trkpt lat="44.25048" lon="6.69131">
        <ele>1955</ele>
        <time>2021-08-19T12:22:26Z</time>
      </trkpt>
      <trkpt lat="44.25056" lon="6.69123">
        <ele>1955</ele>
        <time>2021-08-19T12:22:36Z</time>
      </trkpt>
      <trkpt lat="44.25066" lon="6.69115">
        <ele>1949</ele>
        <time>2021-08-19T12:22:46Z</time>
      </trkpt>
      <trkpt lat="44.25072" lon="6.69113">
        <ele>1949</ele>
        <time>2021-08-19T12:22:56Z</time>
      </trkpt>
      <trkpt lat="44.25081" lon="6.69107">
        <ele>1949</ele>
        <time>2021-08-19T12:23:06Z</time>
      </trkpt>
      <trkpt lat="44.25083" lon="6.69098">
        <ele>1949</ele>
        <time>2021-08-19T12:23:16Z</time>
      </trkpt>
      <trkpt lat="44.25089" lon="6.69088">
        <ele>1949</ele>
        <time>2021-08-19T12:23:25Z</time>
      </trkpt>
      <trkpt lat="44.25095" lon="6.6908">
        <ele>1949</ele>
        <time>2021-08-19T12:23:34Z</time>
      </trkpt>
      <trkpt lat="44.25101" lon="6.69069">
        <ele>1951</ele>
        <time>2021-08-19T12:23:44Z</time>
      </trkpt>
      <trkpt lat="44.25108" lon="6.69062">
        <ele>1951</ele>
        <time>2021-08-19T12:23:53Z</time>
      </trkpt>
      <trkpt lat="44.25116" lon="6.69056">
        <ele>1946</ele>
        <time>2021-08-19T12:24:03Z</time>
      </trkpt>
      <trkpt lat="44.25121" lon="6.69049">
        <ele>1938</ele>
        <time>2021-08-19T12:24:12Z</time>
      </trkpt>
      <trkpt lat="44.25122" lon="6.69039">
        <ele>1934</ele>
        <time>2021-08-19T12:24:23Z</time>
      </trkpt>
      <trkpt lat="44.25122" lon="6.6903">
        <ele>1934</ele>
        <time>2021-08-19T12:24:32Z</time>
      </trkpt>
      <trkpt lat="44.25127" lon="6.69021">
        <ele>1931</ele>
        <time>2021-08-19T12:24:41Z</time>
      </trkpt>
      <trkpt lat="44.25131" lon="6.69006">
        <ele>1933</ele>
        <time>2021-08-19T12:24:51Z</time>
      </trkpt>
      <trkpt lat="44.25135" lon="6.69004">
        <ele>1930</ele>
        <time>2021-08-19T12:25:01Z</time>
      </trkpt>
      <trkpt lat="44.25133" lon="6.68994">
        <ele>1925</ele>
        <time>2021-08-19T12:25:10Z</time>
      </trkpt>
      <trkpt lat="44.25132" lon="6.68982">
        <ele>1919</ele>
        <time>2021-08-19T12:25:19Z</time>
      </trkpt>
      <trkpt lat="44.25136" lon="6.68972">
        <ele>1918</ele>
        <time>2021-08-19T12:25:28Z</time>
      </trkpt>
      <trkpt lat="44.25141" lon="6.68966">
        <ele>1919</ele>
        <time>2021-08-19T12:25:38Z</time>
      </trkpt>
      <trkpt lat="44.25147" lon="6.68967">
        <ele>1923</ele>
        <time>2021-08-19T12:25:52Z</time>
      </trkpt>
      <trkpt lat="44.25149" lon="6.68967">
        <ele>1923</ele>
        <time>2021-08-19T12:26:01Z</time>
      </trkpt>
      <trkpt lat="44.2515" lon="6.68968">
        <ele>1930</ele>
        <time>2021-08-19T12:26:13Z</time>
      </trkpt>
      <trkpt lat="44.25151" lon="6.68968">
        <ele>1930</ele>
        <time>2021-08-19T12:26:43Z</time>
      </trkpt>
      <trkpt lat="44.25156" lon="6.68971">
        <ele>1930</ele>
        <time>2021-08-19T12:26:52Z</time>
      </trkpt>
      <trkpt lat="44.25164" lon="6.68977">
        <ele>1930</ele>
        <time>2021-08-19T12:27:01Z</time>
      </trkpt>
      <trkpt lat="44.25174" lon="6.68987">
        <ele>1928</ele>
        <time>2021-08-19T12:27:11Z</time>
      </trkpt>
      <trkpt lat="44.2518" lon="6.68989">
        <ele>1927</ele>
        <time>2021-08-19T12:27:20Z</time>
      </trkpt>
      <trkpt lat="44.25188" lon="6.68988">
        <ele>1930</ele>
        <time>2021-08-19T12:27:31Z</time>
      </trkpt>
      <trkpt lat="44.25193" lon="6.68986">
        <ele>1934</ele>
        <time>2021-08-19T12:27:40Z</time>
      </trkpt>
      <trkpt lat="44.25203" lon="6.68986">
        <ele>1932</ele>
        <time>2021-08-19T12:27:51Z</time>
      </trkpt>
      <trkpt lat="44.25204" lon="6.68985">
        <ele>1922</ele>
        <time>2021-08-19T12:28:00Z</time>
      </trkpt>
      <trkpt lat="44.25208" lon="6.68989">
        <ele>1910</ele>
        <time>2021-08-19T12:28:09Z</time>
      </trkpt>
      <trkpt lat="44.25204" lon="6.68988">
        <ele>1898</ele>
        <time>2021-08-19T12:28:26Z</time>
      </trkpt>
      <trkpt lat="44.25199" lon="6.68984">
        <ele>1890</ele>
        <time>2021-08-19T12:28:35Z</time>
      </trkpt>
      <trkpt lat="44.2519" lon="6.68981">
        <ele>1890</ele>
        <time>2021-08-19T12:28:45Z</time>
      </trkpt>
      <trkpt lat="44.25185" lon="6.68974">
        <ele>1896</ele>
        <time>2021-08-19T12:28:54Z</time>
      </trkpt>
      <trkpt lat="44.25178" lon="6.68965">
        <ele>1905</ele>
        <time>2021-08-19T12:29:04Z</time>
      </trkpt>
      <trkpt lat="44.25169" lon="6.68957">
        <ele>1902</ele>
        <time>2021-08-19T12:29:14Z</time>
      </trkpt>
      <trkpt lat="44.25165" lon="6.68953">
        <ele>1898</ele>
        <time>2021-08-19T12:29:25Z</time>
      </trkpt>
      <trkpt lat="44.25155" lon="6.68949">
        <ele>1907</ele>
        <time>2021-08-19T12:29:34Z</time>
      </trkpt>
      <trkpt lat="44.25156" lon="6.68943">
        <ele>1908</ele>
        <time>2021-08-19T12:29:44Z</time>
      </trkpt>
      <trkpt lat="44.25166" lon="6.68942">
        <ele>1908</ele>
        <time>2021-08-19T12:29:53Z</time>
      </trkpt>
      <trkpt lat="44.25173" lon="6.68942">
        <ele>1908</ele>
        <time>2021-08-19T12:30:05Z</time>
      </trkpt>
      <trkpt lat="44.25176" lon="6.68939">
        <ele>1906</ele>
        <time>2021-08-19T12:30:14Z</time>
      </trkpt>
      <trkpt lat="44.25181" lon="6.68938">
        <ele>1904</ele>
        <time>2021-08-19T12:30:24Z</time>
      </trkpt>
      <trkpt lat="44.25178" lon="6.6893">
        <ele>1903</ele>
        <time>2021-08-19T12:30:35Z</time>
      </trkpt>
      <trkpt lat="44.25176" lon="6.68925">
        <ele>1897</ele>
        <time>2021-08-19T12:30:44Z</time>
      </trkpt>
      <trkpt lat="44.25176" lon="6.6892">
        <ele>1897</ele>
        <time>2021-08-19T12:30:55Z</time>
      </trkpt>
      <trkpt lat="44.25176" lon="6.68911">
        <ele>1897</ele>
        <time>2021-08-19T12:31:04Z</time>
      </trkpt>
      <trkpt lat="44.25182" lon="6.68906">
        <ele>1890</ele>
        <time>2021-08-19T12:31:14Z</time>
      </trkpt>
      <trkpt lat="44.25191" lon="6.68903">
        <ele>1890</ele>
        <time>2021-08-19T12:31:24Z</time>
      </trkpt>
      <trkpt lat="44.252" lon="6.68897">
        <ele>1895</ele>
        <time>2021-08-19T12:31:34Z</time>
      </trkpt>
      <trkpt lat="44.25204" lon="6.6889">
        <ele>1896</ele>
        <time>2021-08-19T12:31:43Z</time>
      </trkpt>
      <trkpt lat="44.25208" lon="6.6888">
        <ele>1901</ele>
        <time>2021-08-19T12:31:54Z</time>
      </trkpt>
      <trkpt lat="44.25211" lon="6.68872">
        <ele>1903</ele>
        <time>2021-08-19T12:32:04Z</time>
      </trkpt>
      <trkpt lat="44.25214" lon="6.68863">
        <ele>1903</ele>
        <time>2021-08-19T12:32:13Z</time>
      </trkpt>
      <trkpt lat="44.25219" lon="6.68849">
        <ele>1903</ele>
        <time>2021-08-19T12:32:22Z</time>
      </trkpt>
      <trkpt lat="44.25223" lon="6.68837">
        <ele>1905</ele>
        <time>2021-08-19T12:32:32Z</time>
      </trkpt>
      <trkpt lat="44.25227" lon="6.68825">
        <ele>1906</ele>
        <time>2021-08-19T12:32:42Z</time>
      </trkpt>
      <trkpt lat="44.25238" lon="6.68817">
        <ele>1907</ele>
        <time>2021-08-19T12:32:51Z</time>
      </trkpt>
      <trkpt lat="44.25246" lon="6.68807">
        <ele>1907</ele>
        <time>2021-08-19T12:33:01Z</time>
      </trkpt>
      <trkpt lat="44.25249" lon="6.68799">
        <ele>1907</ele>
        <time>2021-08-19T12:33:11Z</time>
      </trkpt>
      <trkpt lat="44.25251" lon="6.68789">
        <ele>1907</ele>
        <time>2021-08-19T12:33:20Z</time>
      </trkpt>
      <trkpt lat="44.25252" lon="6.68779">
        <ele>1907</ele>
        <time>2021-08-19T12:33:29Z</time>
      </trkpt>
      <trkpt lat="44.25253" lon="6.68769">
        <ele>1907</ele>
        <time>2021-08-19T12:33:39Z</time>
      </trkpt>
      <trkpt lat="44.25257" lon="6.68754">
        <ele>1907</ele>
        <time>2021-08-19T12:33:49Z</time>
      </trkpt>
      <trkpt lat="44.25265" lon="6.68741">
        <ele>1907</ele>
        <time>2021-08-19T12:33:59Z</time>
      </trkpt>
      <trkpt lat="44.2527" lon="6.68728">
        <ele>1907</ele>
        <time>2021-08-19T12:34:08Z</time>
      </trkpt>
      <trkpt lat="44.25275" lon="6.68717">
        <ele>1905</ele>
        <time>2021-08-19T12:34:17Z</time>
      </trkpt>
      <trkpt lat="44.25278" lon="6.68705">
        <ele>1905</ele>
        <time>2021-08-19T12:34:26Z</time>
      </trkpt>
      <trkpt lat="44.25283" lon="6.68691">
        <ele>1902</ele>
        <time>2021-08-19T12:34:36Z</time>
      </trkpt>
      <trkpt lat="44.25287" lon="6.6868">
        <ele>1902</ele>
        <time>2021-08-19T12:34:45Z</time>
      </trkpt>
      <trkpt lat="44.25289" lon="6.6867">
        <ele>1902</ele>
        <time>2021-08-19T12:34:56Z</time>
      </trkpt>
      <trkpt lat="44.25294" lon="6.68664">
        <ele>1902</ele>
        <time>2021-08-19T12:35:06Z</time>
      </trkpt>
      <trkpt lat="44.25296" lon="6.68662">
        <ele>1890</ele>
        <time>2021-08-19T12:35:18Z</time>
      </trkpt>
      <trkpt lat="44.25299" lon="6.6865">
        <ele>1890</ele>
        <time>2021-08-19T12:35:27Z</time>
      </trkpt>
      <trkpt lat="44.25299" lon="6.68639">
        <ele>1893</ele>
        <time>2021-08-19T12:35:36Z</time>
      </trkpt>
      <trkpt lat="44.25299" lon="6.68626">
        <ele>1899</ele>
        <time>2021-08-19T12:35:46Z</time>
      </trkpt>
      <trkpt lat="44.25303" lon="6.68613">
        <ele>1899</ele>
        <time>2021-08-19T12:35:55Z</time>
      </trkpt>
      <trkpt lat="44.25306" lon="6.68597">
        <ele>1899</ele>
        <time>2021-08-19T12:36:04Z</time>
      </trkpt>
      <trkpt lat="44.25311" lon="6.68583">
        <ele>1900</ele>
        <time>2021-08-19T12:36:14Z</time>
      </trkpt>
      <trkpt lat="44.25317" lon="6.68573">
        <ele>1900</ele>
        <time>2021-08-19T12:36:24Z</time>
      </trkpt>
      <trkpt lat="44.25322" lon="6.68559">
        <ele>1896</ele>
        <time>2021-08-19T12:36:34Z</time>
      </trkpt>
      <trkpt lat="44.25322" lon="6.68546">
        <ele>1896</ele>
        <time>2021-08-19T12:36:43Z</time>
      </trkpt>
      <trkpt lat="44.25325" lon="6.68532">
        <ele>1896</ele>
        <time>2021-08-19T12:36:52Z</time>
      </trkpt>
      <trkpt lat="44.2533" lon="6.68521">
        <ele>1890</ele>
        <time>2021-08-19T12:37:01Z</time>
      </trkpt>
      <trkpt lat="44.25333" lon="6.68507">
        <ele>1883</ele>
        <time>2021-08-19T12:37:11Z</time>
      </trkpt>
      <trkpt lat="44.25332" lon="6.685">
        <ele>1880</ele>
        <time>2021-08-19T12:37:22Z</time>
      </trkpt>
      <trkpt lat="44.25338" lon="6.68495">
        <ele>1879</ele>
        <time>2021-08-19T12:37:32Z</time>
      </trkpt>
      <trkpt lat="44.25339" lon="6.68489">
        <ele>1881</ele>
        <time>2021-08-19T12:37:42Z</time>
      </trkpt>
      <trkpt lat="44.25339" lon="6.6848">
        <ele>1883</ele>
        <time>2021-08-19T12:37:56Z</time>
      </trkpt>
      <trkpt lat="44.25334" lon="6.68474">
        <ele>1883</ele>
        <time>2021-08-19T12:38:06Z</time>
      </trkpt>
      <trkpt lat="44.25328" lon="6.68465">
        <ele>1883</ele>
        <time>2021-08-19T12:38:16Z</time>
      </trkpt>
      <trkpt lat="44.2532" lon="6.68456">
        <ele>1881</ele>
        <time>2021-08-19T12:38:26Z</time>
      </trkpt>
      <trkpt lat="44.25319" lon="6.68445">
        <ele>1878</ele>
        <time>2021-08-19T12:38:35Z</time>
      </trkpt>
      <trkpt lat="44.25317" lon="6.68433">
        <ele>1877</ele>
        <time>2021-08-19T12:38:44Z</time>
      </trkpt>
      <trkpt lat="44.25313" lon="6.68418">
        <ele>1875</ele>
        <time>2021-08-19T12:38:53Z</time>
      </trkpt>
      <trkpt lat="44.25308" lon="6.68404">
        <ele>1875</ele>
        <time>2021-08-19T12:39:02Z</time>
      </trkpt>
      <trkpt lat="44.25307" lon="6.68391">
        <ele>1875</ele>
        <time>2021-08-19T12:39:11Z</time>
      </trkpt>
      <trkpt lat="44.25302" lon="6.68378">
        <ele>1874</ele>
        <time>2021-08-19T12:39:20Z</time>
      </trkpt>
      <trkpt lat="44.25299" lon="6.68368">
        <ele>1875</ele>
        <time>2021-08-19T12:39:30Z</time>
      </trkpt>
      <trkpt lat="44.25293" lon="6.6836">
        <ele>1875</ele>
        <time>2021-08-19T12:39:39Z</time>
      </trkpt>
      <trkpt lat="44.25292" lon="6.68354">
        <ele>1875</ele>
        <time>2021-08-19T12:39:50Z</time>
      </trkpt>
      <trkpt lat="44.25289" lon="6.68341">
        <ele>1871</ele>
        <time>2021-08-19T12:39:59Z</time>
      </trkpt>
      <trkpt lat="44.25284" lon="6.68332">
        <ele>1869</ele>
        <time>2021-08-19T12:40:08Z</time>
      </trkpt>
      <trkpt lat="44.2528" lon="6.6832">
        <ele>1869</ele>
        <time>2021-08-19T12:40:17Z</time>
      </trkpt>
      <trkpt lat="44.25275" lon="6.68304">
        <ele>1869</ele>
        <time>2021-08-19T12:40:27Z</time>
      </trkpt>
      <trkpt lat="44.25268" lon="6.68291">
        <ele>1871</ele>
        <time>2021-08-19T12:40:37Z</time>
      </trkpt>
      <trkpt lat="44.25264" lon="6.68278">
        <ele>1873</ele>
        <time>2021-08-19T12:40:46Z</time>
      </trkpt>
      <trkpt lat="44.25264" lon="6.68263">
        <ele>1873</ele>
        <time>2021-08-19T12:40:55Z</time>
      </trkpt>
      <trkpt lat="44.25258" lon="6.68251">
        <ele>1873</ele>
        <time>2021-08-19T12:41:04Z</time>
      </trkpt>
      <trkpt lat="44.25253" lon="6.68239">
        <ele>1875</ele>
        <time>2021-08-19T12:41:14Z</time>
      </trkpt>
      <trkpt lat="44.25251" lon="6.68229">
        <ele>1875</ele>
        <time>2021-08-19T12:41:23Z</time>
      </trkpt>
      <trkpt lat="44.25249" lon="6.68214">
        <ele>1874</ele>
        <time>2021-08-19T12:41:32Z</time>
      </trkpt>
      <trkpt lat="44.25248" lon="6.68198">
        <ele>1871</ele>
        <time>2021-08-19T12:41:42Z</time>
      </trkpt>
      <trkpt lat="44.25247" lon="6.68187">
        <ele>1868</ele>
        <time>2021-08-19T12:41:51Z</time>
      </trkpt>
      <trkpt lat="44.25245" lon="6.68179">
        <ele>1867</ele>
        <time>2021-08-19T12:42:00Z</time>
      </trkpt>
      <trkpt lat="44.2524" lon="6.68168">
        <ele>1865</ele>
        <time>2021-08-19T12:42:09Z</time>
      </trkpt>
      <trkpt lat="44.25236" lon="6.68163">
        <ele>1863</ele>
        <time>2021-08-19T12:42:18Z</time>
      </trkpt>
      <trkpt lat="44.25234" lon="6.68156">
        <ele>1862</ele>
        <time>2021-08-19T12:42:28Z</time>
      </trkpt>
      <trkpt lat="44.25229" lon="6.68149">
        <ele>1862</ele>
        <time>2021-08-19T12:42:37Z</time>
      </trkpt>
      <trkpt lat="44.25223" lon="6.68138">
        <ele>1862</ele>
        <time>2021-08-19T12:42:46Z</time>
      </trkpt>
      <trkpt lat="44.25215" lon="6.68126">
        <ele>1863</ele>
        <time>2021-08-19T12:42:55Z</time>
      </trkpt>
      <trkpt lat="44.25211" lon="6.68117">
        <ele>1862</ele>
        <time>2021-08-19T12:43:04Z</time>
      </trkpt>
      <trkpt lat="44.25206" lon="6.68106">
        <ele>1859</ele>
        <time>2021-08-19T12:43:13Z</time>
      </trkpt>
      <trkpt lat="44.25206" lon="6.68098">
        <ele>1854</ele>
        <time>2021-08-19T12:43:29Z</time>
      </trkpt>
      <trkpt lat="44.25207" lon="6.681">
        <ele>1854</ele>
        <time>2021-08-19T12:43:41Z</time>
      </trkpt>
      <trkpt lat="44.25213" lon="6.68099">
        <ele>1848</ele>
        <time>2021-08-19T12:43:51Z</time>
      </trkpt>
      <trkpt lat="44.25205" lon="6.68097">
        <ele>1854</ele>
        <time>2021-08-19T12:44:01Z</time>
      </trkpt>
      <trkpt lat="44.25207" lon="6.68091">
        <ele>1859</ele>
        <time>2021-08-19T12:44:11Z</time>
      </trkpt>
      <trkpt lat="44.25204" lon="6.6808">
        <ele>1856</ele>
        <time>2021-08-19T12:44:20Z</time>
      </trkpt>
      <trkpt lat="44.252" lon="6.68065">
        <ele>1856</ele>
        <time>2021-08-19T12:44:29Z</time>
      </trkpt>
      <trkpt lat="44.25198" lon="6.68052">
        <ele>1856</ele>
        <time>2021-08-19T12:44:39Z</time>
      </trkpt>
      <trkpt lat="44.25198" lon="6.6804">
        <ele>1856</ele>
        <time>2021-08-19T12:44:48Z</time>
      </trkpt>
      <trkpt lat="44.25196" lon="6.68032">
        <ele>1855</ele>
        <time>2021-08-19T12:44:57Z</time>
      </trkpt>
      <trkpt lat="44.25195" lon="6.68024">
        <ele>1854</ele>
        <time>2021-08-19T12:45:06Z</time>
      </trkpt>
      <trkpt lat="44.25194" lon="6.68017">
        <ele>1850</ele>
        <time>2021-08-19T12:45:16Z</time>
      </trkpt>
      <trkpt lat="44.25193" lon="6.68008">
        <ele>1848</ele>
        <time>2021-08-19T12:45:25Z</time>
      </trkpt>
      <trkpt lat="44.25193" lon="6.67997">
        <ele>1848</ele>
        <time>2021-08-19T12:45:35Z</time>
      </trkpt>
      <trkpt lat="44.25197" lon="6.67986">
        <ele>1848</ele>
        <time>2021-08-19T12:45:45Z</time>
      </trkpt>
      <trkpt lat="44.25198" lon="6.67983">
        <ele>1848</ele>
        <time>2021-08-19T12:45:54Z</time>
      </trkpt>
      <trkpt lat="44.252" lon="6.67976">
        <ele>1848</ele>
        <time>2021-08-19T12:46:04Z</time>
      </trkpt>
      <trkpt lat="44.25201" lon="6.67971">
        <ele>1848</ele>
        <time>2021-08-19T12:46:14Z</time>
      </trkpt>
      <trkpt lat="44.25198" lon="6.6797">
        <ele>1848</ele>
        <time>2021-08-19T12:46:25Z</time>
      </trkpt>
      <trkpt lat="44.25198" lon="6.67965">
        <ele>1846</ele>
        <time>2021-08-19T12:46:36Z</time>
      </trkpt>
      <trkpt lat="44.25196" lon="6.67959">
        <ele>1846</ele>
        <time>2021-08-19T12:46:45Z</time>
      </trkpt>
      <trkpt lat="44.25193" lon="6.6796">
        <ele>1841</ele>
        <time>2021-08-19T12:47:01Z</time>
      </trkpt>
      <trkpt lat="44.25192" lon="6.6796">
        <ele>1834</ele>
        <time>2021-08-19T12:47:15Z</time>
      </trkpt>
      <trkpt lat="44.2519" lon="6.67952">
        <ele>1832</ele>
        <time>2021-08-19T12:47:26Z</time>
      </trkpt>
      <trkpt lat="44.25188" lon="6.67944">
        <ele>1831</ele>
        <time>2021-08-19T12:47:35Z</time>
      </trkpt>
      <trkpt lat="44.25186" lon="6.67934">
        <ele>1831</ele>
        <time>2021-08-19T12:47:45Z</time>
      </trkpt>
      <trkpt lat="44.25186" lon="6.67925">
        <ele>1828</ele>
        <time>2021-08-19T12:47:54Z</time>
      </trkpt>
      <trkpt lat="44.25186" lon="6.67913">
        <ele>1826</ele>
        <time>2021-08-19T12:48:03Z</time>
      </trkpt>
      <trkpt lat="44.25182" lon="6.67919">
        <ele>1821</ele>
        <time>2021-08-19T12:48:13Z</time>
      </trkpt>
      <trkpt lat="44.25179" lon="6.67926">
        <ele>1818</ele>
        <time>2021-08-19T12:48:22Z</time>
      </trkpt>
      <trkpt lat="44.25174" lon="6.67932">
        <ele>1817</ele>
        <time>2021-08-19T12:48:31Z</time>
      </trkpt>
      <trkpt lat="44.25166" lon="6.67942">
        <ele>1818</ele>
        <time>2021-08-19T12:48:41Z</time>
      </trkpt>
      <trkpt lat="44.25161" lon="6.67951">
        <ele>1819</ele>
        <time>2021-08-19T12:48:50Z</time>
      </trkpt>
      <trkpt lat="44.25157" lon="6.67962">
        <ele>1819</ele>
        <time>2021-08-19T12:49:00Z</time>
      </trkpt>
      <trkpt lat="44.25155" lon="6.6797">
        <ele>1819</ele>
        <time>2021-08-19T12:49:09Z</time>
      </trkpt>
      <trkpt lat="44.25153" lon="6.67966">
        <ele>1814</ele>
        <time>2021-08-19T12:49:18Z</time>
      </trkpt>
      <trkpt lat="44.2515" lon="6.67958">
        <ele>1807</ele>
        <time>2021-08-19T12:49:27Z</time>
      </trkpt>
      <trkpt lat="44.25146" lon="6.67948">
        <ele>1802</ele>
        <time>2021-08-19T12:49:37Z</time>
      </trkpt>
      <trkpt lat="44.25141" lon="6.67936">
        <ele>1797</ele>
        <time>2021-08-19T12:49:47Z</time>
      </trkpt>
      <trkpt lat="44.25139" lon="6.67927">
        <ele>1793</ele>
        <time>2021-08-19T12:49:57Z</time>
      </trkpt>
      <trkpt lat="44.25136" lon="6.6792">
        <ele>1791</ele>
        <time>2021-08-19T12:50:07Z</time>
      </trkpt>
      <trkpt lat="44.25135" lon="6.67909">
        <ele>1789</ele>
        <time>2021-08-19T12:50:16Z</time>
      </trkpt>
      <trkpt lat="44.25134" lon="6.67896">
        <ele>1784</ele>
        <time>2021-08-19T12:50:26Z</time>
      </trkpt>
      <trkpt lat="44.25137" lon="6.67884">
        <ele>1783</ele>
        <time>2021-08-19T12:50:36Z</time>
      </trkpt>
      <trkpt lat="44.25137" lon="6.67871">
        <ele>1783</ele>
        <time>2021-08-19T12:50:45Z</time>
      </trkpt>
      <trkpt lat="44.25137" lon="6.67866">
        <ele>1783</ele>
        <time>2021-08-19T12:50:54Z</time>
      </trkpt>
      <trkpt lat="44.25136" lon="6.67856">
        <ele>1783</ele>
        <time>2021-08-19T12:51:04Z</time>
      </trkpt>
      <trkpt lat="44.25135" lon="6.67846">
        <ele>1783</ele>
        <time>2021-08-19T12:51:13Z</time>
      </trkpt>
      <trkpt lat="44.25131" lon="6.67833">
        <ele>1779</ele>
        <time>2021-08-19T12:51:23Z</time>
      </trkpt>
      <trkpt lat="44.25127" lon="6.67821">
        <ele>1778</ele>
        <time>2021-08-19T12:51:32Z</time>
      </trkpt>
      <trkpt lat="44.25124" lon="6.67807">
        <ele>1778</ele>
        <time>2021-08-19T12:51:41Z</time>
      </trkpt>
      <trkpt lat="44.25119" lon="6.67795">
        <ele>1778</ele>
        <time>2021-08-19T12:51:51Z</time>
      </trkpt>
      <trkpt lat="44.25115" lon="6.67784">
        <ele>1777</ele>
        <time>2021-08-19T12:52:01Z</time>
      </trkpt>
      <trkpt lat="44.2511" lon="6.67775">
        <ele>1778</ele>
        <time>2021-08-19T12:52:11Z</time>
      </trkpt>
      <trkpt lat="44.25107" lon="6.67764">
        <ele>1777</ele>
        <time>2021-08-19T12:52:21Z</time>
      </trkpt>
      <trkpt lat="44.25104" lon="6.67752">
        <ele>1773</ele>
        <time>2021-08-19T12:52:30Z</time>
      </trkpt>
      <trkpt lat="44.25103" lon="6.6774">
        <ele>1772</ele>
        <time>2021-08-19T12:52:39Z</time>
      </trkpt>
      <trkpt lat="44.25099" lon="6.6773">
        <ele>1773</ele>
        <time>2021-08-19T12:52:49Z</time>
      </trkpt>
      <trkpt lat="44.25098" lon="6.67722">
        <ele>1773</ele>
        <time>2021-08-19T12:52:59Z</time>
      </trkpt>
      <trkpt lat="44.25097" lon="6.67715">
        <ele>1771</ele>
        <time>2021-08-19T12:53:08Z</time>
      </trkpt>
      <trkpt lat="44.25096" lon="6.67704">
        <ele>1770</ele>
        <time>2021-08-19T12:53:17Z</time>
      </trkpt>
      <trkpt lat="44.25093" lon="6.67692">
        <ele>1768</ele>
        <time>2021-08-19T12:53:26Z</time>
      </trkpt>
      <trkpt lat="44.25091" lon="6.67678">
        <ele>1766</ele>
        <time>2021-08-19T12:53:36Z</time>
      </trkpt>
      <trkpt lat="44.25089" lon="6.67667">
        <ele>1765</ele>
        <time>2021-08-19T12:53:46Z</time>
      </trkpt>
      <trkpt lat="44.25086" lon="6.67653">
        <ele>1762</ele>
        <time>2021-08-19T12:53:56Z</time>
      </trkpt>
      <trkpt lat="44.25083" lon="6.67641">
        <ele>1758</ele>
        <time>2021-08-19T12:54:06Z</time>
      </trkpt>
      <trkpt lat="44.25079" lon="6.67628">
        <ele>1757</ele>
        <time>2021-08-19T12:54:16Z</time>
      </trkpt>
      <trkpt lat="44.25076" lon="6.67614">
        <ele>1757</ele>
        <time>2021-08-19T12:54:26Z</time>
      </trkpt>
      <trkpt lat="44.25073" lon="6.67603">
        <ele>1757</ele>
        <time>2021-08-19T12:54:35Z</time>
      </trkpt>
      <trkpt lat="44.25069" lon="6.67593">
        <ele>1757</ele>
        <time>2021-08-19T12:54:45Z</time>
      </trkpt>
      <trkpt lat="44.25069" lon="6.67589">
        <ele>1755</ele>
        <time>2021-08-19T12:54:54Z</time>
      </trkpt>
      <trkpt lat="44.25063" lon="6.6758">
        <ele>1753</ele>
        <time>2021-08-19T12:55:04Z</time>
      </trkpt>
      <trkpt lat="44.2506" lon="6.67572">
        <ele>1752</ele>
        <time>2021-08-19T12:55:15Z</time>
      </trkpt>
      <trkpt lat="44.25056" lon="6.67565">
        <ele>1752</ele>
        <time>2021-08-19T12:55:25Z</time>
      </trkpt>
      <trkpt lat="44.25049" lon="6.67558">
        <ele>1752</ele>
        <time>2021-08-19T12:55:35Z</time>
      </trkpt>
      <trkpt lat="44.25043" lon="6.6755">
        <ele>1751</ele>
        <time>2021-08-19T12:55:46Z</time>
      </trkpt>
      <trkpt lat="44.25034" lon="6.67546">
        <ele>1751</ele>
        <time>2021-08-19T12:55:56Z</time>
      </trkpt>
      <trkpt lat="44.25026" lon="6.67541">
        <ele>1751</ele>
        <time>2021-08-19T12:56:06Z</time>
      </trkpt>
      <trkpt lat="44.25019" lon="6.67533">
        <ele>1752</ele>
        <time>2021-08-19T12:56:16Z</time>
      </trkpt>
      <trkpt lat="44.25013" lon="6.67524">
        <ele>1751</ele>
        <time>2021-08-19T12:56:25Z</time>
      </trkpt>
      <trkpt lat="44.25004" lon="6.67515">
        <ele>1741</ele>
        <time>2021-08-19T12:56:35Z</time>
      </trkpt>
      <trkpt lat="44.24995" lon="6.6751">
        <ele>1740</ele>
        <time>2021-08-19T12:56:45Z</time>
      </trkpt>
      <trkpt lat="44.24995" lon="6.67502">
        <ele>1739</ele>
        <time>2021-08-19T12:56:55Z</time>
      </trkpt>
      <trkpt lat="44.24987" lon="6.67496">
        <ele>1739</ele>
        <time>2021-08-19T12:57:05Z</time>
      </trkpt>
      <trkpt lat="44.24982" lon="6.67493">
        <ele>1739</ele>
        <time>2021-08-19T12:57:16Z</time>
      </trkpt>
      <trkpt lat="44.24976" lon="6.67487">
        <ele>1737</ele>
        <time>2021-08-19T12:57:25Z</time>
      </trkpt>
      <trkpt lat="44.24968" lon="6.67481">
        <ele>1731</ele>
        <time>2021-08-19T12:57:36Z</time>
      </trkpt>
      <trkpt lat="44.24963" lon="6.67472">
        <ele>1730</ele>
        <time>2021-08-19T12:57:45Z</time>
      </trkpt>
      <trkpt lat="44.24958" lon="6.6746">
        <ele>1723</ele>
        <time>2021-08-19T12:57:54Z</time>
      </trkpt>
      <trkpt lat="44.24955" lon="6.67449">
        <ele>1721</ele>
        <time>2021-08-19T12:58:04Z</time>
      </trkpt>
      <trkpt lat="44.24952" lon="6.67438">
        <ele>1718</ele>
        <time>2021-08-19T12:58:14Z</time>
      </trkpt>
      <trkpt lat="44.24948" lon="6.67423">
        <ele>1717</ele>
        <time>2021-08-19T12:58:24Z</time>
      </trkpt>
      <trkpt lat="44.24939" lon="6.67422">
        <ele>1717</ele>
        <time>2021-08-19T12:58:34Z</time>
      </trkpt>
      <trkpt lat="44.24937" lon="6.67436">
        <ele>1717</ele>
        <time>2021-08-19T12:58:43Z</time>
      </trkpt>
      <trkpt lat="44.24939" lon="6.67451">
        <ele>1714</ele>
        <time>2021-08-19T12:58:52Z</time>
      </trkpt>
      <trkpt lat="44.24934" lon="6.67462">
        <ele>1712</ele>
        <time>2021-08-19T12:59:02Z</time>
      </trkpt>
      <trkpt lat="44.24923" lon="6.67464">
        <ele>1712</ele>
        <time>2021-08-19T12:59:11Z</time>
      </trkpt>
      <trkpt lat="44.24912" lon="6.67462">
        <ele>1712</ele>
        <time>2021-08-19T12:59:21Z</time>
      </trkpt>
      <trkpt lat="44.24902" lon="6.67463">
        <ele>1713</ele>
        <time>2021-08-19T12:59:31Z</time>
      </trkpt>
      <trkpt lat="44.24899" lon="6.6747">
        <ele>1714</ele>
        <time>2021-08-19T12:59:40Z</time>
      </trkpt>
      <trkpt lat="44.24894" lon="6.67479">
        <ele>1716</ele>
        <time>2021-08-19T12:59:50Z</time>
      </trkpt>
      <trkpt lat="44.24884" lon="6.67487">
        <ele>1716</ele>
        <time>2021-08-19T13:00:00Z</time>
      </trkpt>
      <trkpt lat="44.24875" lon="6.67492">
        <ele>1716</ele>
        <time>2021-08-19T13:00:10Z</time>
      </trkpt>
      <trkpt lat="44.2487" lon="6.67502">
        <ele>1716</ele>
        <time>2021-08-19T13:00:20Z</time>
      </trkpt>
      <trkpt lat="44.24868" lon="6.67513">
        <ele>1716</ele>
        <time>2021-08-19T13:00:30Z</time>
      </trkpt>
      <trkpt lat="44.24865" lon="6.67521">
        <ele>1719</ele>
        <time>2021-08-19T13:00:40Z</time>
      </trkpt>
      <trkpt lat="44.2486" lon="6.67531">
        <ele>1721</ele>
        <time>2021-08-19T13:00:50Z</time>
      </trkpt>
      <trkpt lat="44.24858" lon="6.67539">
        <ele>1724</ele>
        <time>2021-08-19T13:00:59Z</time>
      </trkpt>
      <trkpt lat="44.24854" lon="6.67547">
        <ele>1727</ele>
        <time>2021-08-19T13:01:09Z</time>
      </trkpt>
      <trkpt lat="44.24849" lon="6.67554">
        <ele>1728</ele>
        <time>2021-08-19T13:01:19Z</time>
      </trkpt>
      <trkpt lat="44.24842" lon="6.67559">
        <ele>1729</ele>
        <time>2021-08-19T13:01:29Z</time>
      </trkpt>
      <trkpt lat="44.24833" lon="6.67561">
        <ele>1729</ele>
        <time>2021-08-19T13:01:39Z</time>
      </trkpt>
      <trkpt lat="44.24827" lon="6.67557">
        <ele>1734</ele>
        <time>2021-08-19T13:01:51Z</time>
      </trkpt>
      <trkpt lat="44.2482" lon="6.67551">
        <ele>1734</ele>
        <time>2021-08-19T13:02:02Z</time>
      </trkpt>
      <trkpt lat="44.24816" lon="6.6754">
        <ele>1734</ele>
        <time>2021-08-19T13:02:13Z</time>
      </trkpt>
      <trkpt lat="44.24812" lon="6.67532">
        <ele>1735</ele>
        <time>2021-08-19T13:02:23Z</time>
      </trkpt>
      <trkpt lat="44.24809" lon="6.67523">
        <ele>1740</ele>
        <time>2021-08-19T13:02:33Z</time>
      </trkpt>
      <trkpt lat="44.24805" lon="6.67514">
        <ele>1742</ele>
        <time>2021-08-19T13:02:42Z</time>
      </trkpt>
      <trkpt lat="44.24799" lon="6.67503">
        <ele>1745</ele>
        <time>2021-08-19T13:02:53Z</time>
      </trkpt>
      <trkpt lat="44.24796" lon="6.67495">
        <ele>1746</ele>
        <time>2021-08-19T13:03:04Z</time>
      </trkpt>
      <trkpt lat="44.24789" lon="6.67487">
        <ele>1747</ele>
        <time>2021-08-19T13:03:14Z</time>
      </trkpt>
      <trkpt lat="44.24785" lon="6.67479">
        <ele>1747</ele>
        <time>2021-08-19T13:03:24Z</time>
      </trkpt>
      <trkpt lat="44.24779" lon="6.67471">
        <ele>1739</ele>
        <time>2021-08-19T13:03:34Z</time>
      </trkpt>
      <trkpt lat="44.2477" lon="6.67458">
        <ele>1736</ele>
        <time>2021-08-19T13:03:44Z</time>
      </trkpt>
      <trkpt lat="44.24762" lon="6.6745">
        <ele>1736</ele>
        <time>2021-08-19T13:03:54Z</time>
      </trkpt>
      <trkpt lat="44.24753" lon="6.67447">
        <ele>1736</ele>
        <time>2021-08-19T13:04:03Z</time>
      </trkpt>
      <trkpt lat="44.24749" lon="6.67449">
        <ele>1750</ele>
        <time>2021-08-19T13:04:19Z</time>
      </trkpt>
      <trkpt lat="44.24746" lon="6.6745">
        <ele>1763</ele>
        <time>2021-08-19T13:04:32Z</time>
      </trkpt>
      <trkpt lat="44.24746" lon="6.67446">
        <ele>1773</ele>
        <time>2021-08-19T13:04:44Z</time>
      </trkpt>
      <trkpt lat="44.24746" lon="6.67442">
        <ele>1779</ele>
        <time>2021-08-19T13:04:54Z</time>
      </trkpt>
      <trkpt lat="44.24754" lon="6.67437">
        <ele>1783</ele>
        <time>2021-08-19T13:05:04Z</time>
      </trkpt>
      <trkpt lat="44.24763" lon="6.67429">
        <ele>1775</ele>
        <time>2021-08-19T13:05:13Z</time>
      </trkpt>
      <trkpt lat="44.24775" lon="6.6742">
        <ele>1758</ele>
        <time>2021-08-19T13:05:23Z</time>
      </trkpt>
      <trkpt lat="44.24781" lon="6.67416">
        <ele>1758</ele>
        <time>2021-08-19T13:05:32Z</time>
      </trkpt>
      <trkpt lat="44.24786" lon="6.67409">
        <ele>1762</ele>
        <time>2021-08-19T13:05:41Z</time>
      </trkpt>
      <trkpt lat="44.24791" lon="6.674">
        <ele>1758</ele>
        <time>2021-08-19T13:05:50Z</time>
      </trkpt>
      <trkpt lat="44.24798" lon="6.67389">
        <ele>1758</ele>
        <time>2021-08-19T13:06:00Z</time>
      </trkpt>
      <trkpt lat="44.24803" lon="6.67376">
        <ele>1758</ele>
        <time>2021-08-19T13:06:09Z</time>
      </trkpt>
      <trkpt lat="44.24802" lon="6.67363">
        <ele>1758</ele>
        <time>2021-08-19T13:06:18Z</time>
      </trkpt>
      <trkpt lat="44.24805" lon="6.67353">
        <ele>1759</ele>
        <time>2021-08-19T13:06:28Z</time>
      </trkpt>
      <trkpt lat="44.24808" lon="6.67345">
        <ele>1764</ele>
        <time>2021-08-19T13:06:37Z</time>
      </trkpt>
      <trkpt lat="44.24809" lon="6.67334">
        <ele>1767</ele>
        <time>2021-08-19T13:06:47Z</time>
      </trkpt>
      <trkpt lat="44.2481" lon="6.67327">
        <ele>1774</ele>
        <time>2021-08-19T13:06:59Z</time>
      </trkpt>
      <trkpt lat="44.24818" lon="6.67323">
        <ele>1764</ele>
        <time>2021-08-19T13:07:08Z</time>
      </trkpt>
      <trkpt lat="44.24818" lon="6.6732">
        <ele>1751</ele>
        <time>2021-08-19T13:07:25Z</time>
      </trkpt>
      <trkpt lat="44.24815" lon="6.67315">
        <ele>1751</ele>
        <time>2021-08-19T13:07:34Z</time>
      </trkpt>
      <trkpt lat="44.2481" lon="6.67312">
        <ele>1755</ele>
        <time>2021-08-19T13:07:43Z</time>
      </trkpt>
      <trkpt lat="44.24803" lon="6.67307">
        <ele>1755</ele>
        <time>2021-08-19T13:07:52Z</time>
      </trkpt>
      <trkpt lat="44.248" lon="6.67298">
        <ele>1762</ele>
        <time>2021-08-19T13:08:02Z</time>
      </trkpt>
      <trkpt lat="44.24797" lon="6.67293">
        <ele>1762</ele>
        <time>2021-08-19T13:08:11Z</time>
      </trkpt>
      <trkpt lat="44.24794" lon="6.67288">
        <ele>1762</ele>
        <time>2021-08-19T13:08:20Z</time>
      </trkpt>
      <trkpt lat="44.24788" lon="6.67274">
        <ele>1762</ele>
        <time>2021-08-19T13:08:30Z</time>
      </trkpt>
      <trkpt lat="44.24787" lon="6.67261">
        <ele>1768</ele>
        <time>2021-08-19T13:08:39Z</time>
      </trkpt>
      <trkpt lat="44.24783" lon="6.67248">
        <ele>1769</ele>
        <time>2021-08-19T13:08:49Z</time>
      </trkpt>
      <trkpt lat="44.24782" lon="6.6724">
        <ele>1774</ele>
        <time>2021-08-19T13:08:58Z</time>
      </trkpt>
      <trkpt lat="44.24784" lon="6.67231">
        <ele>1776</ele>
        <time>2021-08-19T13:09:07Z</time>
      </trkpt>
      <trkpt lat="44.24786" lon="6.67217">
        <ele>1776</ele>
        <time>2021-08-19T13:09:17Z</time>
      </trkpt>
      <trkpt lat="44.24788" lon="6.67205">
        <ele>1776</ele>
        <time>2021-08-19T13:09:26Z</time>
      </trkpt>
      <trkpt lat="44.24789" lon="6.67195">
        <ele>1776</ele>
        <time>2021-08-19T13:09:35Z</time>
      </trkpt>
      <trkpt lat="44.24789" lon="6.67186">
        <ele>1776</ele>
        <time>2021-08-19T13:09:45Z</time>
      </trkpt>
      <trkpt lat="44.24789" lon="6.67175">
        <ele>1774</ele>
        <time>2021-08-19T13:09:55Z</time>
      </trkpt>
      <trkpt lat="44.24782" lon="6.67164">
        <ele>1771</ele>
        <time>2021-08-19T13:10:05Z</time>
      </trkpt>
      <trkpt lat="44.24775" lon="6.67155">
        <ele>1772</ele>
        <time>2021-08-19T13:10:14Z</time>
      </trkpt>
      <trkpt lat="44.24772" lon="6.6714">
        <ele>1775</ele>
        <time>2021-08-19T13:10:24Z</time>
      </trkpt>
      <trkpt lat="44.24775" lon="6.67132">
        <ele>1783</ele>
        <time>2021-08-19T13:10:34Z</time>
      </trkpt>
      <trkpt lat="44.24778" lon="6.67123">
        <ele>1783</ele>
        <time>2021-08-19T13:10:43Z</time>
      </trkpt>
      <trkpt lat="44.24774" lon="6.67109">
        <ele>1780</ele>
        <time>2021-08-19T13:10:52Z</time>
      </trkpt>
      <trkpt lat="44.24771" lon="6.671">
        <ele>1780</ele>
        <time>2021-08-19T13:11:02Z</time>
      </trkpt>
      <trkpt lat="44.24775" lon="6.6709">
        <ele>1780</ele>
        <time>2021-08-19T13:11:11Z</time>
      </trkpt>
      <trkpt lat="44.24776" lon="6.67079">
        <ele>1778</ele>
        <time>2021-08-19T13:11:21Z</time>
      </trkpt>
      <trkpt lat="44.24773" lon="6.67069">
        <ele>1779</ele>
        <time>2021-08-19T13:11:32Z</time>
      </trkpt>
      <trkpt lat="44.24772" lon="6.67062">
        <ele>1780</ele>
        <time>2021-08-19T13:11:43Z</time>
      </trkpt>
      <trkpt lat="44.2477" lon="6.67053">
        <ele>1780</ele>
        <time>2021-08-19T13:11:53Z</time>
      </trkpt>
      <trkpt lat="44.24763" lon="6.67044">
        <ele>1780</ele>
        <time>2021-08-19T13:12:03Z</time>
      </trkpt>
      <trkpt lat="44.24755" lon="6.67037">
        <ele>1780</ele>
        <time>2021-08-19T13:12:13Z</time>
      </trkpt>
      <trkpt lat="44.24751" lon="6.67026">
        <ele>1780</ele>
        <time>2021-08-19T13:12:22Z</time>
      </trkpt>
      <trkpt lat="44.24746" lon="6.67014">
        <ele>1780</ele>
        <time>2021-08-19T13:12:32Z</time>
      </trkpt>
      <trkpt lat="44.24744" lon="6.67011">
        <ele>1787</ele>
        <time>2021-08-19T13:12:43Z</time>
      </trkpt>
      <trkpt lat="44.24741" lon="6.67001">
        <ele>1788</ele>
        <time>2021-08-19T13:12:53Z</time>
      </trkpt>
      <trkpt lat="44.24744" lon="6.6699">
        <ele>1789</ele>
        <time>2021-08-19T13:13:03Z</time>
      </trkpt>
      <trkpt lat="44.24743" lon="6.66983">
        <ele>1791</ele>
        <time>2021-08-19T13:13:13Z</time>
      </trkpt>
      <trkpt lat="44.2474" lon="6.66981">
        <ele>1792</ele>
        <time>2021-08-19T13:13:23Z</time>
      </trkpt>
      <trkpt lat="44.24738" lon="6.66977">
        <ele>1796</ele>
        <time>2021-08-19T13:13:33Z</time>
      </trkpt>
      <trkpt lat="44.24737" lon="6.66966">
        <ele>1800</ele>
        <time>2021-08-19T13:13:44Z</time>
      </trkpt>
      <trkpt lat="44.24738" lon="6.66958">
        <ele>1801</ele>
        <time>2021-08-19T13:13:53Z</time>
      </trkpt>
      <trkpt lat="44.24734" lon="6.6695">
        <ele>1801</ele>
        <time>2021-08-19T13:14:04Z</time>
      </trkpt>
      <trkpt lat="44.24731" lon="6.66941">
        <ele>1801</ele>
        <time>2021-08-19T13:14:14Z</time>
      </trkpt>
      <trkpt lat="44.24728" lon="6.66931">
        <ele>1801</ele>
        <time>2021-08-19T13:14:23Z</time>
      </trkpt>
      <trkpt lat="44.24724" lon="6.66923">
        <ele>1801</ele>
        <time>2021-08-19T13:14:33Z</time>
      </trkpt>
      <trkpt lat="44.24719" lon="6.66912">
        <ele>1801</ele>
        <time>2021-08-19T13:14:42Z</time>
      </trkpt>
      <trkpt lat="44.24708" lon="6.66913">
        <ele>1801</ele>
        <time>2021-08-19T13:14:53Z</time>
      </trkpt>
      <trkpt lat="44.24701" lon="6.66912">
        <ele>1802</ele>
        <time>2021-08-19T13:15:03Z</time>
      </trkpt>
      <trkpt lat="44.24697" lon="6.66914">
        <ele>1800</ele>
        <time>2021-08-19T13:15:18Z</time>
      </trkpt>
      <trkpt lat="44.24692" lon="6.66916">
        <ele>1798</ele>
        <time>2021-08-19T13:15:31Z</time>
      </trkpt>
      <trkpt lat="44.24693" lon="6.66919">
        <ele>1799</ele>
        <time>2021-08-19T13:15:42Z</time>
      </trkpt>
      <trkpt lat="44.24697" lon="6.66916">
        <ele>1799</ele>
        <time>2021-08-19T13:15:57Z</time>
      </trkpt>
      <trkpt lat="44.24696" lon="6.66916">
        <ele>1799</ele>
        <time>2021-08-19T13:16:01Z</time>
      </trkpt>
    </trkseg>
  </trk>
</gpx>